[[{"header":{"parameterUnit":"m.s-1","parameterCategory":1,"la1":30.6,"la2":29.2853,"lo1":-89.7004,"lo2":-87.6739,"dy":0.0162,"dx":0.0183,"nx":112,"ny":82,"refTime":"2024-10-05T12:00:00:Z","depth":0,"parameterNumber":2,"parameterNumberName":"U-component_of_WINDS"},"data":[0.0,0.0,0.0,0.0,0.0,0.0,0.0,0.0,0.0,0.0,0.0,0.0,0.0,0.0,0.0,0.0,0.0,0.0,0.0,0.0,0.0,0.0,0.0,0.0,0.0,0.0,0.0,0.0,0.0,0.0,0.0,0.0,0.0,0.0,0.0,0.0,0.0,0.0,0.0,0.0,0.0,0.0,0.0,0.0,0.0,0.0,0.0,0.0,0.0,0.0,0.0,0.0,0.0,0.0,0.0,0.0,0.0,0.0,0.0,0.0,0.0,0.0,0.0,0.0,0.0,0.0,0.0,0.0,0.0,0.0,0.0,0.0,0.0,0.0,0.0,0.0,0.0,0.0,0.0,0.0,0.0,0.0,0.0,0.0,0.0,0.0,0.0,0.0,0.0,0.0,4.8654,5.257,5.3966,5.4642,5.4778,5.389,5.1488,4.7233,0.0,0.0,0.0,0.0,0.0,0.0,0.0,0.0,0.0,0.0,0.0,0.0,0.0,0.0,0.0,0.0,0.0,0.0,0.0,0.0,0.0,0.0,0.0,0.0,0.0,0.0,0.0,0.0,0.0,0.0,0.0,0.0,0.0,0.0,0.0,0.0,0.0,0.0,0.0,0.0,0.0,0.0,0.0,0.0,0.0,0.0,0.0,0.0,0.0,0.0,0.0,0.0,0.0,0.0,0.0,0.0,0.0,0.0,0.0,0.0,0.0,0.0,0.0,0.0,0.0,0.0,0.0,0.0,0.0,0.0,0.0,0.0,0.0,0.0,0.0,0.0,0.0,0.0,0.0,0.0,0.0,0.0,0.0,0.0,0.0,0.0,0.0,0.0,0.0,0.0,0.0,0.0,0.0,0.0,0.0,0.0,0.0,0.0,0.0,0.0,0.0,0.0,0.0,0.0,5.0574,5.5572,5.5218,5.4837,5.5471,5.3644,5.1108,4.7921,0.0,0.0,0.0,0.0,0.0,0.0,0.0,0.0,0.0,0.0,0.0,0.0,0.0,0.0,0.0,0.0,0.0,0.0,0.0,0.0,0.0,0.0,0.0,0.0,0.0,0.0,0.0,0.0,0.0,0.0,0.0,0.0,0.0,0.0,0.0,0.0,0.0,0.0,0.0,0.0,0.0,0.0,0.0,0.0,0.0,0.0,0.0,0.0,0.0,0.0,0.0,0.0,0.0,0.0,0.0,0.0,0.0,0.0,0.0,0.0,0.0,0.0,0.0,0.0,0.0,0.0,0.0,0.0,0.0,0.0,0.0,0.0,0.0,0.0,0.0,0.0,0.0,0.0,0.0,0.0,0.0,0.0,0.0,0.0,0.0,0.0,0.0,0.0,0.0,0.0,0.0,0.0,0.0,0.0,0.0,0.0,0.0,0.0,0.0,0.0,0.0,0.0,0.0,5.0338,5.2807,5.6427,5.5843,5.5336,5.5665,5.4016,5.1352,4.7522,4.6996,0.0,0.0,0.0,0.0,0.0,0.0,0.0,0.0,0.0,0.0,0.0,0.0,0.0,0.0,0.0,0.0,0.0,0.0,0.0,0.0,0.0,0.0,0.0,0.0,0.0,0.0,0.0,0.0,0.0,0.0,0.0,0.0,0.0,0.0,0.0,0.0,0.0,0.0,0.0,0.0,0.0,0.0,0.0,0.0,0.0,0.0,0.0,0.0,0.0,0.0,0.0,0.0,0.0,0.0,0.0,0.0,0.0,0.0,0.0,0.0,0.0,0.0,0.0,0.0,0.0,0.0,0.0,0.0,0.0,0.0,0.0,0.0,0.0,0.0,0.0,0.0,0.0,0.0,0.0,0.0,0.0,0.0,0.0,0.0,0.0,0.0,0.0,0.0,0.0,0.0,0.0,0.0,0.0,0.0,0.0,0.0,0.0,0.0,0.0,0.0,0.0,0.0,5.3205,5.4727,5.6587,5.6147,5.5631,5.5471,5.3746,5.1014,4.7064,4.6285,0.0,0.0,0.0,0.0,0.0,0.0,0.0,0.0,0.0,0.0,0.0,0.0,0.0,0.0,0.0,0.0,0.0,0.0,0.0,0.0,0.0,0.0,0.0,0.0,0.0,0.0,0.0,0.0,0.0,0.0,0.0,0.0,0.0,0.0,0.0,0.0,0.0,0.0,0.0,0.0,0.0,0.0,0.0,0.0,0.0,0.0,0.0,0.0,0.0,0.0,0.0,0.0,0.0,0.0,0.0,0.0,0.0,0.0,0.0,0.0,0.0,0.0,0.0,0.0,0.0,0.0,0.0,0.0,0.0,0.0,0.0,0.0,0.0,0.0,0.0,0.0,0.0,0.0,0.0,0.0,0.0,0.0,0.0,0.0,0.0,0.0,0.0,0.0,0.0,0.0,0.0,0.0,0.0,0.0,0.0,0.0,0.0,0.0,0.0,0.0,0.0,0.0,5.3771,5.5868,5.6697,5.6147,5.5437,5.4744,5.2003,4.933,4.6962,4.4816,0.0,0.0,0.0,0.0,0.0,0.0,0.0,0.0,0.0,0.0,0.0,0.0,0.0,0.0,0.0,0.0,0.0,0.0,0.0,0.0,0.0,0.0,0.0,0.0,0.0,0.0,0.0,0.0,0.0,0.0,0.0,0.0,0.0,0.0,0.0,0.0,0.0,0.0,0.0,0.0,0.0,0.0,0.0,0.0,0.0,0.0,0.0,0.0,0.0,0.0,0.0,0.0,0.0,0.0,0.0,0.0,0.0,0.0,0.0,0.0,0.0,0.0,0.0,0.0,0.0,0.0,0.0,0.0,0.0,0.0,0.0,0.0,0.0,0.0,0.0,0.0,0.0,0.0,0.0,0.0,0.0,0.0,0.0,0.0,0.0,0.0,0.0,0.0,0.0,0.0,0.0,0.0,0.0,0.0,0.0,0.0,0.0,0.0,0.0,0.0,0.0,0.0,5.3027,5.5133,5.7273,5.6833,5.608,5.5336,5.3822,5.1158,4.7064,0.0,0.0,0.0,0.0,0.0,0.0,0.0,0.0,0.0,0.0,0.0,0.0,0.0,0.0,0.0,0.0,0.0,0.0,0.0,0.0,0.0,0.0,0.0,0.0,0.0,0.0,0.0,0.0,0.0,0.0,0.0,0.0,0.0,0.0,0.0,0.0,0.0,0.0,0.0,0.0,0.0,0.0,0.0,0.0,0.0,0.0,0.0,0.0,0.0,0.0,0.0,0.0,0.0,0.0,0.0,0.0,0.0,0.0,0.0,0.0,0.0,0.0,0.0,0.0,0.0,0.0,0.0,0.0,0.0,0.0,0.0,0.0,0.0,0.0,0.0,0.0,0.0,0.0,0.0,0.0,0.0,0.0,0.0,0.0,0.0,0.0,0.0,0.0,0.0,0.0,0.0,0.0,0.0,0.0,0.0,0.0,0.0,0.0,0.0,0.0,0.0,0.0,5.0694,5.296,5.5065,5.7315,5.7103,5.6418,5.5437,5.4025,5.1361,4.7064,0.0,0.0,0.0,0.0,0.0,0.0,0.0,0.0,0.0,0.0,0.0,0.0,0.0,0.0,0.0,0.0,0.0,0.0,0.0,0.0,0.0,0.0,0.0,0.0,0.0,0.0,0.0,0.0,0.0,0.0,0.0,0.0,0.0,0.0,0.0,0.0,0.0,0.0,0.0,0.0,0.0,0.0,0.0,0.0,0.0,0.0,0.0,0.0,0.0,0.0,0.0,0.0,0.0,0.0,0.0,0.0,0.0,0.0,0.0,0.0,0.0,0.0,0.0,0.0,0.0,0.0,0.0,0.0,0.0,0.0,0.0,0.0,0.0,0.0,0.0,0.0,0.0,0.0,0.0,0.0,0.0,0.0,0.0,0.0,0.0,0.0,0.0,0.0,0.0,0.0,0.0,0.0,0.0,0.0,0.0,0.0,0.0,0.0,0.0,0.0,0.0,0.0,5.0829,5.3839,5.6003,5.6731,5.679,5.6224,5.4744,5.1868,4.9195,0.0,0.0,0.0,0.0,0.0,0.0,0.0,0.0,0.0,0.0,0.0,0.0,0.0,0.0,0.0,0.0,0.0,0.0,0.0,0.0,0.0,0.0,0.0,0.0,0.0,0.0,0.0,0.0,0.0,0.0,0.0,0.0,0.0,0.0,0.0,0.0,0.0,0.0,0.0,0.0,0.0,0.0,0.0,0.0,0.0,0.0,0.0,0.0,0.0,0.0,0.0,0.0,0.0,0.0,0.0,0.0,0.0,0.0,0.0,0.0,0.0,0.0,0.0,0.0,0.0,0.0,0.0,0.0,0.0,0.0,0.0,0.0,0.0,0.0,0.0,0.0,0.0,0.0,0.0,0.0,0.0,0.0,0.0,0.0,0.0,0.0,0.0,0.0,0.0,0.0,0.0,0.0,0.0,0.0,0.0,0.0,0.0,0.0,0.0,0.0,0.0,0.0,0.0,5.1589,5.4591,5.6765,5.7485,5.7586,5.6968,5.5505,5.4093,5.1428,4.7064,0.0,0.0,0.0,0.0,0.0,0.0,0.0,0.0,0.0,0.0,0.0,0.0,0.0,0.0,0.0,0.0,0.0,0.0,0.0,0.0,0.0,0.0,0.0,0.0,0.0,0.0,0.0,0.0,0.0,0.0,0.0,0.0,0.0,0.0,0.0,0.0,0.0,0.0,0.0,0.0,0.0,0.0,0.0,0.0,0.0,0.0,0.0,0.0,0.0,0.0,0.0,0.0,0.0,0.0,0.0,0.0,0.0,0.0,0.0,0.0,0.0,0.0,0.0,0.0,0.0,0.0,0.0,0.0,0.0,0.0,0.0,0.0,0.0,0.0,0.0,0.0,0.0,0.0,0.0,0.0,0.0,0.0,0.0,0.0,0.0,0.0,0.0,0.0,0.0,0.0,0.0,0.0,0.0,0.0,0.0,0.0,0.0,0.0,0.0,0.0,0.0,0.0,5.2359,5.5133,5.7205,5.822,5.8094,5.7315,5.5834,5.5006,5.2477,4.7564,0.0,0.0,0.0,0.0,0.0,0.0,0.0,0.0,0.0,0.0,0.0,0.0,0.0,0.0,0.0,0.0,0.0,0.0,0.0,0.0,0.0,0.0,0.0,0.0,0.0,0.0,0.0,0.0,0.0,0.0,0.0,0.0,0.0,0.0,0.0,0.0,0.0,0.0,0.0,0.0,0.0,0.0,0.0,0.0,0.0,0.0,0.0,0.0,0.0,0.0,0.0,0.0,0.0,0.0,0.0,0.0,0.0,0.0,0.0,0.0,0.0,0.0,0.0,0.0,0.0,0.0,0.0,0.0,0.0,0.0,0.0,0.0,0.0,0.0,0.0,0.0,0.0,0.0,0.0,0.0,0.0,0.0,0.0,0.0,0.0,0.0,0.0,0.0,0.0,0.0,0.0,0.0,0.0,0.0,0.0,0.0,0.0,0.0,0.0,0.0,0.0,0.0,5.3145,5.5572,5.75,5.8844,5.8389,5.7408,5.5944,5.5074,5.2739,4.8394,0.0,0.0,0.0,0.0,0.0,0.0,0.0,0.0,0.0,0.0,0.0,0.0,0.0,0.0,0.0,0.0,0.0,0.0,0.0,0.0,0.0,0.0,0.0,0.0,0.0,0.0,0.0,0.0,0.0,0.0,0.0,0.0,0.0,0.0,0.0,0.0,0.0,0.0,0.0,0.0,0.0,0.0,0.0,0.0,0.0,0.0,0.0,0.0,0.0,0.0,0.0,0.0,0.0,0.0,0.0,0.0,0.0,0.0,0.0,0.0,4.5425,0.0,0.0,0.0,0.0,0.0,0.0,0.0,0.0,0.0,0.0,0.0,0.0,0.0,0.0,0.0,0.0,0.0,0.0,0.0,0.0,0.0,0.0,0.0,0.0,0.0,0.0,0.0,0.0,0.0,0.0,0.0,0.0,0.0,0.0,0.0,0.0,0.0,0.0,0.0,0.0,0.0,5.3966,5.679,5.865,5.8979,5.8853,5.8177,5.6697,5.5353,5.3188,4.9838,4.7706,0.0,0.0,0.0,0.0,0.0,0.0,0.0,0.0,0.0,0.0,0.0,0.0,0.0,0.0,0.0,0.0,0.0,0.0,0.0,0.0,0.0,0.0,0.0,0.0,0.0,0.0,0.0,0.0,0.0,0.0,0.0,0.0,0.0,0.0,0.0,0.0,0.0,0.0,0.0,0.0,0.0,0.0,0.0,0.0,0.0,0.0,0.0,0.0,0.0,0.0,0.0,0.0,0.0,0.0,0.0,0.0,0.0,0.0,0.0,0.0,4.6136,0.0,0.0,0.0,0.0,0.0,0.0,0.0,0.0,0.0,0.0,0.0,0.0,0.0,0.0,0.0,0.0,0.0,0.0,0.0,0.0,0.0,0.0,0.0,0.0,0.0,0.0,0.0,0.0,0.0,0.0,0.0,0.0,0.0,0.0,0.0,0.0,0.0,0.0,0.0,0.0,5.5175,5.7602,5.9284,6.0037,5.9428,5.8549,5.7408,5.6292,5.4372,5.1361,4.9763,0.0,0.0,0.0,0.0,0.0,0.0,0.0,0.0,0.0,0.0,0.0,0.0,0.0,0.0,0.0,0.0,0.0,0.0,0.0,0.0,0.0,0.0,0.0,0.0,0.0,0.0,0.0,0.0,0.0,0.0,0.0,0.0,0.0,0.0,0.0,0.0,0.0,0.0,0.0,0.0,0.0,0.0,0.0,0.0,0.0,0.0,0.0,0.0,0.0,0.0,0.0,0.0,0.0,5.08,5.1305,5.1267,5.0796,5.115,5.2079,5.0229,4.9709,4.996,4.6968,0.0,0.0,0.0,0.0,0.0,0.0,0.0,0.0,0.0,0.0,0.0,0.0,0.0,0.0,0.0,0.0,0.0,0.0,0.0,0.0,0.0,0.0,0.0,0.0,5.1412,5.2435,0.0,0.0,0.0,0.0,0.0,0.0,0.0,0.0,0.0,0.0,0.0,0.0,5.6258,5.8312,5.9902,6.1163,6.0037,5.8887,5.8161,5.7306,5.5674,5.3078,5.1953,5.0262,0.0,0.0,0.0,0.0,0.0,0.0,0.0,0.0,0.0,0.0,0.0,0.0,0.0,0.0,0.0,0.0,0.0,0.0,0.0,0.0,0.0,0.0,0.0,0.0,0.0,0.0,0.0,0.0,0.0,0.0,0.0,0.0,4.7751,4.7971,0.0,0.0,0.0,0.0,0.0,0.0,0.0,0.0,0.0,0.0,0.0,0.0,0.0,4.9517,4.9755,5.1906,5.3262,5.3864,5.5886,5.6851,5.6851,5.6746,5.6461,5.6089,5.6389,0.0,5.1007,5.0539,0.0,0.0,0.0,0.0,0.0,0.0,0.0,0.0,0.0,0.0,0.0,0.0,0.0,0.0,0.0,0.0,0.0,0.0,0.0,0.0,0.0,0.0,5.5886,5.5683,5.6393,5.7011,0.0,5.2435,4.8571,4.765,4.7549,0.0,0.0,0.0,0.0,0.0,0.0,0.0,5.6494,5.9268,6.1052,6.1298,6.0486,5.9674,5.8921,5.7602,5.635,5.5327,5.3357,5.1767,5.066,4.8597,0.0,0.0,0.0,0.0,0.0,0.0,0.0,0.0,0.0,0.0,0.0,0.0,0.0,0.0,0.0,0.0,0.0,0.0,0.0,0.0,0.0,0.0,0.0,0.0,0.0,0.0,0.0,0.0,0.0,4.7127,4.8485,4.8972,4.8715,4.786,0.0,0.0,0.0,0.0,0.0,0.0,0.0,0.0,0.0,5.2378,5.2918,5.3778,5.5046,5.612,5.6772,5.7072,5.8513,5.9159,5.9146,5.914,5.8964,5.866,5.9007,5.7771,5.5471,5.378,5.2291,5.0939,0.0,0.0,0.0,0.0,5.0033,4.9518,5.1209,5.1251,0.0,4.9916,0.0,0.0,0.0,0.0,0.0,0.0,0.0,0.0,0.0,0.0,5.7509,5.794,5.8592,5.9142,5.9142,5.707,5.4659,0.0,5.2283,5.1404,4.8646,0.0,0.0,0.0,0.0,5.5674,5.8321,6.0216,6.1467,6.1873,6.1231,6.0443,5.9665,5.865,5.7534,5.6384,5.5412,5.416,5.2562,5.1141,4.9484,0.0,0.0,0.0,0.0,0.0,0.0,0.0,0.0,0.0,0.0,0.0,0.0,0.0,0.0,0.0,0.0,0.0,0.0,0.0,0.0,0.0,0.0,0.0,0.0,0.0,0.0,0.0,0.0,4.8778,4.9803,5.042,5.0696,4.9914,0.0,0.0,0.0,0.0,0.0,0.0,5.1927,5.298,5.4333,5.5949,5.6748,5.8054,5.9941,5.9778,5.9715,5.9877,6.0494,6.0732,6.0689,6.0892,6.0858,6.0689,6.0892,6.0443,5.9394,5.6799,5.5277,5.4499,5.3374,5.29,5.3036,5.4194,5.3881,5.3239,5.5471,5.5539,5.4431,5.3272,5.2393,5.1378,4.9187,0.0,0.0,0.0,0.0,5.416,5.6037,5.7636,5.8906,5.9462,6.0308,6.096,6.096,6.1129,6.0317,0.0,5.6544,5.5539,5.2376,0.0,0.0,0.0,0.0,5.7399,5.981,6.096,6.1772,6.2357,6.1738,6.1061,6.0452,5.953,5.8549,5.7433,5.7002,5.6055,5.4422,5.3577,5.2131,4.9898,0.0,0.0,0.0,0.0,0.0,0.0,0.0,0.0,0.0,0.0,0.0,0.0,0.0,0.0,0.0,0.0,0.0,0.0,0.0,0.0,0.0,0.0,0.0,0.0,0.0,0.0,0.0,0.0,0.0,5.2993,5.3701,0.0,0.0,0.0,0.0,5.3889,5.364,5.4638,5.7432,5.7593,5.8308,5.9768,6.0605,6.1421,6.2232,6.1535,6.155,6.2221,6.227,6.2304,6.2323,6.3014,6.2946,6.2323,6.3014,6.2506,6.1061,5.9428,5.8355,5.7654,5.7586,5.7552,5.7552,5.7654,5.762,5.7586,5.7721,5.7721,5.7654,5.7586,5.5658,5.3374,5.3213,5.2672,0.0,0.0,5.5928,5.7823,5.8616,5.9969,6.1129,6.1197,6.2269,6.3342,6.3342,6.3893,6.3294,0.0,5.881,5.8337,5.6722,0.0,5.6519,5.6562,5.7872,5.9158,5.9979,6.1409,6.2357,6.2391,6.1738,6.1298,6.1221,5.9868,5.8979,5.8878,5.7568,5.6765,5.663,5.5911,5.4456,5.2198,5.1336,0.0,0.0,0.0,0.0,0.0,0.0,0.0,0.0,0.0,0.0,0.0,0.0,0.0,0.0,0.0,0.0,0.0,0.0,0.0,0.0,0.0,0.0,0.0,0.0,0.0,0.0,0.0,0.0,5.6243,5.6957,0.0,5.5001,5.4734,5.5489,5.7515,5.7756,5.8702,6.0843,6.1326,6.1741,6.2279,6.3023,6.3552,6.3802,6.3565,6.3565,6.3802,6.3802,6.3802,6.3802,6.4106,6.4072,6.3835,6.4106,6.3903,6.3396,6.2811,6.1298,5.9302,5.9302,5.9302,5.9302,5.9302,5.9302,5.9302,5.9302,5.9302,5.9244,5.8761,5.7577,5.6334,5.6334,5.6461,5.6824,5.7848,5.9066,6.025,6.0994,6.1931,6.2709,6.2709,6.3487,6.4197,6.4197,6.44,6.4208,6.2844,6.2236,6.1424,5.9945,6.008,6.025,5.9776,6.0554,6.1467,6.2202,6.2347,6.2391,6.2391,6.2154,6.1815,6.1332,6.0308,5.9496,5.9013,5.8051,5.7315,5.6833,5.6553,5.5572,5.3822,5.2536,5.033,0.0,0.0,0.0,0.0,0.0,0.0,0.0,0.0,0.0,0.0,0.0,0.0,0.0,0.0,0.0,0.0,0.0,0.0,0.0,0.0,0.0,0.0,0.0,0.0,0.0,5.5557,5.7795,5.8294,5.9549,5.9801,5.8364,5.8701,5.983,6.1713,6.1732,6.2393,6.4089,6.3983,6.3994,6.4231,6.4715,6.5087,6.5347,6.5087,6.4952,6.4952,6.4952,6.4952,6.4952,6.4952,6.4952,6.4952,6.4952,6.4816,6.4613,6.4884,6.3632,6.1637,6.1637,6.1637,6.1637,6.1637,6.1637,6.1637,6.1637,6.1298,6.08,6.0317,5.9471,5.8635,5.8635,5.9167,5.9868,6.0385,6.1061,6.1839,6.2584,6.3115,6.3555,6.3825,6.4444,6.4952,6.4952,6.5155,6.5347,6.5347,6.4536,6.3555,6.2584,6.2821,6.3,6.2482,6.2618,6.2956,6.3453,6.2854,6.2391,6.2391,6.2391,6.212,6.1366,6.0341,5.953,5.9013,5.7848,5.7036,5.679,5.6553,5.5852,5.4609,5.3086,5.148,4.9781,0.0,0.0,0.0,0.0,0.0,0.0,0.0,0.0,0.0,0.0,0.0,0.0,0.0,0.0,0.0,0.0,0.0,0.0,0.0,0.0,0.0,0.0,0.0,5.4627,5.7321,5.9376,5.9297,6.1448,6.2345,6.0756,6.2562,6.4585,6.6379,6.5405,6.5468,6.7197,6.5639,6.4986,6.5706,6.5751,6.6102,6.6836,6.6136,6.5808,6.5808,6.5808,6.5774,6.5774,6.5774,6.5774,6.5774,6.5808,6.5402,6.4783,6.5503,6.5402,6.4749,6.4647,6.4613,6.4613,6.4613,6.4613,6.4613,6.4613,6.3666,6.2458,6.2458,6.1477,6.025,6.025,6.0791,6.14,6.14,6.1907,6.2618,6.3352,6.3545,6.3758,6.4468,6.5199,6.574,6.574,6.6305,6.6802,6.6802,6.5652,6.4715,6.4681,6.4681,6.4681,6.4681,6.4028,0.0,6.3579,6.2888,6.2424,6.2424,6.2424,6.212,6.14,5.9936,5.9013,5.9013,5.695,5.608,5.6799,5.6147,5.5437,5.471,5.3179,5.2773,5.3543,0.0,0.0,0.0,0.0,0.0,0.0,0.0,0.0,0.0,0.0,0.0,0.0,0.0,0.0,0.0,0.0,0.0,0.0,0.0,0.0,0.0,5.4826,5.7482,5.6998,6.128,6.4201,6.3396,6.4938,6.5897,6.5459,6.4787,6.513,6.6946,6.6058,6.5916,6.7025,6.6511,6.6294,6.6508,6.7015,6.7387,6.759,6.7963,6.8166,6.8166,6.8166,6.7861,6.732,6.7895,6.7838,6.733,6.7895,6.8064,6.7895,6.8064,6.803,6.7658,6.5459,6.4613,6.4613,6.4613,6.4613,6.4613,6.4613,6.4343,6.4005,6.4005,6.37,6.3362,6.3362,6.3531,6.37,6.37,6.3835,6.4038,6.4241,6.4681,6.5165,6.5368,6.5967,6.6497,6.6497,6.6667,6.6802,6.6802,6.6903,6.6812,6.6294,6.6193,6.6193,6.6193,6.5561,0.0,6.5097,6.3971,6.3183,6.3183,6.2719,6.2323,6.212,6.0689,5.9564,5.9013,5.7433,5.6833,5.7586,5.7408,5.7214,5.7011,5.5547,5.4625,0.0,0.0,0.0,0.0,0.0,0.0,0.0,0.0,0.0,0.0,0.0,0.0,0.0,0.0,0.0,0.0,0.0,0.0,0.0,0.0,0.0,0.0,5.7889,6.0486,6.0786,6.3995,6.603,6.539,6.6469,6.7417,6.7719,6.6759,6.6856,6.8576,6.7724,6.7519,6.8408,6.8032,6.7749,6.7749,6.8199,6.8402,6.8402,6.8876,6.9113,6.9113,6.9113,6.8876,6.8402,6.8876,6.8842,6.8436,6.891,6.9113,6.9113,6.9113,6.9113,0.0,0.0,0.0,0.0,0.0,6.5517,6.5517,6.5517,6.5324,6.5063,6.5063,6.485,6.4613,6.4613,6.4613,6.4613,6.4613,6.4613,6.4681,6.4986,6.5368,6.5774,6.6102,6.6711,6.7242,6.7242,6.7242,6.7343,6.7715,6.7827,0.0,6.7783,6.7478,6.7242,6.7242,6.6373,6.5706,6.5706,6.4681,6.3961,6.3961,6.3565,6.3193,6.2888,6.1467,0.0,0.0,0.0,5.7442,5.7891,5.8195,0.0,0.0,0.0,0.0,0.0,0.0,0.0,0.0,5.953,5.9834,0.0,0.0,0.0,0.0,0.0,0.0,0.0,0.0,0.0,0.0,0.0,0.0,0.0,0.0,0.0,0.0,6.1527,6.4191,6.4992,6.5816,6.6274,6.6028,6.6972,6.7879,6.8431,6.836,6.8929,7.0398,6.9636,6.9476,7.0307,6.9548,0.0,0.0,0.0,6.9214,6.9214,6.9316,6.935,6.935,6.935,6.9316,6.9214,6.9316,6.9316,6.9214,6.9316,6.935,6.935,6.935,6.935,6.935,6.918,6.8673,6.7963,6.7208,6.6937,6.6903,6.6836,0.0,0.0,6.5808,6.5392,6.485,6.485,6.485,6.485,6.485,6.485,6.5019,6.5774,6.5943,6.6146,6.6869,6.7546,6.803,6.803,6.803,6.8233,6.8977,6.8605,6.8402,6.9113,6.8571,6.803,6.803,6.6846,6.5943,6.5943,6.5222,6.4715,6.4715,0.0,0.0,6.3781,6.2472,6.1637,6.1559,5.9641,5.8567,5.8635,5.9428,6.0477,6.1772,6.2526,6.3845,6.5842,6.6745,6.7242,6.7208,6.3115,6.3,0.0,0.0,0.0,0.0,0.0,0.0,0.0,0.0,0.0,0.0,0.0,0.0,0.0,0.0,0.0,5.9261,6.2871,6.5593,6.633,6.7645,6.8017,6.6786,6.8565,6.9649,6.9013,6.8955,6.907,6.9373,6.9215,6.9177,6.9358,6.9198,6.9113,6.9113,6.9699,7.0003,7.0003,7.0601,7.0861,7.0861,0.0,0.0,7.0003,7.059,7.0567,7.0037,7.0635,7.0861,7.0861,7.0861,7.0861,7.0759,6.9553,6.9011,6.8774,6.7996,6.7692,6.759,6.7005,6.67,6.6599,6.6599,6.6497,6.6362,6.6362,6.6362,0.0,6.6362,6.6362,6.6531,6.7286,6.7455,6.7658,6.847,6.8774,6.8876,6.8876,6.8876,6.891,6.9079,6.9451,6.98,6.9969,6.935,6.8876,6.8876,6.8064,6.7455,6.7455,6.6315,6.5503,6.5503,6.5503,6.5436,6.53,6.4478,6.37,6.3115,6.2675,6.2675,6.3294,6.4569,6.5144,6.486,6.5561,6.6159,6.6599,6.8571,6.9857,7.0376,6.8944,6.8312,0.0,0.0,0.0,0.0,0.0,0.0,0.0,0.0,0.0,0.0,0.0,5.3118,5.4836,0.0,6.0487,6.3173,6.5385,6.7215,6.847,6.9231,6.9214,6.8087,6.9029,6.9759,6.9641,6.9654,6.9789,7.015,7.0184,7.0184,7.0184,7.0184,7.0184,7.0184,7.0567,7.0737,7.0737,7.1131,7.13,7.13,7.13,7.1097,7.077,7.1131,7.1097,7.077,7.1131,7.13,7.13,7.13,7.13,7.1233,7.0489,6.9992,6.9553,6.8774,6.8504,6.8436,6.8087,6.7681,6.7343,6.7343,6.7106,6.6802,6.6802,6.7072,6.7343,6.7343,6.7647,6.8053,6.8402,6.8504,6.8605,6.9011,6.9383,6.9654,6.9654,6.9654,6.9755,7.0128,7.0195,7.0308,7.0703,7.0432,7.0094,6.9722,6.8977,6.8504,6.8504,6.7861,6.7398,6.7398,6.7398,6.7398,6.7398,6.6677,6.5933,6.5202,6.5134,6.5314,6.5686,6.6768,6.7387,6.7398,6.8493,6.9237,6.962,7.112,7.2033,7.2394,7.2394,7.2022,0.0,0.0,0.0,0.0,0.0,0.0,0.0,5.2006,5.3076,5.333,5.5669,5.7954,5.8998,6.1922,6.4818,6.6922,6.7861,6.8825,7.0251,7.0433,7.0195,6.9586,6.9519,6.9755,7.0375,7.0398,7.0669,7.1267,7.13,7.13,7.13,7.13,7.13,7.13,7.13,7.13,7.13,7.13,7.13,7.13,7.13,7.13,7.13,7.13,7.13,7.13,7.13,7.13,7.13,7.13,7.13,7.13,7.13,7.0939,7.0331,6.9586,6.9316,6.9282,6.9147,6.8673,6.8132,6.8132,6.7614,6.7039,6.7208,6.7546,6.7929,6.8098,6.8605,6.9147,6.9282,6.9316,6.935,6.9485,6.9992,7.0398,7.0398,7.0398,7.0601,7.1199,7.0804,7.0601,7.1199,7.13,7.1097,7.0511,6.98,6.9316,6.9316,6.918,6.9113,6.9113,6.9214,6.9316,6.9316,6.8707,6.8098,6.7512,6.7444,6.758,6.7884,6.847,6.9147,6.9925,7.1131,7.2022,7.2631,7.3353,7.3793,7.3962,7.4695,7.4559,4.8719,4.9853,5.0806,5.1458,5.2288,5.3975,0.0,5.8025,5.7967,6.06,6.146,6.2177,6.3577,6.5272,6.6742,6.7658,6.8996,7.0013,7.0213,7.078,7.1131,7.1064,7.1064,7.1097,7.1165,7.1165,7.1199,7.1289,7.13,7.13,7.13,7.13,7.13,7.13,7.13,7.13,7.13,7.13,7.13,7.13,7.13,7.13,7.13,7.13,7.13,7.13,7.13,7.13,7.13,7.13,7.13,7.13,7.13,7.1267,7.1097,7.0342,7.0071,6.9969,6.9316,6.9045,6.8977,6.8977,6.8436,6.7895,6.8639,6.8402,6.8064,6.8774,6.9045,6.9248,6.9902,7.0071,7.024,7.0894,7.1131,7.1165,7.1165,7.1165,7.1199,7.13,7.1233,7.1199,7.13,7.13,7.1267,7.1199,7.0534,7.0071,7.0071,6.9519,6.9113,6.9113,6.9699,7.0071,7.0071,7.0003,6.9902,6.9834,6.9834,7.0409,7.1718,7.1853,7.227,7.2981,7.3184,7.3285,7.3387,7.4119,7.4818,7.5473,7.6284,7.5879,5.3078,5.3707,5.4004,5.5723,5.7061,5.8484,6.0446,6.1043,6.1649,6.3331,6.4352,6.5267,6.6313,6.7743,6.8876,6.9191,7.0128,7.0838,7.0838,7.1097,7.1131,7.0703,7.103,7.13,7.13,7.13,7.13,7.13,7.13,7.13,7.13,7.13,7.13,7.13,7.13,7.13,7.13,7.13,7.13,7.13,7.13,7.13,7.13,7.13,7.13,7.13,7.13,7.13,7.13,7.13,7.13,7.13,7.13,7.13,7.1267,7.0962,7.0838,7.0804,7.05,7.0094,6.9733,6.9733,6.9214,6.8673,6.9011,6.9147,6.9327,6.9665,7.006,7.0455,7.077,7.0838,7.0928,7.1233,7.13,7.13,7.13,7.13,7.13,7.13,7.13,7.13,7.13,7.13,7.13,7.13,7.103,7.0838,7.0838,7.0556,7.0387,7.0387,7.0658,7.0838,7.0838,7.0838,7.0838,7.0838,7.1244,7.1751,7.236,7.2812,7.3184,7.3488,7.4334,7.4774,7.4774,7.598,7.6736,7.7041,7.7379,7.721,5.5275,5.6015,5.6754,5.8988,6.0788,6.2136,6.2584,6.3772,6.4941,6.5417,6.6711,6.7895,6.8447,6.962,7.0511,7.0511,7.0962,7.13,7.13,7.1131,7.0804,7.0274,7.05,7.0759,7.0962,7.1165,7.13,7.13,7.13,7.13,7.13,7.1503,7.1605,7.1605,7.1605,7.1706,7.1909,7.1503,7.1402,7.1605,7.1402,7.13,7.13,7.13,7.13,7.13,7.13,7.13,7.13,7.13,7.13,7.13,7.13,7.13,7.13,7.13,7.13,7.13,7.13,7.0962,7.0511,7.0511,6.9992,6.9451,6.9654,6.9925,7.024,7.0443,7.0906,7.13,7.13,7.13,7.13,7.13,7.147,7.1605,7.1605,7.174,7.1842,7.1639,7.1605,7.1537,7.1334,7.13,7.13,7.13,7.13,7.13,7.13,7.13,7.13,7.13,7.13,7.13,7.13,7.1503,7.1605,7.1605,7.2293,7.28,7.3003,7.351,7.3894,7.4097,7.5371,7.6014,7.6014,7.7345,7.809,7.8293,7.8293,7.8293,5.3697,5.5522,5.8227,5.993,6.2023,6.4004,6.5519,6.7011,6.8024,6.7847,6.9011,7.0105,7.0139,7.0737,7.1267,7.1267,7.13,7.13,7.13,7.0669,7.024,7.0206,6.9586,6.9451,7.0172,7.0872,7.13,7.13,7.13,7.13,7.13,7.1988,7.236,7.236,7.236,7.2699,7.3421,7.2011,7.1672,7.236,7.1639,7.13,7.13,7.13,7.13,7.13,7.13,7.13,7.13,7.13,7.13,7.13,7.13,7.13,7.13,7.13,7.13,7.13,7.13,7.13,7.1267,7.1267,7.077,7.0308,7.103,7.0737,7.0342,7.1064,7.13,7.13,7.13,7.13,7.13,7.13,7.1842,7.236,7.236,7.2947,7.3218,7.2496,7.236,7.2157,7.1436,7.13,7.13,7.13,7.13,7.13,7.13,7.13,7.13,7.13,7.13,7.13,7.13,7.1943,7.236,7.236,7.3048,7.3781,7.4514,7.4547,7.4886,7.5608,7.6454,7.686,7.686,7.765,7.836,7.908,7.908,7.908,5.7404,5.9944,6.2245,6.3213,6.4785,6.632,6.726,6.7746,6.8125,6.8613,6.8673,6.8673,6.8673,6.8876,6.9214,6.9744,7.0263,7.0737,7.1233,7.1097,7.0567,6.9586,7.0128,7.0252,6.9553,7.0128,7.077,7.1267,7.174,7.2011,7.2011,7.2732,7.3116,7.3116,7.3116,7.3251,7.3488,7.3015,7.2879,7.3116,7.2394,7.2011,7.2011,7.2011,7.2293,7.2732,7.2225,7.2011,7.1977,7.1503,7.13,7.13,7.13,7.13,7.13,7.13,7.13,7.13,7.13,7.13,7.13,7.13,7.1131,7.0973,7.1233,7.1131,7.0962,7.1233,7.13,7.13,7.13,7.13,7.13,7.13,7.1503,7.1808,7.2293,7.2597,7.2845,7.3082,7.3116,7.3048,7.28,7.236,7.2011,7.2011,7.1605,7.13,7.13,7.13,7.13,7.13,7.13,7.13,7.13,7.1988,7.2394,7.2394,7.3544,7.4345,7.4581,7.5055,7.5709,7.6487,7.7244,7.7874,7.837,7.9092,7.96,7.9837,7.9837,7.9287,6.034,6.2373,6.3983,6.584,6.6535,6.699,6.7991,6.8056,6.7895,6.7895,6.7455,6.7015,6.6779,6.6711,6.7151,6.847,6.9316,7.0161,7.1165,7.1064,7.0567,6.962,7.0094,7.0252,6.9553,6.9936,7.0511,7.1233,7.1988,7.2394,7.2394,7.3341,7.3883,7.3883,7.3883,7.403,7.4266,7.3759,7.3488,7.3488,7.3015,7.2812,7.2812,7.2812,7.3048,7.3454,7.271,7.2394,7.2326,7.1605,7.13,7.13,7.13,7.13,7.13,7.13,7.13,7.13,7.13,7.13,7.13,7.13,7.13,7.13,7.13,7.13,7.13,7.13,7.13,7.13,7.13,7.13,7.13,7.13,7.1503,7.1887,7.2631,7.3003,7.3341,7.3781,7.3883,7.3827,7.3556,7.3116,7.2812,7.2812,7.2394,7.1977,7.174,7.1672,7.1605,7.1334,7.13,7.1402,7.1672,7.236,7.2902,7.3172,7.4311,7.4987,7.4987,7.5709,7.6352,7.6893,7.7874,7.8619,7.9114,7.9837,8.0209,8.0196,7.9644,7.9137,6.2266,6.2889,6.3823,6.7641,6.7246,6.6296,6.7778,6.7933,6.7354,6.5876,6.5537,6.5233,6.4444,6.441,6.5189,6.7387,6.8504,6.962,7.1097,7.0737,7.0308,7.0274,6.9654,6.9519,7.0206,7.0274,7.0601,7.13,7.2056,7.2462,7.2529,7.3871,7.4649,7.4649,7.4649,7.4987,7.5676,7.43,7.359,7.3556,7.3556,7.3556,7.3556,7.3556,7.359,7.3556,7.28,7.2462,7.2394,7.1605,7.13,7.13,7.13,7.13,7.13,7.13,7.13,7.13,7.13,7.13,7.13,7.13,7.13,7.13,7.13,7.13,7.13,7.13,7.13,7.13,7.13,7.13,7.1289,7.1368,7.1875,7.2597,7.3387,7.4119,7.4615,7.4649,7.4649,7.4412,7.3691,7.3556,7.3556,7.3556,7.3556,7.3285,7.2563,7.2462,7.2191,7.1503,7.1402,7.1706,7.2394,7.3116,7.3849,7.4547,7.5303,7.5709,7.5743,7.6487,7.6927,7.7029,7.8403,7.9114,7.9147,7.9761,8.0145,8.0217,7.8631,7.8644,6.3804,6.625,6.803,6.7562,6.8069,6.8401,6.74,6.6682,6.5842,6.4367,6.3193,6.2009,6.068,6.1806,6.3507,6.5155,6.7489,6.962,7.1097,7.1605,7.165,7.1064,7.1345,7.1413,7.1064,7.1515,7.1921,7.2124,7.28,7.3443,7.4006,7.4931,7.5439,7.5439,7.5439,7.5506,7.5709,7.5337,7.4864,7.4322,7.4322,7.4322,7.4322,7.4322,7.4627,7.5067,7.3793,7.3218,7.3116,7.1842,7.13,7.13,7.13,7.13,7.13,7.13,7.13,7.13,7.13,7.13,7.13,7.13,7.13,7.13,7.13,7.13,7.13,7.13,7.13,7.13,7.13,7.13,7.1436,7.1977,7.2259,7.2766,7.4052,7.448,7.475,7.5303,7.5439,7.5202,7.4458,7.4322,7.4322,7.4322,7.4322,7.4052,7.3319,7.3218,7.315,7.2947,7.2947,7.3015,7.3218,7.3883,7.4378,7.4581,7.5303,7.598,7.6555,7.6792,7.7435,7.8505,7.8911,7.9384,7.9938,7.8946,7.9352,8.0974,7.8863,7.7777,6.5685,6.7697,6.9097,6.7838,6.7746,6.7494,6.5736,6.4783,6.3642,6.1501,6.0148,5.8955,5.7762,5.9394,6.1603,6.3758,6.6609,6.9214,7.103,7.1943,7.2259,7.1842,7.2428,7.271,7.2326,7.2631,7.3003,7.333,7.3747,7.4153,7.4581,7.5303,7.5709,7.5709,7.5709,7.5709,7.5709,7.6048,7.5845,7.51,7.51,7.51,7.51,7.51,7.5303,7.5642,0.0,7.3793,7.3421,7.2259,7.1605,7.13,7.13,7.1503,7.1774,7.1774,7.1977,7.2259,7.2259,7.2056,7.174,7.1402,7.13,7.13,7.13,7.13,7.13,7.13,7.13,7.1368,7.1706,7.1774,7.1988,7.2699,7.2879,7.3206,7.4345,7.4615,7.4818,7.5574,7.5709,7.5574,7.5168,7.51,7.51,7.51,7.51,7.4931,7.4537,7.4187,7.3849,7.3522,7.3488,7.3624,7.395,7.4345,7.4886,7.5562,7.5676,7.6217,7.7333,7.7379,7.7908,7.908,7.9418,7.9803,8.0209,7.934,7.9374,8.0207,7.8967,7.7916,6.7422,6.806,6.8408,6.7963,6.6792,6.5315,6.3595,6.2482,6.1003,5.8195,5.6934,5.6181,5.5539,5.7297,5.9834,6.2878,6.5821,6.8639,7.1097,7.2078,7.2563,7.2699,7.3251,7.3657,7.3657,7.3725,7.4063,7.4683,7.4953,7.5021,7.492,7.5608,7.6026,7.6026,7.6026,7.6026,7.6026,7.6589,7.6555,7.5845,7.5743,7.5709,7.5709,7.5709,7.5709,7.5676,7.492,7.4255,7.359,7.2834,7.2157,7.1605,7.1605,7.1988,7.2563,7.2563,7.2947,7.3488,7.3488,7.3082,7.2428,7.1672,7.1368,7.13,7.13,7.13,7.1334,7.1436,7.1436,7.1605,7.236,7.2563,7.2732,7.3488,7.3657,7.386,7.4581,7.475,7.4931,7.5574,7.5777,7.5811,7.5709,7.5777,7.5845,7.5845,7.5777,7.5743,7.5845,7.5202,7.4492,7.386,7.3793,7.4097,7.4852,7.492,7.5528,7.6961,7.6386,7.6657,7.809,7.8157,7.8483,7.9215,7.9972,8.0344,8.0344,8.0234,7.9937,7.9499,7.9051,7.8421,6.7944,6.8422,6.8106,6.6546,6.6024,6.5191,6.2314,6.0114,5.8195,5.6452,5.4997,5.4016,5.3915,5.619,5.9075,6.212,6.5087,6.8222,7.1718,7.2845,7.3556,7.4142,7.4345,7.4412,7.4412,7.4965,7.5371,7.5506,7.6702,7.713,7.6521,7.7198,7.7582,7.7582,7.7582,7.7582,7.7582,7.713,7.6826,7.669,7.6014,7.5709,7.5709,7.5709,7.5709,7.5676,7.492,0.0,7.4345,7.3624,7.3218,7.3116,7.3116,7.3184,7.3319,7.3319,7.3387,7.3488,7.3488,7.3421,7.3184,7.2462,7.1808,7.13,7.13,7.13,7.1436,7.2056,7.2225,7.2394,7.3116,7.3319,7.3488,7.4221,7.4412,7.4615,7.5337,7.5506,7.554,7.5676,7.6251,7.6487,7.5811,7.6251,7.669,7.669,7.6115,7.5946,7.6623,7.6014,7.5473,7.5337,7.5315,7.5642,7.642,7.6487,7.6893,7.7751,7.7684,7.7976,7.8877,7.8911,7.9261,8.0006,8.0729,8.1101,8.1101,8.0455,8.0994,8.2629,7.9414,7.8165,6.8457,6.8805,6.8572,6.6282,6.4924,6.3414,6.0702,5.8389,5.635,5.4862,5.3983,5.3509,5.3509,5.5615,5.8051,6.0283,6.2821,6.5797,6.9519,7.1052,7.2338,7.3849,7.5067,7.5799,7.5799,7.6454,7.6906,7.6906,7.7942,7.8247,7.7502,7.7819,7.7988,7.7988,7.8382,7.8382,7.7988,7.8044,7.7841,7.7481,7.7075,7.669,7.6318,7.6318,7.6082,7.5676,7.5337,7.4953,7.4581,7.4221,7.386,7.3488,7.3488,7.3725,7.4052,7.4052,7.4322,7.4627,7.4627,7.439,7.4018,7.368,7.3037,7.236,7.1977,7.2157,7.2428,7.2394,7.2665,7.315,7.3883,7.4052,7.4255,7.4999,7.5168,7.527,7.5608,7.6014,7.6318,7.6318,7.6961,7.7345,7.6961,7.721,7.7481,7.7481,7.7142,7.7041,7.7413,7.7142,7.6601,7.5777,7.6082,7.6487,7.686,7.7232,7.7773,7.8517,7.8225,7.8496,7.9634,7.9667,8.0006,8.0763,8.1494,8.1866,8.1866,8.0638,8.0377,8.0922,7.9045,7.7661,6.8386,6.8642,6.8501,6.6068,6.3812,6.1579,5.9293,5.6916,5.4887,5.3746,5.3374,5.3315,5.3484,5.504,5.6891,5.8709,6.0926,6.3744,6.7624,6.9597,7.1492,7.3725,7.5709,7.6961,7.713,7.7807,7.8293,7.8462,7.9295,7.9431,7.853,7.8462,7.8462,7.8462,7.9025,7.9058,7.8496,7.8889,7.8822,7.8225,7.809,7.7684,7.713,7.713,7.6792,7.6183,7.6183,7.5845,7.5325,7.5156,7.4762,7.4199,7.403,7.4334,7.4852,7.4852,7.5202,7.5709,7.5709,7.5337,7.4852,7.4852,7.4221,7.3387,7.2812,7.3048,7.3421,7.3003,7.3274,7.3928,7.4649,7.4852,7.4987,7.5574,7.5845,7.5912,7.5743,7.6454,7.7096,7.6927,7.7604,7.8191,7.8022,7.8124,7.8259,7.8259,7.809,7.8056,7.8225,7.809,7.7548,7.6318,7.6758,7.7198,7.7367,7.8044,7.872,7.9283,7.9092,7.9409,8.0378,8.0581,8.0953,8.1507,8.1939,8.2105,8.2105,8.0647,7.9578,7.8832,7.8483,7.7274,6.7067,6.7148,6.669,6.5104,6.3057,6.0791,5.8533,5.5784,5.3644,5.3543,5.2909,5.2638,5.3382,5.4194,5.5716,5.8549,6.0926,6.3947,6.8368,7.0838,7.3003,7.5236,7.6318,7.7164,7.7819,7.8585,7.9283,7.9938,8.1291,8.1481,8.0073,8.0006,8.0006,8.0006,8.0073,8.0073,8.0006,7.9384,7.908,7.8978,7.8327,7.7954,7.7887,7.7887,7.7853,7.7785,7.7785,7.7751,0.0,7.6961,7.6657,7.6521,7.5777,7.554,7.5608,7.5608,7.5642,7.5709,7.5709,7.5676,7.5608,7.5608,7.4639,7.3488,7.3421,7.3454,7.3624,7.4221,7.4446,7.4683,7.5405,7.5608,7.5608,7.5676,7.6251,7.6589,7.5845,7.6872,7.7718,7.7029,7.8044,7.8788,7.8124,7.8551,7.9012,7.9012,7.8416,7.8259,7.8911,7.8416,7.7954,7.7785,7.7853,7.8179,7.8843,7.9566,8.004,8.0073,8.1278,8.1765,8.1202,8.1832,8.2225,8.2306,8.1587,8.1241,8.1227,8.0263,7.9765,7.9646,7.8124,7.7292,6.6797,6.7369,6.7158,6.5115,6.2584,6.0114,5.8297,5.5624,5.3509,5.3509,5.3247,5.3103,5.3441,5.3754,5.4591,5.668,5.7771,5.9766,6.3835,6.6677,6.953,7.2687,7.5337,7.7367,7.8551,7.9735,8.0716,8.146,8.2056,8.2124,8.1562,8.1088,8.0661,8.0209,8.0209,8.0209,8.0209,7.9904,7.9769,7.9769,7.9464,7.9092,7.8653,7.8653,7.8416,7.7988,7.7988,7.7988,0.0,7.7684,7.7548,7.7548,7.721,7.7075,7.7075,7.7075,7.7075,7.7075,7.7075,7.6804,7.642,7.642,7.5709,7.4728,7.4289,7.4458,7.4796,7.4649,7.492,7.5337,7.5608,7.6048,7.6521,7.6973,7.7345,7.7481,7.7142,7.7908,7.8585,7.8268,7.9046,7.9667,7.9363,7.9566,7.9769,7.9769,7.9498,7.9431,7.9735,7.9498,7.9342,7.9342,7.8923,7.8775,7.908,8.0175,8.0864,8.0864,8.1832,8.2259,8.1968,8.1745,8.206,8.3024,8.2228,8.1755,8.1755,8.0443,7.9788,7.9727,7.7092,7.6384,6.5664,6.6727,6.7,6.5077,6.2347,5.9708,5.8229,5.5624,5.3509,5.3509,5.3509,5.3509,5.3509,5.3509,5.3983,5.5462,5.624,5.8008,6.1738,6.4816,6.8007,7.1548,7.4492,7.6983,7.8911,8.0818,8.2082,8.2361,8.28,8.2868,8.2428,8.2103,8.1507,8.056,8.0513,8.0513,8.0513,8.0513,8.0513,8.0513,8.0513,8.0141,7.9418,7.9418,7.916,7.8665,7.8665,7.8665,0.0,7.8428,7.8314,7.8293,7.809,7.7988,7.7988,7.7988,7.7988,7.7988,7.7988,7.765,7.7232,7.7232,7.6826,7.6284,7.5777,7.5642,7.5574,7.5055,7.5473,7.6048,7.6048,7.6623,7.7367,7.7887,7.8157,7.8259,7.8056,7.8754,7.935,7.9147,7.9701,8.0209,8.0209,8.0209,8.0209,8.0209,8.0209,8.0209,8.0209,8.0209,8.0209,8.0209,7.9938,7.9769,7.9769,8.0885,8.1642,8.1642,8.253,8.2936,8.2733,8.2347,8.268,8.3802,8.2279,8.1723,8.2169,7.962,7.8707,7.9288,7.6488,7.5899,6.3157,6.462,6.5547,6.4783,6.2347,5.9708,5.8229,5.5624,5.3509,5.3509,5.3509,5.3509,5.3509,5.3509,5.3983,5.5462,5.7525,6.0274,6.4038,6.7151,7.0161,7.3116,7.4153,7.5799,7.8809,8.1765,8.3186,8.2462,8.3734,8.3937,8.2496,8.3084,8.278,8.1338,8.127,8.127,8.127,8.127,8.127,8.127,8.127,8.0898,8.0175,8.0175,8.0175,8.0175,8.0175,8.0175,0.0,7.9384,7.908,7.9012,7.8293,7.7988,7.7988,7.7988,7.7988,7.7988,7.7988,7.7988,7.7988,7.7988,7.7988,7.7954,7.7954,7.6906,7.5709,7.5676,7.6284,7.6893,7.6893,7.7447,7.7988,7.7988,7.8551,7.8877,7.8157,7.9139,7.9972,7.9249,7.9701,8.0209,8.0209,8.0209,8.0209,8.0209,8.0209,8.0209,8.0209,8.0209,8.0209,8.0209,8.0864,8.127,8.127,8.1968,8.2395,8.2395,8.3781,8.4255,8.3524,8.4174,8.4566,8.458,8.1443,8.0602,8.2202,7.7305,7.6095,7.8278,7.6639,7.6215,6.0082,6.0784,6.095,6.0225,5.8549,5.6959,5.6486,5.4896,5.3509,5.3509,5.3509,5.3509,5.3509,5.3509,5.449,5.7457,5.854,6.0308,6.4072,6.7624,7.0748,7.3218,7.7299,8.05,8.1968,8.2949,8.3625,8.3883,8.4343,8.4411,8.395,8.412,8.3578,8.2103,8.2069,8.2069,8.2069,8.2069,8.2069,8.2035,8.1541,8.1169,8.0932,8.0412,8.0209,8.0209,8.0209,8.0479,8.0898,8.0175,8.0141,8.0513,7.9781,7.9498,7.9498,7.9498,7.9498,7.9498,7.9498,7.916,7.8754,7.8754,7.8416,7.7988,7.7988,7.765,7.7278,7.7278,7.7096,7.713,7.8133,7.8213,7.8259,7.9261,7.9667,7.9803,7.9532,7.987,8.0141,7.9904,8.004,8.0209,8.0209,8.0209,8.0209,8.0209,8.0209,8.0378,8.0898,8.0966,8.1135,8.1663,8.19,8.1832,8.1338,8.2454,8.3152,8.3152,8.4052,8.4492,8.4255,8.343,8.3476,8.4566,8.2515,8.1694,8.2169,7.9959,7.8342,7.7305,7.7942,7.7722,5.7574,5.8382,5.8549,5.8355,5.7205,5.6037,5.5767,5.4549,5.3509,5.3509,5.3509,5.3509,5.3509,5.3721,5.4769,5.7322,5.8684,6.0612,6.4106,6.7827,7.1323,7.4436,7.9058,8.2171,8.2624,8.3422,8.412,8.458,8.4614,8.4614,8.4614,8.4614,8.4174,8.3274,8.297,8.2813,8.2813,8.2813,8.2813,8.2813,8.234,8.1981,8.1697,8.1224,8.1021,8.1021,8.1021,8.1122,0.0,8.1088,8.0953,8.0864,8.0695,8.0627,8.0581,8.031,8.0378,8.0593,8.031,7.9904,7.952,7.952,7.9194,7.8834,7.8834,7.8428,7.7988,7.7988,7.7874,7.793,7.8877,7.8957,7.9071,7.9972,8.0209,8.0209,8.0209,8.0209,8.0209,8.0209,8.0209,8.0276,8.056,8.0627,8.0716,8.0987,8.1021,8.119,8.1676,8.171,8.19,8.2361,8.2631,8.2644,8.2184,8.2949,8.3625,8.3896,8.4356,8.4614,8.4614,8.366,8.3572,8.4566,8.2633,8.2261,8.3557,8.2154,8.034,7.8179,7.8805,7.8543,0.0,5.6816,5.7518,5.8244,5.7433,5.6249,5.5665,5.449,0.0,5.3509,5.3509,5.3543,5.3712,5.4194,5.4947,5.6071,5.8549,6.14,6.4478,6.8278,7.2372,7.6758,7.9803,8.1541,8.1541,8.3375,8.4614,8.4614,8.4614,8.4614,8.4614,8.4614,8.4614,8.4614,8.395,8.3592,8.3592,8.3592,8.3592,8.3592,8.3524,8.3152,8.2462,8.2428,8.2395,8.2395,8.2395,8.2035,8.1507,8.2137,8.1617,8.0513,8.1135,8.1372,8.1304,8.056,8.0729,8.1202,8.0445,8.0209,8.0209,8.0209,8.0209,8.0209,8.0209,7.924,7.8157,7.8225,7.8653,7.9114,7.9215,7.9701,8.0141,8.0175,8.0209,8.0209,8.0209,8.0209,8.0209,8.0209,8.0209,8.0412,8.1169,8.1304,8.1541,8.2293,8.2395,8.2428,8.2462,8.2462,8.2496,8.2564,8.3186,8.3592,8.3592,8.3592,8.3849,8.4546,8.4614,8.4614,8.4614,8.4614,8.4614,8.4614,8.2261,8.2586,8.5633,8.3766,8.1993,8.0341,7.9388,7.8926,5.1128,0.0,5.2105,5.2866,5.2757,5.2799,0.0,5.3746,5.3509,5.3509,5.3509,5.4016,5.5716,5.5243,5.6156,6.0917,6.2269,6.3961,6.7557,7.2732,7.7413,8.0703,8.2733,8.3815,8.3815,8.4275,8.4614,8.4614,8.4614,8.4614,8.4614,8.4614,8.4614,8.4614,8.4424,8.4343,8.4343,8.4343,8.4343,8.4323,8.3761,8.3422,8.3219,8.2665,8.2395,8.2395,8.2395,8.2611,8.2949,8.2577,8.2543,8.2678,8.2306,8.2124,8.2069,8.1291,8.1135,8.1202,8.0445,8.0209,8.0209,8.0209,8.0209,8.0209,8.0209,7.9972,7.9803,8.0357,7.9837,7.935,8.0479,8.0073,7.9486,8.0073,8.0209,8.0209,8.0209,8.0209,8.0209,8.0209,8.0209,8.0412,8.1169,8.1304,8.1541,8.2293,8.2395,8.2598,8.3186,8.3253,8.3456,8.4005,8.4255,8.4343,8.4343,8.4343,8.4424,8.458,8.4614,8.4614,8.4614,8.4614,8.4614,8.4614,8.459,8.4505,8.4262,8.3801,8.2325,7.9947,8.0217,8.0075,4.9457,5.0346,5.1285,5.2055,5.2528,5.2968,5.3822,5.3754,5.3509,5.3509,5.3509,5.3983,5.5513,5.6224,5.778,6.1356,6.3656,6.6565,7.0996,7.5608,7.9464,8.209,8.37,8.4614,8.4614,8.4614,8.4614,8.4614,8.4614,8.4614,8.4614,8.4614,8.4614,8.4614,8.4614,8.4614,8.4614,8.4614,8.4614,8.4614,8.4187,8.3984,8.3984,8.3578,8.3409,8.3409,8.3409,8.3443,8.349,8.3443,8.324,8.2983,8.2949,8.2902,8.2813,8.2069,8.1799,8.1697,8.0953,8.0492,8.0209,8.0209,8.0209,8.0209,8.0209,8.0209,8.0276,8.0695,8.0209,7.9803,8.0593,8.0209,7.9803,8.0513,8.0682,8.0796,8.1156,8.1224,8.1122,8.075,8.0987,8.1359,8.1731,8.2082,8.2543,8.3308,8.3409,8.3545,8.395,8.3984,8.4153,8.4546,8.4614,8.4614,8.4614,8.4614,8.4614,8.4614,8.4614,8.4614,8.4614,8.4965,8.508,8.4979,8.538,8.5163,8.4298,8.353,8.2563,8.1452,8.0988,8.0614,4.9542,5.1141,5.2866,5.3103,5.3788,5.4439,5.4439,5.3957,5.3509,5.3509,5.3577,5.4059,5.5387,5.7679,5.9868,6.14,6.5111,6.9575,7.4581,7.7592,8.0095,8.2293,8.3781,8.4614,8.4614,8.4614,8.4614,8.4614,8.4614,8.4614,8.4614,8.4614,8.4614,8.4614,8.4614,8.4614,8.4614,8.4614,8.4614,8.4614,8.4614,8.4614,8.4614,8.4614,8.4614,8.4614,8.4614,0.0,8.3727,8.4343,8.3849,8.28,8.3422,8.3659,8.3592,8.2847,8.2564,8.2462,8.1731,8.1067,8.0547,8.0547,8.0547,8.0513,8.0412,8.0445,8.0513,8.0412,8.0276,8.0242,8.0479,8.0445,8.0513,8.1135,8.1372,8.1642,8.2272,8.2395,8.2238,8.1575,8.1968,8.2428,8.253,8.3084,8.3761,8.4478,8.4614,8.4614,8.4614,8.4614,8.4614,8.4614,8.4614,8.4614,8.4614,8.4614,8.4614,8.4614,8.4614,8.4647,8.4796,8.5554,8.5798,8.5411,8.5513,8.5247,8.4673,8.3324,8.2862,8.3133,8.1746,8.1033,5.1148,5.3441,5.4583,5.2148,5.263,5.3687,5.3687,5.3585,5.3509,5.3509,5.3991,5.5624,5.9539,6.0655,6.2651,6.7804,7.0815,7.3849,7.7862,7.9363,8.0851,8.3084,8.4086,8.4614,8.4614,8.4614,8.4614,8.4614,8.4614,8.4614,8.4614,8.4614,8.4614,8.4614,8.4614,8.4614,8.4614,8.4614,8.4614,8.4614,8.4614,8.4614,8.4614,8.4614,8.4614,8.4614,8.4614,8.4546,8.4444,8.4546,8.4478,8.4275,8.4377,8.4424,8.4343,8.3592,8.3321,8.3219,8.2509,8.2171,8.2056,8.2056,8.2056,8.1955,8.1338,8.1562,8.1921,8.1304,8.0695,8.0479,8.1718,8.1596,8.1169,8.127,8.1778,8.2259,8.2361,8.2395,8.2361,8.2259,8.2327,8.2598,8.3219,8.3422,8.3761,8.4478,8.4614,8.4614,8.4614,8.4614,8.4614,8.4614,8.4614,8.4614,8.4614,8.4614,8.4614,8.4614,8.4614,8.4898,8.5601,8.6332,8.6321,8.5411,8.5962,8.5385,8.3635,8.3881,8.3343,8.2048,8.2369,8.2189,5.0727,5.2773,5.4389,5.3771,5.5369,5.6959,5.6553,5.6156,5.5987,5.6384,5.6756,5.7983,6.1298,6.3193,6.6227,7.2203,7.4706,7.6804,7.9329,8.067,8.19,8.3321,8.4153,8.4614,8.4614,8.4614,8.4614,8.4614,8.4614,8.4614,8.4614,8.4614,8.4614,8.4614,8.4614,8.4614,8.4614,8.4614,8.4614,8.4614,8.4614,8.4614,8.4614,8.4614,8.4614,8.4614,0.0,8.4614,8.4614,8.4614,8.4614,8.4614,8.4614,8.4614,8.4512,8.3761,8.349,8.3389,8.2665,8.2395,8.2395,8.2395,8.2395,8.2327,8.2002,8.2137,8.2395,8.2475,8.1968,8.1562,8.2225,8.2171,8.2002,8.2387,8.2746,8.3118,8.3511,8.3578,8.3477,8.3084,8.3308,8.3578,8.3524,8.3828,8.4221,8.4546,8.4614,8.4614,8.4614,8.4614,8.4614,8.4614,8.4614,8.4614,8.4614,8.4614,8.4796,8.5215,8.5249,8.5356,8.5573,8.5897,8.6264,8.6579,8.505,8.462,8.5341,8.4108,8.324,8.2858,8.3517,8.3457,5.0736,5.23,5.416,5.5809,5.7636,5.9158,5.9462,5.8693,5.8263,5.953,5.9936,6.0747,6.299,6.6406,7.0455,7.5202,7.7548,7.924,8.0547,8.1832,8.2936,8.3659,8.4255,8.4614,8.4614,8.4614,8.4614,8.4614,8.4614,8.4614,8.4614,8.4614,8.4614,8.4614,8.4614,8.4614,8.4614,8.4614,8.4614,8.4614,8.4614,8.4614,8.4614,8.4614,8.4614,8.4614,8.4614,8.4614,8.4614,8.4614,8.4614,8.4614,8.4614,8.4614,8.4512,8.395,8.3761,8.3693,8.3105,8.2902,8.2902,8.2902,8.2902,8.2868,8.2699,8.2767,8.3003,8.3389,8.3219,8.2868,8.2699,8.2665,8.28,8.3355,8.3625,8.393,8.4492,8.4614,8.4424,8.3862,8.4221,8.4411,8.3849,8.4221,8.4614,8.4614,8.4614,8.4614,8.4614,8.4614,8.4614,8.4614,8.4614,8.4681,8.4864,8.4898,8.527,8.6244,8.6142,8.5859,8.5408,8.595,8.6283,8.6391,8.4291,8.4134,8.6,8.4002,8.3337,8.3946,8.4455,8.4425,5.2682,5.3856,5.5049,5.7214,5.6867,5.6925,6.0341,5.9471,5.8703,6.1579,6.2719,6.3849,6.6058,7.1165,7.5439,7.6623,7.9206,8.1338,8.2124,8.2915,8.3693,8.4424,8.458,8.4614,8.4614,8.4614,8.4614,8.4614,8.4614,8.4614,8.4614,8.4614,8.4614,8.4614,8.4614,8.4614,8.4614,8.4614,8.4614,8.4614,8.4614,8.4614,8.4614,8.4614,8.4614,8.4614,8.4614,8.4614,8.4614,8.4614,8.4614,8.4614,8.4614,8.4614,8.458,8.4546,8.4512,8.4512,8.4444,8.4444,8.4444,8.4444,8.4444,8.4309,8.3625,8.3883,8.4323,8.3693,8.395,8.4275,8.3592,8.3422,8.3422,8.349,8.4018,8.4546,8.458,8.4614,8.458,8.4512,8.4546,8.458,8.4512,8.4546,8.4614,8.4614,8.4614,8.4614,8.4614,8.4614,8.4614,8.4614,8.4614,8.4898,8.5669,8.5702,8.6311,8.7753,8.7211,8.6382,8.5456,8.7625,8.6915,8.2835,8.4683,8.4806,8.3101,8.347,8.3976,8.4634,8.4664,8.4664,5.1594,5.3983,5.6267,5.7586,5.8896,6.025,6.167,6.2018,6.2922,6.5933,6.7151,6.8199,6.9958,7.2902,7.5574,7.7299,7.968,8.171,8.2915,8.3714,8.4289,8.458,8.4614,8.4614,8.4614,8.4614,8.4614,8.4614,8.4614,8.4614,8.4614,8.4614,8.4614,8.4614,8.4614,8.4614,8.4614,8.4614,8.4614,8.4614,8.4614,8.4614,8.4614,8.4614,8.4614,8.4614,8.4614,8.4614,8.4614,8.4614,8.4614,8.4614,8.4614,8.4614,8.4614,8.4614,8.4614,8.4614,8.4614,8.4614,8.4614,8.4614,8.4614,8.4546,8.4289,8.439,8.4546,8.4255,8.439,8.4546,8.4255,8.4187,8.4187,8.4187,8.439,8.4614,8.4614,8.4614,8.4614,8.4614,8.4614,8.4614,8.4614,8.4614,8.4614,8.4614,8.4614,8.4614,8.4614,8.4614,8.4614,8.4614,8.5033,8.5466,8.577,8.623,8.6474,8.6382,8.7122,8.7135,8.6145,8.7426,8.7058,8.4748,8.6015,8.6166,8.5041,8.5696,8.577,8.5342,8.5731,8.5731,5.1578,5.3983,5.6494,5.8195,6.0157,6.212,6.3744,6.4749,6.6261,6.9755,7.0883,7.1627,7.2868,7.4119,7.5608,7.7684,8.0052,8.2082,8.3321,8.412,8.4614,8.4614,8.4614,8.4614,8.4614,8.4614,8.4614,8.4614,8.4614,8.4614,8.4614,8.4614,8.4614,8.4614,8.4614,8.4614,8.4614,8.4614,8.4614,8.4614,8.4614,8.4614,8.4614,8.4614,8.4614,8.4614,8.4614,8.4614,8.4614,8.4614,8.4614,8.4614,8.4614,8.4614,8.4614,8.4614,8.4614,8.4614,8.4614,8.4614,8.4614,8.4614,8.4614,8.4614,8.4614,8.4614,8.4614,8.4614,8.4614,8.4614,8.4614,8.4614,8.4614,8.4614,8.4614,8.4614,8.4614,8.4614,8.4614,8.4614,8.4614,8.4614,8.4614,8.4614,8.4614,8.4614,8.4614,8.4614,8.4614,8.4614,8.4614,8.4614,8.5317,8.5905,8.6142,8.6805,8.7071,8.6584,8.792,8.7907,8.6123,8.7045,8.7256,8.6444,8.6716,8.6683,8.6409,8.709,8.6811,8.5701,8.6379,8.6439,5.3268,5.4059,5.5522,5.9167,6.0148,6.1535,6.6745,6.7343,6.8121,7.2609,7.3522,7.3759,7.448,7.5236,7.6229,7.7751,8.0479,8.2631,8.3389,8.412,8.4614,8.4614,8.4614,8.4614,8.4614,8.4614,8.4614,8.4614,8.4614,8.4614,8.4614,8.4614,8.4614,8.4614,8.4614,8.4614,8.4614,8.4614,8.4614,8.4614,8.4614,8.4614,8.4614,8.4614,8.4614,8.4614,8.4614,8.4614,8.4614,8.4614,8.4614,8.4614,8.4614,8.4614,8.4614,8.4614,8.4614,8.4614,8.4614,8.4614,8.4614,8.4614,8.4614,8.4614,8.4614,8.4614,8.4614,8.4614,8.4614,8.4614,8.4614,8.4614,8.4614,8.4614,8.4614,8.4614,8.4614,8.4614,8.4614,8.4614,8.4614,8.4614,8.4614,8.4614,8.4614,8.4614,8.4614,8.4614,8.4614,8.4614,8.4614,8.4614,8.5317,8.6095,8.6859,8.7583,8.8328,8.9038,8.9782,8.8676,8.5278,8.6752,8.75,8.7198,8.6492,8.6223,8.6409,8.7059,8.6811,8.5701,8.6379,8.6678,5.212,5.4727,5.7974,5.9056,6.2922,6.6846,6.8402,6.8977,7.0477,7.4977,7.5879,7.5946,7.6183,7.6386,7.7029,7.8551,8.0378,8.2048,8.3321,8.412,8.4614,8.4614,8.4614,8.4614,8.4614,8.4614,8.4614,8.4614,8.4614,8.4614,8.4614,8.4614,8.4614,8.4614,8.4614,8.4614,8.4614,8.4614,8.4614,8.4614,8.4614,8.4614,8.4614,8.4614,8.4614,8.4614,8.4614,8.4614,8.4614,8.4614,8.4614,8.4614,8.4614,8.4614,8.4614,8.4614,8.4614,8.4614,8.4614,8.4614,8.4614,8.4614,8.4614,8.4614,8.4614,8.4614,8.4614,8.4614,8.4614,8.4614,8.4614,8.4614,8.4614,8.4614,8.4614,8.4614,8.4614,8.4614,8.4614,8.4614,8.4614,8.4614,8.4614,8.4614,8.4614,8.4614,8.4614,8.4614,8.4614,8.4614,8.483,8.5384,8.6129,8.6873,8.7617,8.8342,8.8331,8.7334,8.9115,8.918,8.6875,8.9459,8.9733,8.7115,8.8636,8.8442,8.6409,8.6594,8.6107,8.5013,8.5671,8.602,5.4524,5.7264,6.0341,6.21,6.5821,6.9553,7.1312,7.2293,7.3725,7.6736,7.7333,7.7435,7.7739,7.7536,7.7908,7.9701,8.0953,8.2238,8.3714,8.4323,8.4614,8.4614,8.4614,8.4614,8.4614,8.4614,8.4614,8.4614,8.4614,8.4614,8.4614,8.4614,8.4614,8.4614,8.4614,8.4614,8.4614,8.4614,8.4614,8.4614,8.4614,8.4614,8.4614,8.4614,8.4614,8.4614,8.4614,8.4614,8.4614,8.4614,8.4614,8.4614,8.4614,8.4614,8.4614,8.4614,8.4614,8.4614,8.4614,8.4614,8.4614,8.4614,8.4614,8.4614,8.4614,8.4614,8.4614,8.4614,8.4614,8.4614,8.4614,8.4614,8.4614,8.4614,8.4614,8.4614,8.4614,8.4614,8.4614,8.4614,8.4614,8.4614,8.4614,8.4614,8.4614,8.4614,8.4614,8.4614,8.4614,8.4898,8.5148,8.5317,8.6535,8.7414,8.755,8.8511,8.8758,8.802,8.9653,8.9954,8.8439,9.003,9.0199,8.8571,8.9123,8.8292,8.6024,8.6285,8.5678,8.4335,8.5252,8.5701,5.8727,6.0588,6.2448,6.6812,6.8774,7.0669,7.4762,7.6318,7.713,7.7921,7.8157,7.8428,7.9147,7.8754,7.8969,8.1067,8.2002,8.2936,8.4208,8.4444,8.4512,8.4512,8.4512,8.4512,8.458,8.4614,8.4614,8.4614,8.4614,8.4614,8.4614,8.4614,8.4614,8.4614,8.4614,8.4614,8.4614,8.4614,8.4614,8.4614,8.4614,8.4614,8.4614,8.4614,8.4614,8.4614,8.4614,8.4614,8.4614,8.4614,8.4614,8.4614,8.4614,8.4614,8.4614,8.4614,8.4614,8.4614,8.4614,8.4614,8.4614,8.4614,8.4614,8.4614,8.4614,8.4614,8.4614,8.4614,8.4614,8.4614,8.4614,8.4614,8.4614,8.4614,8.4614,8.4614,8.4614,8.4614,8.4614,8.4614,8.4614,8.4614,8.4614,8.4614,8.4614,8.4681,8.4728,8.4715,8.4783,8.5452,8.5621,8.4884,8.6724,8.7719,8.7062,8.8294,8.9424,9.014,9.0831,9.0833,8.9973,8.9339,8.9529,9.064,8.8292,8.6532,8.5502,8.5892,8.5236,8.3718,8.5013,8.5641,5.7239,5.9776,6.3101,6.6948,7.0658,7.3803,7.5337,7.6318,7.7266,7.8572,7.9329,7.9938,8.0695,8.0695,8.0932,8.2002,8.278,8.3186,8.2902,8.3375,8.3727,8.3727,8.3727,8.395,8.4546,8.4614,8.4614,8.4614,8.4614,8.4614,8.4614,8.4614,8.4614,8.4614,8.4614,8.4614,8.4614,8.4614,8.4614,8.4614,8.4614,8.4614,8.4614,8.4614,8.4614,8.4614,8.4614,8.4614,8.4614,8.4614,8.4614,8.4614,8.4614,8.4614,8.4614,8.4614,8.4614,8.4614,8.4614,8.4614,8.4614,8.4614,8.4614,8.4614,8.4614,8.4614,8.4614,8.4614,8.4614,8.4614,8.4614,8.4614,8.4614,8.4614,8.4614,8.4614,8.4614,8.4614,8.4614,8.4614,8.4614,8.4614,8.4614,8.4614,8.483,8.5452,8.5533,8.5757,8.6318,8.6555,8.6589,8.642,8.738,8.7922,8.7786,8.8578,8.9424,9.014,9.0357,9.0842,9.1773,9.0935,8.993,8.8805,8.6866,8.5743,8.5502,8.419,8.3624,8.3718,8.4545,8.5192,5.8693,6.1443,6.4512,6.8944,7.209,7.4356,7.5439,7.6318,7.7232,7.8348,7.916,7.9904,8.0661,8.1067,8.1541,8.2259,8.3016,8.3355,8.2983,8.3545,8.3748,8.305,8.3287,8.3659,8.4052,8.4052,8.4221,8.458,8.4614,8.4614,8.4614,8.4614,8.4614,8.4614,8.4614,8.4614,8.4614,8.4614,8.4614,8.4614,8.4614,8.4614,8.4614,8.4614,8.4614,8.4614,8.4614,8.4614,8.4614,8.4614,8.4614,8.4614,8.4614,8.4614,8.4614,8.4614,8.4614,8.4614,8.4614,8.4614,8.4614,8.4614,8.4614,8.4614,8.4614,8.4614,8.4614,8.4614,8.4614,8.4614,8.4614,8.4614,8.4614,8.4614,8.4614,8.4614,8.4614,8.4614,8.4614,8.4614,8.4614,8.4614,8.4614,8.4931,8.5452,8.6196,8.6332,8.6467,8.6859,8.7198,8.7279,8.6927,8.7888,8.8375,8.8023,8.9004,8.9951,9.0696,9.1053,9.1396,9.1663,9.0612,8.9475,8.8237,8.6414,8.5084,8.4216,8.3567,8.3397,8.3718,8.4395,8.5073,5.9988,6.327,6.6305,7.1041,7.2981,7.403,7.5236,7.6115,7.6893,7.765,7.8483,7.9317,8.0073,8.0796,8.1507,8.2103,8.2949,8.3355,8.2983,8.3781,8.3849,8.2408,8.2847,8.3321,8.3321,8.3422,8.3761,8.4356,8.4424,8.4458,8.458,8.4492,8.4478,8.4614,8.4614,8.4614,8.4614,8.4614,8.4614,8.4614,8.4614,8.4614,8.4614,8.4614,8.4614,8.4614,8.4614,8.4614,8.4614,8.4614,8.4614,8.4614,8.4614,8.4614,8.4614,8.4614,8.4614,8.4614,8.4614,8.4614,8.4614,8.4614,8.4614,8.4614,8.4614,8.4614,8.4614,8.4614,8.4614,8.4614,8.4614,8.4614,8.4614,8.4614,8.4614,8.4614,8.4614,8.4614,8.4614,8.4614,8.4614,8.4647,8.4796,8.5351,8.6108,8.6974,8.7096,8.713,8.7265,8.782,8.7922,8.7164,8.8308,8.8815,8.8057,8.9342,9.0527,9.1237,9.1686,9.1601,9.0925,8.9636,8.8591,8.7889,8.6232,8.4613,8.3136,8.3636,8.3927,8.4066,8.4485,8.5073,5.6799,6.2415,6.8098,7.0793,7.2958,7.4514,7.4683,7.5325,7.6082,7.6893,7.8133,7.9317,8.0073,8.0796,8.1338,8.1439,8.259,8.2813,8.0919,8.2374,8.3084,8.1608,8.2103,8.253,8.253,8.3118,8.3524,8.3625,8.3659,8.393,8.458,8.3984,8.395,8.458,8.4614,8.4614,8.4614,8.4614,8.4614,8.4614,8.4614,8.4614,8.4614,8.4614,8.4614,8.4614,8.4614,8.4614,8.4614,8.4614,8.4614,8.4614,8.4614,8.4614,8.4614,8.4614,8.4614,8.4614,8.4614,8.4614,8.4614,8.4614,8.4614,8.4614,8.4614,8.4614,8.4614,8.4614,8.4614,8.4614,8.4614,8.4614,8.4614,8.4614,8.4614,8.4614,8.4614,8.4614,8.4614,8.4614,8.4614,8.483,8.552,8.5736,8.6278,8.7651,8.7854,8.8091,8.8714,8.8883,8.868,8.7922,8.8612,8.8815,8.8057,8.9342,9.0527,9.1237,9.0514,9.0323,9.0878,8.9249,8.7788,8.6655,8.5431,8.4684,8.4444,8.4515,8.4863,8.5432,8.4923,8.5073,5.8017,6.2618,6.6812,6.9925,7.174,7.2856,7.3262,7.4243,7.519,7.5528,7.6826,7.8213,7.935,8.0513,8.1304,8.1304,8.2171,8.2408,8.0999,8.2002,8.234,8.0851,8.1338,8.1765,8.1765,8.2082,8.2624,8.3422,8.3118,8.3219,8.395,8.3693,8.3659,8.395,8.439,8.4614,8.4614,8.4614,8.4614,8.4614,8.4614,8.4614,8.458,8.4187,8.4221,8.4614,8.4614,8.4614,8.4614,8.4614,8.4614,8.4614,8.4614,8.4614,8.4614,8.4614,8.4614,8.4614,8.4614,8.4614,8.4614,8.4614,8.4614,8.4614,8.4614,8.4614,8.4614,8.4614,8.4614,8.4614,8.4614,8.4614,8.4614,8.4614,8.4614,8.4614,8.4614,8.4614,8.4614,8.4614,8.4965,8.552,8.6298,8.6771,8.7394,8.8443,8.8612,8.8748,8.9052,8.9086,8.8984,8.8646,8.8917,8.8984,8.8646,8.9951,9.0966,9.1271,9.0717,9.0533,9.0895,8.9491,8.7982,8.6414,8.5587,8.4997,8.4694,8.4694,8.5383,8.6632,8.5686,8.5763,5.8524,6.1772,6.4343,6.8109,7.006,7.1267,7.2191,7.3544,7.4615,7.4615,7.5845,7.7232,7.8336,7.9735,8.0796,8.0999,8.1629,8.1866,8.1135,8.1832,8.1853,8.0378,8.0864,8.1236,8.1033,8.1372,8.1981,8.2847,8.278,8.2847,8.3186,8.3389,8.349,8.349,8.4221,8.4614,8.4614,8.4424,8.4221,8.4039,8.4039,8.4039,8.4005,8.3477,8.3511,8.4039,8.4255,8.4323,8.4323,8.4512,8.4614,8.4614,8.4614,8.4614,8.4614,8.4614,8.4614,8.4614,8.4614,8.4614,8.4614,8.4614,8.4614,8.4614,8.4614,8.4614,8.4614,8.4614,8.4614,8.4614,8.4614,8.4614,8.4614,8.4614,8.4614,8.4614,8.4614,8.4614,8.4614,8.4614,8.5249,8.6041,8.6758,8.7516,8.826,8.8984,8.9086,8.9086,8.9086,8.9086,8.9086,8.9086,8.9086,8.9086,8.9086,9.0439,9.1305,9.1305,9.1049,9.0895,9.0895,9.0032,8.8557,8.6432,8.688,8.6671,8.5665,8.5835,8.6863,8.864,8.7104,8.6788,5.5978,5.866,6.1231,6.4996,6.8109,7.0646,7.2056,7.3544,7.4615,7.4615,7.5845,7.6927,7.6995,7.82,7.9452,8.0141,8.0898,8.1101,8.0344,8.1494,8.1853,8.0378,8.0864,8.1033,8.031,8.1528,8.2069,8.1473,8.2691,8.3152,8.2496,8.3118,8.349,8.349,8.4221,8.4614,8.4614,8.393,8.3219,8.2496,8.2496,8.2496,8.2496,8.2462,8.2462,8.2564,8.3253,8.3558,8.3625,8.4323,8.4614,8.4614,8.4614,8.4614,8.4614,8.4614,8.4614,8.4614,8.4614,8.4614,8.4614,8.4614,8.4614,8.4614,8.4614,8.4614,8.4614,8.4614,8.4614,8.4614,8.4614,8.4614,8.4614,8.4614,8.4614,8.4614,8.4614,8.4614,8.4614,8.4614,8.5249,8.6041,8.6758,8.7516,8.826,8.8984,8.9086,8.9086,8.9086,8.9086,8.9086,8.9086,8.9086,8.9086,8.9086,9.0439,9.1305,9.1305,9.1049,9.0895,9.0895,9.0849,8.9409,8.645,8.9871,9.0548,8.8298,8.8929,9.0248,9.2088,8.953,8.8094,5.4507,5.6664,5.8896,6.2627,6.5469,6.7703,6.918,7.1413,7.3308,7.3781,7.4728,7.5731,7.6724,7.7705,7.8483,7.8766,7.9397,7.9803,7.952,8.0378,8.0784,8.0276,8.0412,8.0479,8.0209,8.0682,8.1054,8.127,8.1372,8.146,8.1676,8.1947,8.2319,8.2767,8.3511,8.412,8.4614,8.3862,8.3355,8.3084,8.2644,8.2395,8.2395,8.19,8.1697,8.171,8.1981,8.2624,8.3558,8.4289,8.4614,8.4614,8.4614,8.4614,8.4614,8.4614,8.4614,8.4614,8.4614,8.4614,8.4614,8.4614,8.4614,8.4614,8.4614,8.4614,8.4614,8.4614,8.4614,8.4614,8.4614,8.4614,8.4614,8.4614,8.4614,8.4614,8.4614,8.4999,8.5384,8.5384,8.6379,8.7279,8.755,8.8226,8.8781,8.9052,8.9086,8.9086,8.9086,8.9086,8.9086,8.9086,8.9086,8.9086,8.9086,9.0439,9.1305,9.1305,9.1049,9.1414,9.2589,9.1508,9.0372,8.9293,9.1485,9.1284,8.8508,8.8725,8.9812,9.1552,8.8685,8.7161,5.3154,5.5108,5.7399,6.1409,6.3304,6.5063,6.8301,7.0195,7.1718,7.3184,7.4086,7.4987,7.6251,7.6906,7.7413,7.7921,7.8416,7.8708,7.8708,7.9363,7.9837,7.9837,8.004,8.0209,8.0209,8.0412,8.0661,8.0898,8.0919,8.0953,8.0932,8.1642,8.2374,8.3105,8.3612,8.3984,8.4221,8.349,8.3016,8.2759,8.2002,8.1663,8.1617,8.1156,8.1067,8.1304,8.1575,8.2251,8.3186,8.3917,8.439,8.4614,8.4614,8.4614,8.4614,8.4614,8.4614,8.4614,8.4614,8.4614,8.4614,8.4614,8.4614,8.4614,8.4614,8.4614,8.4614,8.4614,8.4614,8.4614,8.4614,8.4614,8.4614,8.4614,8.4614,8.4681,8.4931,8.5418,8.5736,8.5452,8.6805,8.7922,8.7685,8.8443,8.9086,8.9086,8.9323,8.9458,8.9458,8.9458,8.9458,8.9458,8.9255,8.9187,8.9458,9.0594,9.1406,9.1643,9.1765,9.2343,9.3542,9.2453,9.1656,9.1289,9.3034,9.2778,9.0393,9.0646,9.1362,9.2475,8.9841,8.7836,0.0,0.0,0.0,6.1071,6.167,6.2912,6.9508,6.9914,6.9789,7.2778,7.395,7.4683,7.5506,7.5676,7.6149,7.7684,7.7954,7.7988,7.7988,7.8653,7.9114,7.9114,7.9735,8.0175,8.0175,8.083,8.0966,8.0242,8.1528,8.1731,8.0276,8.2272,8.3828,8.4546,8.458,8.4255,8.3524,8.28,8.2069,8.1304,8.0581,8.0209,8.0209,8.0209,8.0581,8.1338,8.2069,8.2395,8.2496,8.3219,8.395,8.4614,8.4614,8.4614,8.4614,8.4614,8.4614,8.4614,8.4614,8.4614,8.4614,8.4614,8.4614,8.4614,8.4614,8.4614,8.4614,8.4614,8.4614,8.4614,8.4614,8.4614,8.4614,8.4614,8.4614,8.483,8.5601,8.577,8.5601,8.485,8.6487,8.782,8.7096,8.8158,8.9086,8.9086,8.9715,9.0174,9.0174,9.0174,9.0208,9.0208,8.9593,8.9458,9.0174,9.0899,9.1643,9.2358,9.3165,9.3586,9.3586,9.362,9.3125,9.2109,9.4556,9.5325,9.4287,9.4881,9.5178,9.5078,9.3131,9.0231,5.1243,0.0,0.0,0.0,0.0,0.0,6.326,6.4569,6.6193,7.0274,7.0838,7.1515,7.4378,7.4886,7.5236,7.6183,7.7278,7.7988,7.7988,7.9092,7.9689,7.9147,7.9283,7.9384,7.9384,7.9587,7.987,8.0175,8.0581,8.0615,8.0209,8.1799,8.3037,8.3795,8.4323,8.4512,8.4289,8.3545,8.2813,8.2103,8.1372,8.0729,8.0209,8.0209,8.0581,8.1304,8.1507,8.2205,8.3253,8.3984,8.4424,8.4614,8.4614,8.4614,8.4614,8.4614,8.4614,8.4614,8.4614,8.4614,8.4614,8.4614,8.4614,8.4614,8.4614,8.4614,8.4614,8.4614,8.4614,8.4614,8.4614,8.4614,8.4614,8.4614,8.4614,8.4647,8.4898,8.5384,8.6041,8.6907,8.8003,8.8748,8.8545,8.8815,8.9086,8.9086,8.9255,8.939,8.939,8.9884,9.0208,9.0208,9.0493,9.0763,9.0966,9.1662,9.217,9.2406,9.3165,9.3586,9.3586,9.4112,9.4276,9.3973,9.5693,9.6451,9.6139,9.5519,9.4495,9.3078,8.9332,8.7695,5.1547,5.2765,5.4262,5.5624,0.0,0.0,6.2212,6.3091,6.441,6.9225,7.0094,7.0759,7.3228,7.3916,7.439,7.5134,7.6251,7.7176,7.7481,7.8563,7.9126,7.8686,7.9181,7.9418,7.9147,7.9114,7.9418,8.0141,7.9904,8.0141,8.1088,8.1921,8.2868,8.393,8.439,8.4444,8.4153,8.3422,8.2678,8.1934,8.1202,8.0627,8.0209,8.0209,8.0581,8.1304,8.1642,8.2408,8.3558,8.4289,8.4614,8.4614,8.4614,8.4614,8.4614,8.4614,8.4614,8.4614,8.4614,8.4614,8.4614,8.4614,8.4614,8.4614,8.4614,8.4614,8.4614,8.4614,8.4614,8.4614,8.4614,8.4614,8.4614,8.4614,8.4614,8.4681,8.5033,8.5466,8.5939,8.6501,8.7685,8.8545,8.8226,8.868,8.9187,8.9526,8.983,9.0135,9.0425,9.085,9.1121,9.1121,9.1237,9.1406,9.173,9.2136,9.2542,9.2895,9.3349,9.3755,9.406,9.4485,9.4977,9.5601,9.6462,9.6666,9.6199,9.5538,9.3819,9.1127,8.8187,8.7573,5.257,5.3695,5.5285,5.718,5.6858,0.0,6.3406,6.3304,6.3406,6.821,6.9722,7.0489,7.1481,7.2338,7.3082,7.3736,7.4762,7.5777,7.6758,7.7536,7.7954,7.7887,7.9092,7.9701,7.9046,7.9046,7.9418,8.0141,7.9587,8.0128,8.2158,8.2361,8.3037,8.4411,8.4546,8.4255,8.349,8.2834,8.2103,8.1304,8.0661,8.0276,8.0209,8.0276,8.0716,8.1473,8.2205,8.2949,8.3659,8.4323,8.4614,8.4614,8.4614,8.4614,8.4614,8.4614,8.4614,8.4614,8.4614,8.4614,8.4614,8.4614,8.4614,8.4614,8.4614,8.4614,8.4614,8.4614,8.4614,8.4614,8.4614,8.4614,8.4614,8.4614,8.4614,8.4796,8.552,8.5669,8.5486,8.4864,8.6487,8.7786,8.713,8.8158,8.9357,9.0073,9.0763,9.144,9.217,9.2358,9.2392,9.2392,9.1899,9.1812,9.2474,9.2542,9.2846,9.3552,9.3586,9.389,9.4537,9.474,9.5432,9.6732,9.6935,9.6325,9.4896,9.4896,9.3133,8.9786,8.893,8.9078,5.4296,5.5252,5.6325,5.6181,5.7255,0.0,5.8524,5.9124,6.0308,6.2584,6.3159,6.4038,6.6552,6.8109,6.9045,6.918,7.1853,7.4639,7.6623,7.7536,7.7785,7.7198,7.7887,7.836,7.8225,7.8754,7.9418,8.0141,8.0073,8.0412,8.1473,8.2069,8.28,8.3693,8.4289,8.4255,8.349,8.3355,8.2624,8.1304,8.1135,8.0763,8.0209,8.083,8.1507,8.2238,8.2983,8.368,8.439,8.4546,8.4614,8.4614,8.4614,8.4614,8.4614,8.4614,8.4614,8.4614,8.4614,8.4614,8.4614,8.4614,8.4614,8.4614,8.4614,8.4614,8.4614,8.4614,8.4614,8.4614,8.4614,8.4614,8.4614,8.4614,8.4614,8.4647,8.4796,8.483,8.4965,8.5452,8.6873,8.7955,8.782,8.8511,8.9357,9.0073,9.0309,9.0696,9.1406,9.2034,9.2392,9.2392,9.2861,9.3214,9.3334,9.3383,9.3451,9.3586,9.3586,9.3654,9.3823,9.4958,9.5702,9.6022,9.7191,9.6204,9.2972,9.2972,9.2554,9.1775,9.0069,9.0685,5.5539,5.5953,5.6799,5.6799,0.0,0.0,0.0,5.9022,5.9757,6.2405,6.2347,6.2627,6.5233,6.6011,6.6745,6.8267,7.0409,7.2507,7.439,7.6284,7.7299,7.6927,7.7536,7.7853,7.7481,7.7773,7.8314,7.9037,7.9769,8.0513,8.127,8.2002,8.2746,8.349,8.3862,8.3849,8.349,8.2759,8.2014,8.1304,8.0932,8.0547,8.0209,8.0966,8.1507,8.19,8.3016,8.3693,8.4086,8.4458,8.4614,8.4614,8.4614,8.4614,8.4614,8.4614,8.4614,8.4614,8.4614,8.4614,8.4614,8.4614,8.4614,8.4614,8.4614,8.4614,8.4614,8.4614,8.4614,8.4614,8.4614,8.4898,8.51,8.4681,8.5202,8.5642,8.5283,8.5473,8.5878,8.6264,8.7245,8.7989,8.7989,8.8612,8.9492,9.0594,9.0763,9.1169,9.23,9.2759,9.2996,9.2996,9.3349,9.3586,9.3586,9.3586,9.3586,9.3586,9.3586,9.3755,9.4112,9.5195,9.6142,9.6886,9.7615,9.6627,9.38,9.38,9.2817,9.0964,9.1518,9.2806,5.7288,0.0,0.0,0.0,0.0,5.8693,0.0,0.0,0.0,6.2753,6.2492,6.2323,6.4285,6.4241,6.4715,6.7015,6.8571,6.9868,7.077,7.3612,7.5709,7.6014,7.6804,7.7176,7.6724,7.6555,7.6893,7.7921,7.8822,7.9769,8.083,8.1697,8.2475,8.305,8.3219,8.3287,8.3287,8.1981,8.1304,8.1304,8.056,8.0276,8.0412,8.1033,8.1439,8.1778,8.2996,8.3592,8.3761,8.4356,8.4614,8.4614,8.4614,8.4614,8.4614,8.4614,8.4614,8.4614,8.4614,8.4614,8.4614,8.4614,8.4614,8.4614,8.4614,8.4614,8.4614,8.4614,8.4614,8.4647,8.4783,8.5317,8.5669,8.5168,8.5878,8.6569,8.6095,8.6366,8.6771,8.7062,8.7583,8.7989,8.7989,8.8612,8.956,9.0899,9.1203,9.1812,9.318,9.3484,9.3586,9.3586,9.3451,9.3383,9.3383,9.3383,9.3383,9.3383,9.3518,9.3857,9.4451,9.5195,9.6277,9.7766,9.78,9.6906,9.5194,9.5573,9.3972,9.064,9.3149,9.4831,0.0,0.0,0.0,0.0,6.1806,0.0,5.8287,0.0,5.9742,5.8838,0.0,5.9665,6.0554,0.0,0.0,6.1197,6.4536,6.6802,6.5662,6.865,7.1458,7.2766,7.4142,7.519,7.5777,7.5224,7.5743,7.7853,7.6893,7.713,7.9249,8.0661,8.1473,8.1541,8.2171,8.253,8.253,8.171,8.1304,8.1304,8.056,8.0547,8.1169,8.127,8.2014,8.3253,8.3422,8.3849,8.4492,8.458,8.4614,8.4614,8.4614,8.4614,8.4614,8.4614,8.4614,8.4614,8.4614,8.4614,8.4614,8.4614,8.4614,8.4614,8.4614,8.4614,8.4614,8.4614,8.4614,8.4762,8.5486,8.5736,8.5939,8.6501,8.6264,8.6075,8.667,8.6332,8.6311,8.7617,8.7955,8.7989,8.7989,8.8612,8.939,9.0222,9.0865,9.1609,9.244,9.3165,9.3586,9.3586,9.2962,9.2542,9.2542,9.2542,9.2542,9.2542,9.3199,9.362,9.3721,9.4417,9.5533,9.7003,9.7037,9.6419,9.5211,9.6866,9.6594,9.4562,9.4913,9.6028,6.1501,0.0,0.0,0.0,0.0,0.0,5.9336,0.0,5.8896,5.9133,0.0,0.0,0.0,0.0,0.0,0.0,6.3024,6.4174,6.3994,6.5696,6.8007,7.0781,7.165,7.2496,7.368,7.351,7.4086,7.5879,7.5439,7.6048,7.8348,7.9849,8.0864,8.127,8.2035,8.2598,8.305,8.1879,8.171,8.2556,8.1405,8.1224,8.1934,8.2374,8.2928,8.3524,8.395,8.4323,8.4614,8.4614,8.4614,8.4614,8.4614,8.4614,8.4614,8.4614,8.4614,8.4614,8.4614,8.4614,8.4614,8.4614,8.4614,8.4614,8.4614,8.4931,8.5317,8.5317,8.5317,8.5486,8.623,8.6433,8.6535,8.6825,8.7008,8.7042,8.6927,8.6656,8.6636,8.7245,8.738,8.7516,8.7922,8.8612,8.9357,9.0073,9.0459,9.0932,9.1677,9.2049,9.2266,9.2266,9.1947,9.1778,9.1778,9.1778,9.1933,9.2373,9.3165,9.3789,9.4214,9.4537,9.5398,9.6868,9.6902,9.6902,9.6819,9.7628,9.7612,9.6819,9.6819,9.7265,6.2448,0.0,0.0,0.0,0.0,0.0,0.0,0.0,0.0,0.0,5.9742,0.0,0.0,0.0,6.0105,6.1545,0.0,6.2212,6.2506,6.3386,6.5222,6.8582,6.9699,7.0612,7.1684,7.1244,7.1751,7.3837,7.3431,7.4356,7.721,7.88,7.9938,8.0661,8.1426,8.2171,8.2894,8.1845,8.1947,8.3186,8.2116,8.2002,8.2699,8.305,8.3422,8.3828,8.4153,8.4424,8.4614,8.4614,8.4614,8.4614,8.4614,8.4614,8.4614,8.4614,8.4614,8.4614,8.4614,8.4614,8.4614,8.4614,8.4614,8.4614,8.4614,8.5182,8.5804,8.5804,8.5939,8.6264,8.7008,8.7211,8.7231,8.7448,8.7617,8.7617,8.7279,8.6859,8.6656,8.6859,8.6893,8.713,8.7854,8.8443,8.9052,8.9782,9.0073,9.0377,9.0932,9.1169,9.1305,9.1305,9.1102,9.1,9.1,9.1,9.1406,9.2339,9.2962,9.3605,9.4383,9.4417,9.4992,9.6259,9.6496,9.6969,9.7698,9.7901,9.7987,9.7987,9.7987,9.7987,0.0,0.0,0.0,6.2415,0.0,0.0,0.0,0.0,6.0994,0.0,0.0,0.0,6.2492,6.1738,6.0994,6.0283,6.0825,0.0,0.0,6.1511,6.3304,6.5571,6.8413,7.0206,7.0274,6.8256,6.8527,7.2191,7.05,7.1176,7.554,7.7244,7.8416,7.9147,7.9904,8.0627,8.1372,8.1304,8.1676,8.2428,8.2395,8.2746,8.3422,8.2746,8.3206,8.4512,8.3828,8.395,8.4614,8.4614,8.4614,8.4614,8.4614,8.4614,8.4614,8.4614,8.4614,8.4614,8.4614,8.4614,8.4614,8.4614,8.4614,8.4614,8.4614,8.5182,8.5804,8.5804,8.6298,8.7028,8.7786,8.7955,8.8125,8.8849,8.7955,8.713,8.782,8.6853,8.6041,8.6758,8.6893,8.713,8.7854,8.8023,8.8294,8.9018,8.9748,9.0208,9.0242,9.0865,9.1305,9.1305,9.0662,9.0242,9.0242,9.0242,9.085,9.229,9.2426,9.2778,9.3586,9.362,9.3977,9.474,9.5466,9.6191,9.6935,9.7664,9.7987,9.7987,9.7987,9.7987,0.0,0.0,6.7963,6.4962,0.0,0.0,0.0,0.0,0.0,0.0,0.0,0.0,0.0,6.1467,6.1231,6.0926,6.0274,5.9665,0.0,6.025,6.1545,6.3304,6.6136,6.7963,6.7963,6.7242,6.7749,7.0026,6.9969,7.1345,7.4784,7.6906,7.8348,7.908,8.0276,8.127,8.2035,8.2035,8.2631,8.3836,8.3342,8.3511,8.4221,8.3984,8.414,8.458,8.4356,8.439,8.4614,8.4614,8.4614,8.4614,8.4614,8.4614,8.4614,8.4614,8.4614,8.4614,8.4614,8.4614,8.4614,8.4614,8.4965,8.5283,8.4762,8.5845,8.7157,8.667,8.7076,8.7786,8.8545,8.8375,8.8057,8.8294,8.7617,8.6825,8.6616,8.5723,8.5067,8.5337,8.5824,8.6244,8.6514,8.6941,8.7685,8.8917,8.9323,8.9478,8.9478,8.9695,8.983,8.983,8.9627,8.9478,8.9478,8.9918,9.0411,9.0918,9.1865,9.2508,9.2778,9.3315,9.3958,9.4673,9.4958,9.5669,9.6902,9.7138,9.7529,9.7987,9.7987,9.7987,6.7929,6.8673,0.0,6.6315,6.5527,0.0,6.1603,0.0,6.2448,0.0,0.0,0.0,0.0,6.2178,6.14,6.1637,6.0172,5.9013,0.0,5.9868,6.1095,6.2618,6.4705,6.6227,6.6768,6.6328,6.6971,6.9316,6.918,7.0534,7.4018,7.6093,7.7638,7.8686,8.0154,8.1135,8.1629,8.2124,8.2868,8.3802,8.3883,8.4153,8.4614,8.4614,8.4614,8.4614,8.4614,8.4614,8.4614,8.4614,8.4614,8.4614,8.4614,8.4614,8.4614,8.4614,8.4614,8.4614,8.4614,8.4614,8.4647,8.4931,8.5384,8.5736,8.5506,8.6623,8.7888,8.74,8.782,8.8511,8.8984,8.8748,8.8342,8.8057,8.7448,8.6704,8.5973,8.5182,8.4614,8.4614,8.5033,8.5452,8.5736,8.6196,8.7008,8.8477,8.8714,8.8815,8.9052,8.9086,8.9086,8.9086,8.9086,8.9086,8.9086,8.9545,9.0019,9.056,9.1459,9.2237,9.2778,9.3315,9.3823,9.4315,9.4586,9.5296,9.6496,9.6766,9.7274,9.7987,9.7987,9.7987]},{"header":{"parameterUnit":"m.s-1","parameterCategory":1,"la1":30.6,"la2":29.2853,"lo1":-89.7004,"lo2":-87.6739,"dy":0.0162,"dx":0.0183,"nx":112,"ny":82,"refTime":"2024-10-05T12:00:00:Z","depth":0,"parameterNumber":3,"parameterNumberName":"V-component_of_WINDS"},"data":[0.0,0.0,0.0,0.0,0.0,0.0,0.0,0.0,0.0,0.0,0.0,0.0,0.0,0.0,0.0,0.0,0.0,0.0,0.0,0.0,0.0,0.0,0.0,0.0,0.0,0.0,0.0,0.0,0.0,0.0,0.0,0.0,0.0,0.0,0.0,0.0,0.0,0.0,0.0,0.0,0.0,0.0,0.0,0.0,0.0,0.0,0.0,0.0,0.0,0.0,0.0,0.0,0.0,0.0,0.0,0.0,0.0,0.0,0.0,0.0,0.0,0.0,0.0,0.0,0.0,0.0,0.0,0.0,0.0,0.0,0.0,0.0,0.0,0.0,0.0,0.0,0.0,0.0,0.0,0.0,0.0,0.0,0.0,0.0,0.0,0.0,0.0,0.0,0.0,0.0,2.8073,3.0351,3.1138,3.1528,3.1606,3.1113,2.9726,2.7253,0.0,0.0,0.0,0.0,0.0,0.0,0.0,0.0,0.0,0.0,0.0,0.0,0.0,0.0,0.0,0.0,0.0,0.0,0.0,0.0,0.0,0.0,0.0,0.0,0.0,0.0,0.0,0.0,0.0,0.0,0.0,0.0,0.0,0.0,0.0,0.0,0.0,0.0,0.0,0.0,0.0,0.0,0.0,0.0,0.0,0.0,0.0,0.0,0.0,0.0,0.0,0.0,0.0,0.0,0.0,0.0,0.0,0.0,0.0,0.0,0.0,0.0,0.0,0.0,0.0,0.0,0.0,0.0,0.0,0.0,0.0,0.0,0.0,0.0,0.0,0.0,0.0,0.0,0.0,0.0,0.0,0.0,0.0,0.0,0.0,0.0,0.0,0.0,0.0,0.0,0.0,0.0,0.0,0.0,0.0,0.0,0.0,0.0,0.0,0.0,0.0,0.0,0.0,0.0,2.9199,3.2105,3.186,3.166,3.2046,3.0991,2.9526,2.7702,0.0,0.0,0.0,0.0,0.0,0.0,0.0,0.0,0.0,0.0,0.0,0.0,0.0,0.0,0.0,0.0,0.0,0.0,0.0,0.0,0.0,0.0,0.0,0.0,0.0,0.0,0.0,0.0,0.0,0.0,0.0,0.0,0.0,0.0,0.0,0.0,0.0,0.0,0.0,0.0,0.0,0.0,0.0,0.0,0.0,0.0,0.0,0.0,0.0,0.0,0.0,0.0,0.0,0.0,0.0,0.0,0.0,0.0,0.0,0.0,0.0,0.0,0.0,0.0,0.0,0.0,0.0,0.0,0.0,0.0,0.0,0.0,0.0,0.0,0.0,0.0,0.0,0.0,0.0,0.0,0.0,0.0,0.0,0.0,0.0,0.0,0.0,0.0,0.0,0.0,0.0,0.0,0.0,0.0,0.0,0.0,0.0,0.0,0.0,0.0,0.0,0.0,0.0,2.9062,3.0488,3.2578,3.2261,3.1968,3.2179,3.1206,2.9648,2.7454,2.7116,0.0,0.0,0.0,0.0,0.0,0.0,0.0,0.0,0.0,0.0,0.0,0.0,0.0,0.0,0.0,0.0,0.0,0.0,0.0,0.0,0.0,0.0,0.0,0.0,0.0,0.0,0.0,0.0,0.0,0.0,0.0,0.0,0.0,0.0,0.0,0.0,0.0,0.0,0.0,0.0,0.0,0.0,0.0,0.0,0.0,0.0,0.0,0.0,0.0,0.0,0.0,0.0,0.0,0.0,0.0,0.0,0.0,0.0,0.0,0.0,0.0,0.0,0.0,0.0,0.0,0.0,0.0,0.0,0.0,0.0,0.0,0.0,0.0,0.0,0.0,0.0,0.0,0.0,0.0,0.0,0.0,0.0,0.0,0.0,0.0,0.0,0.0,0.0,0.0,0.0,0.0,0.0,0.0,0.0,0.0,0.0,0.0,0.0,0.0,0.0,0.0,0.0,3.0737,3.1616,3.2691,3.2437,3.2159,3.2046,3.105,2.9453,2.7155,2.6706,0.0,0.0,0.0,0.0,0.0,0.0,0.0,0.0,0.0,0.0,0.0,0.0,0.0,0.0,0.0,0.0,0.0,0.0,0.0,0.0,0.0,0.0,0.0,0.0,0.0,0.0,0.0,0.0,0.0,0.0,0.0,0.0,0.0,0.0,0.0,0.0,0.0,0.0,0.0,0.0,0.0,0.0,0.0,0.0,0.0,0.0,0.0,0.0,0.0,0.0,0.0,0.0,0.0,0.0,0.0,0.0,0.0,0.0,0.0,0.0,0.0,0.0,0.0,0.0,0.0,0.0,0.0,0.0,0.0,0.0,0.0,0.0,0.0,0.0,0.0,0.0,0.0,0.0,0.0,0.0,0.0,0.0,0.0,0.0,0.0,0.0,0.0,0.0,0.0,0.0,0.0,0.0,0.0,0.0,0.0,0.0,0.0,0.0,0.0,0.0,0.0,0.0,3.1084,3.2296,3.2734,3.2437,3.2027,3.1587,3.0005,2.8463,2.7097,2.5891,0.0,0.0,0.0,0.0,0.0,0.0,0.0,0.0,0.0,0.0,0.0,0.0,0.0,0.0,0.0,0.0,0.0,0.0,0.0,0.0,0.0,0.0,0.0,0.0,0.0,0.0,0.0,0.0,0.0,0.0,0.0,0.0,0.0,0.0,0.0,0.0,0.0,0.0,0.0,0.0,0.0,0.0,0.0,0.0,0.0,0.0,0.0,0.0,0.0,0.0,0.0,0.0,0.0,0.0,0.0,0.0,0.0,0.0,0.0,0.0,0.0,0.0,0.0,0.0,0.0,0.0,0.0,0.0,0.0,0.0,0.0,0.0,0.0,0.0,0.0,0.0,0.0,0.0,0.0,0.0,0.0,0.0,0.0,0.0,0.0,0.0,0.0,0.0,0.0,0.0,0.0,0.0,0.0,0.0,0.0,0.0,0.0,0.0,0.0,0.0,0.0,0.0,3.0654,3.1851,3.3066,3.2812,3.2398,3.1968,3.1074,2.9517,2.7155,0.0,0.0,0.0,0.0,0.0,0.0,0.0,0.0,0.0,0.0,0.0,0.0,0.0,0.0,0.0,0.0,0.0,0.0,0.0,0.0,0.0,0.0,0.0,0.0,0.0,0.0,0.0,0.0,0.0,0.0,0.0,0.0,0.0,0.0,0.0,0.0,0.0,0.0,0.0,0.0,0.0,0.0,0.0,0.0,0.0,0.0,0.0,0.0,0.0,0.0,0.0,0.0,0.0,0.0,0.0,0.0,0.0,0.0,0.0,0.0,0.0,0.0,0.0,0.0,0.0,0.0,0.0,0.0,0.0,0.0,0.0,0.0,0.0,0.0,0.0,0.0,0.0,0.0,0.0,0.0,0.0,0.0,0.0,0.0,0.0,0.0,0.0,0.0,0.0,0.0,0.0,0.0,0.0,0.0,0.0,0.0,0.0,0.0,0.0,0.0,0.0,0.0,2.9305,3.0615,3.1812,3.307,3.2969,3.2593,3.2027,3.1191,2.9634,2.7155,0.0,0.0,0.0,0.0,0.0,0.0,0.0,0.0,0.0,0.0,0.0,0.0,0.0,0.0,0.0,0.0,0.0,0.0,0.0,0.0,0.0,0.0,0.0,0.0,0.0,0.0,0.0,0.0,0.0,0.0,0.0,0.0,0.0,0.0,0.0,0.0,0.0,0.0,0.0,0.0,0.0,0.0,0.0,0.0,0.0,0.0,0.0,0.0,0.0,0.0,0.0,0.0,0.0,0.0,0.0,0.0,0.0,0.0,0.0,0.0,0.0,0.0,0.0,0.0,0.0,0.0,0.0,0.0,0.0,0.0,0.0,0.0,0.0,0.0,0.0,0.0,0.0,0.0,0.0,0.0,0.0,0.0,0.0,0.0,0.0,0.0,0.0,0.0,0.0,0.0,0.0,0.0,0.0,0.0,0.0,0.0,0.0,0.0,0.0,0.0,0.0,0.0,2.9383,3.1123,3.2374,3.2754,3.2808,3.2461,3.1587,2.9927,2.8385,0.0,0.0,0.0,0.0,0.0,0.0,0.0,0.0,0.0,0.0,0.0,0.0,0.0,0.0,0.0,0.0,0.0,0.0,0.0,0.0,0.0,0.0,0.0,0.0,0.0,0.0,0.0,0.0,0.0,0.0,0.0,0.0,0.0,0.0,0.0,0.0,0.0,0.0,0.0,0.0,0.0,0.0,0.0,0.0,0.0,0.0,0.0,0.0,0.0,0.0,0.0,0.0,0.0,0.0,0.0,0.0,0.0,0.0,0.0,0.0,0.0,0.0,0.0,0.0,0.0,0.0,0.0,0.0,0.0,0.0,0.0,0.0,0.0,0.0,0.0,0.0,0.0,0.0,0.0,0.0,0.0,0.0,0.0,0.0,0.0,0.0,0.0,0.0,0.0,0.0,0.0,0.0,0.0,0.0,0.0,0.0,0.0,0.0,0.0,0.0,0.0,0.0,0.0,2.9785,3.1538,3.2773,3.3168,3.3226,3.2891,3.2066,3.123,2.9673,2.7155,0.0,0.0,0.0,0.0,0.0,0.0,0.0,0.0,0.0,0.0,0.0,0.0,0.0,0.0,0.0,0.0,0.0,0.0,0.0,0.0,0.0,0.0,0.0,0.0,0.0,0.0,0.0,0.0,0.0,0.0,0.0,0.0,0.0,0.0,0.0,0.0,0.0,0.0,0.0,0.0,0.0,0.0,0.0,0.0,0.0,0.0,0.0,0.0,0.0,0.0,0.0,0.0,0.0,0.0,0.0,0.0,0.0,0.0,0.0,0.0,0.0,0.0,0.0,0.0,0.0,0.0,0.0,0.0,0.0,0.0,0.0,0.0,0.0,0.0,0.0,0.0,0.0,0.0,0.0,0.0,0.0,0.0,0.0,0.0,0.0,0.0,0.0,0.0,0.0,0.0,0.0,0.0,0.0,0.0,0.0,0.0,0.0,0.0,0.0,0.0,0.0,0.0,3.0249,3.1851,3.3027,3.3613,3.3519,3.307,3.2276,3.1758,3.0279,2.7461,0.0,0.0,0.0,0.0,0.0,0.0,0.0,0.0,0.0,0.0,0.0,0.0,0.0,0.0,0.0,0.0,0.0,0.0,0.0,0.0,0.0,0.0,0.0,0.0,0.0,0.0,0.0,0.0,0.0,0.0,0.0,0.0,0.0,0.0,0.0,0.0,0.0,0.0,0.0,0.0,0.0,0.0,0.0,0.0,0.0,0.0,0.0,0.0,0.0,0.0,0.0,0.0,0.0,0.0,0.0,0.0,0.0,0.0,0.0,0.0,0.0,0.0,0.0,0.0,0.0,0.0,0.0,0.0,0.0,0.0,0.0,0.0,0.0,0.0,0.0,0.0,0.0,0.0,0.0,0.0,0.0,0.0,0.0,0.0,0.0,0.0,0.0,0.0,0.0,0.0,0.0,0.0,0.0,0.0,0.0,0.0,0.0,0.0,0.0,0.0,0.0,0.0,3.0684,3.2105,3.3219,3.4016,3.3711,3.3144,3.232,3.1797,3.0449,2.7976,0.0,0.0,0.0,0.0,0.0,0.0,0.0,0.0,0.0,0.0,0.0,0.0,0.0,0.0,0.0,0.0,0.0,0.0,0.0,0.0,0.0,0.0,0.0,0.0,0.0,0.0,0.0,0.0,0.0,0.0,0.0,0.0,0.0,0.0,0.0,0.0,0.0,0.0,0.0,0.0,0.0,0.0,0.0,0.0,0.0,0.0,0.0,0.0,0.0,0.0,0.0,0.0,0.0,0.0,0.0,0.0,0.0,0.0,0.0,0.0,2.2787,0.0,0.0,0.0,0.0,0.0,0.0,0.0,0.0,0.0,0.0,0.0,0.0,0.0,0.0,0.0,0.0,0.0,0.0,0.0,0.0,0.0,0.0,0.0,0.0,0.0,0.0,0.0,0.0,0.0,0.0,0.0,0.0,0.0,0.0,0.0,0.0,0.0,0.0,0.0,0.0,0.0,3.1138,3.2808,3.3883,3.4095,3.4,3.361,3.2734,3.1938,3.0689,2.8756,2.7526,0.0,0.0,0.0,0.0,0.0,0.0,0.0,0.0,0.0,0.0,0.0,0.0,0.0,0.0,0.0,0.0,0.0,0.0,0.0,0.0,0.0,0.0,0.0,0.0,0.0,0.0,0.0,0.0,0.0,0.0,0.0,0.0,0.0,0.0,0.0,0.0,0.0,0.0,0.0,0.0,0.0,0.0,0.0,0.0,0.0,0.0,0.0,0.0,0.0,0.0,0.0,0.0,0.0,0.0,0.0,0.0,0.0,0.0,0.0,0.0,2.4725,0.0,0.0,0.0,0.0,0.0,0.0,0.0,0.0,0.0,0.0,0.0,0.0,0.0,0.0,0.0,0.0,0.0,0.0,0.0,0.0,0.0,0.0,0.0,0.0,0.0,0.0,0.0,0.0,0.0,0.0,0.0,0.0,0.0,0.0,0.0,0.0,0.0,0.0,0.0,0.0,3.1855,3.3277,3.4271,3.4684,3.4333,3.3824,3.3144,3.25,3.1372,2.9634,2.873,0.0,0.0,0.0,0.0,0.0,0.0,0.0,0.0,0.0,0.0,0.0,0.0,0.0,0.0,0.0,0.0,0.0,0.0,0.0,0.0,0.0,0.0,0.0,0.0,0.0,0.0,0.0,0.0,0.0,0.0,0.0,0.0,0.0,0.0,0.0,0.0,0.0,0.0,0.0,0.0,0.0,0.0,0.0,0.0,0.0,0.0,0.0,0.0,0.0,0.0,0.0,0.0,0.0,2.5138,2.5527,2.7223,2.8574,2.9531,3.003,2.7664,2.6657,2.6687,2.6455,0.0,0.0,0.0,0.0,0.0,0.0,0.0,0.0,0.0,0.0,0.0,0.0,0.0,0.0,0.0,0.0,0.0,0.0,0.0,0.0,0.0,0.0,0.0,0.0,2.9701,3.0273,0.0,0.0,0.0,0.0,0.0,0.0,0.0,0.0,0.0,0.0,0.0,0.0,3.248,3.3688,3.4606,3.5312,3.4684,3.402,3.3558,3.3086,3.2164,3.0644,3.0014,2.9037,0.0,0.0,0.0,0.0,0.0,0.0,0.0,0.0,0.0,0.0,0.0,0.0,0.0,0.0,0.0,0.0,0.0,0.0,0.0,0.0,0.0,0.0,0.0,0.0,0.0,0.0,0.0,0.0,0.0,0.0,0.0,0.0,1.7395,1.7475,0.0,0.0,0.0,0.0,0.0,0.0,0.0,0.0,0.0,0.0,0.0,0.0,0.0,2.4118,2.5987,2.659,2.7285,2.8077,2.9015,2.9614,2.995,3.186,3.2598,3.2383,3.2331,0.0,2.9153,2.9105,0.0,0.0,0.0,0.0,0.0,0.0,0.0,0.0,0.0,0.0,0.0,0.0,0.0,0.0,0.0,0.0,0.0,0.0,0.0,0.0,0.0,0.0,3.2266,3.2148,3.2559,3.2895,0.0,3.0273,2.806,2.7545,2.7487,0.0,0.0,0.0,0.0,0.0,0.0,0.0,3.2617,3.4219,3.527,3.5391,3.4922,3.4453,3.4039,3.3277,3.2554,3.1983,3.0786,2.9869,2.9285,2.8093,0.0,0.0,0.0,0.0,0.0,0.0,0.0,0.0,0.0,0.0,0.0,0.0,0.0,0.0,0.0,0.0,0.0,0.0,0.0,0.0,0.0,0.0,0.0,0.0,0.0,0.0,0.0,0.0,0.0,1.7167,1.7662,1.7809,1.7716,1.7775,0.0,0.0,0.0,0.0,0.0,0.0,0.0,0.0,0.0,2.6437,2.7694,2.8575,2.9019,2.9409,3.0266,3.1595,3.1235,3.1683,3.2849,3.3737,3.4043,3.3867,3.4046,3.3375,3.2046,3.1069,3.021,2.9428,0.0,0.0,0.0,0.0,2.8887,2.8607,2.9584,2.959,0.0,2.8855,0.0,0.0,0.0,0.0,0.0,0.0,0.0,0.0,0.0,0.0,3.3203,3.3473,3.3828,3.4124,3.4124,3.2949,3.1577,0.0,3.0224,2.9715,2.8086,0.0,0.0,0.0,0.0,3.2164,3.3672,3.4766,3.5488,3.5723,3.5351,3.4919,3.4469,3.3883,3.3238,3.2574,3.1992,3.1269,3.0366,2.9545,2.8588,0.0,0.0,0.0,0.0,0.0,0.0,0.0,0.0,0.0,0.0,0.0,0.0,0.0,0.0,0.0,0.0,0.0,0.0,0.0,0.0,0.0,0.0,0.0,0.0,0.0,0.0,0.0,0.0,1.8222,1.8714,1.8398,1.8891,1.9191,0.0,0.0,0.0,0.0,0.0,0.0,2.4421,2.6977,2.8946,2.9984,3.1456,3.2242,3.2292,3.2183,3.2952,3.457,3.3317,3.3534,3.5039,3.5156,3.5137,3.5039,3.5156,3.4919,3.4313,3.2793,3.1914,3.1465,3.0835,3.0561,3.0639,3.1289,3.1128,3.0757,3.2046,3.2085,3.1426,3.0776,3.0268,2.9682,2.8398,0.0,0.0,0.0,0.0,3.1269,3.2394,3.3297,3.3988,3.4352,3.4841,3.5195,3.5195,3.5293,3.4824,0.0,3.2687,3.2085,3.022,0.0,0.0,0.0,0.0,3.316,3.4531,3.5195,3.5664,3.5979,3.5644,3.5254,3.4902,3.4391,3.3824,3.318,3.291,3.2363,3.1441,3.0952,3.0098,2.8809,0.0,0.0,0.0,0.0,0.0,0.0,0.0,0.0,0.0,0.0,0.0,0.0,0.0,0.0,0.0,0.0,0.0,0.0,0.0,0.0,0.0,0.0,0.0,0.0,0.0,0.0,0.0,0.0,0.0,1.955,2.1306,0.0,0.0,0.0,0.0,1.9831,2.4534,2.7334,2.7125,2.9108,3.1535,3.429,3.3034,3.3414,3.5726,3.5371,3.5424,3.5901,3.5816,3.5836,3.5959,3.6404,3.6365,3.5959,3.6404,3.6111,3.5254,3.4333,3.3691,3.3265,3.3226,3.3207,3.3207,3.3265,3.3246,3.3226,3.3304,3.3304,3.3265,3.3226,3.2114,3.0835,3.0723,3.041,0.0,0.0,3.227,3.3363,3.3864,3.4645,3.5293,3.5332,3.5974,3.6616,3.6616,3.6912,3.6543,0.0,3.3997,3.3723,3.2769,0.0,3.2652,3.2656,3.3434,3.4176,3.4629,3.5432,3.5979,3.5999,3.5644,3.5391,3.5368,3.4587,3.4095,3.4036,3.3258,3.2773,3.2695,3.23,3.146,3.0137,2.9676,0.0,0.0,0.0,0.0,0.0,0.0,0.0,0.0,0.0,0.0,0.0,0.0,0.0,0.0,0.0,0.0,0.0,0.0,0.0,0.0,0.0,0.0,0.0,0.0,0.0,0.0,0.0,0.0,2.0558,2.2633,0.0,2.1631,2.4674,2.5562,2.271,2.8521,3.113,2.8776,3.2351,3.4931,3.5957,3.5679,3.5933,3.6836,3.6699,3.6699,3.6836,3.6836,3.6836,3.6836,3.7012,3.6992,3.6855,3.7012,3.6894,3.6601,3.6287,3.5391,3.4238,3.4238,3.4238,3.4238,3.4238,3.4238,3.4238,3.4238,3.4238,3.4183,3.3926,3.3242,3.2504,3.2504,3.2598,3.2828,3.3398,3.4101,3.4785,3.5215,3.5779,3.6228,3.6228,3.6677,3.7088,3.7088,3.7205,3.707,3.6306,3.5954,3.5485,3.4609,3.4687,3.4785,3.4512,3.4961,3.5488,3.5935,3.5996,3.5999,3.5999,3.5862,3.5667,3.541,3.4841,3.4372,3.4114,3.3516,3.307,3.2812,3.2672,3.2105,3.1074,3.0332,2.9076,0.0,0.0,0.0,0.0,0.0,0.0,0.0,0.0,0.0,0.0,0.0,0.0,0.0,0.0,0.0,0.0,0.0,0.0,0.0,0.0,0.0,0.0,0.0,0.0,0.0,2.171,2.2095,2.2322,2.404,2.4561,2.2898,2.652,2.7622,2.4309,3.0526,3.3175,3.0226,3.4424,3.697,3.7107,3.7363,3.7578,3.7752,3.7578,3.75,3.75,3.75,3.75,3.75,3.75,3.75,3.75,3.75,3.7422,3.7305,3.7461,3.6738,3.5586,3.5586,3.5586,3.5586,3.5586,3.5586,3.5586,3.5586,3.5391,3.5081,3.4824,3.4336,3.3832,3.3832,3.416,3.4587,3.4863,3.5254,3.5703,3.6133,3.6462,3.6716,3.6873,3.7207,3.75,3.75,3.7617,3.7752,3.7752,3.7283,3.6716,3.6133,3.6269,3.635,3.6074,3.6152,3.6348,3.6658,3.6289,3.5999,3.5999,3.5999,3.5842,3.543,3.486,3.4391,3.4114,3.3398,3.293,3.2808,3.2672,3.2246,3.1508,3.063,2.9741,2.8777,0.0,0.0,0.0,0.0,0.0,0.0,0.0,0.0,0.0,0.0,0.0,0.0,0.0,0.0,0.0,0.0,0.0,0.0,0.0,0.0,0.0,0.0,0.0,2.5564,2.5203,2.467,2.496,2.5688,2.5149,2.2546,2.5237,2.6381,2.4571,3.0456,3.3358,3.1603,3.5223,3.7519,3.7912,3.7913,3.8164,3.8612,3.8184,3.797,3.797,3.797,3.7951,3.7951,3.7951,3.7951,3.7951,3.797,3.7736,3.7402,3.7795,3.7736,3.7383,3.7324,3.7305,3.7305,3.7305,3.7305,3.7305,3.7305,3.6758,3.6038,3.6038,3.5471,3.4785,3.4785,3.5098,3.5449,3.5449,3.5742,3.6152,3.6599,3.6734,3.6834,3.7244,3.7619,3.7931,3.7931,3.8281,3.8592,3.8592,3.7928,3.7363,3.7344,3.7344,3.7344,3.7344,3.699,0.0,3.6753,3.6309,3.6018,3.6018,3.6018,3.5842,3.5449,3.4626,3.4114,3.4114,3.2922,3.2398,3.2793,3.2437,3.2027,3.1567,3.0703,3.0469,3.0932,0.0,0.0,0.0,0.0,0.0,0.0,0.0,0.0,0.0,0.0,0.0,0.0,0.0,0.0,0.0,0.0,0.0,0.0,0.0,0.0,0.0,2.713,2.7475,2.7129,2.5481,2.5452,2.8558,2.9508,2.9663,2.9016,3.2279,3.3074,2.9806,3.409,3.6023,3.4174,3.6725,3.8299,3.8398,3.8691,3.8906,3.9023,3.9238,3.9355,3.9355,3.9355,3.918,3.8867,3.9199,3.9142,3.8849,3.9199,3.9297,3.9199,3.9297,3.9277,3.9062,3.7793,3.7305,3.7305,3.7305,3.7305,3.7305,3.7305,3.7148,3.6953,3.6953,3.6777,3.6582,3.6582,3.668,3.6777,3.6777,3.6855,3.6973,3.709,3.7344,3.7599,3.7716,3.8086,3.8416,3.8416,3.8514,3.8592,3.8592,3.8651,3.8574,3.8299,3.8241,3.8241,3.8241,3.7851,0.0,3.756,3.6934,3.6502,3.6502,3.6211,3.5959,3.5842,3.5039,3.4411,3.4114,3.318,3.2812,3.3226,3.3144,3.3012,3.2895,3.207,3.1558,0.0,0.0,0.0,0.0,0.0,0.0,0.0,0.0,0.0,0.0,0.0,0.0,0.0,0.0,0.0,0.0,0.0,0.0,0.0,0.0,0.0,0.0,2.9476,3.0137,3.0059,2.8367,2.839,3.1761,3.1771,3.1594,3.1871,3.4776,3.5431,3.2526,3.6294,3.7885,3.592,3.7929,3.9139,3.9139,3.9375,3.9492,3.9492,3.9766,3.9902,3.9902,3.9902,3.9766,3.9492,3.9766,3.9746,3.9512,3.9785,3.9902,3.9902,3.9902,3.9902,0.0,0.0,0.0,0.0,0.0,3.785,3.785,3.785,3.7715,3.7541,3.7541,3.7441,3.7305,3.7305,3.7305,3.7305,3.7305,3.7305,3.7344,3.7519,3.7716,3.7951,3.8164,3.8516,3.8846,3.8846,3.8846,3.8905,3.912,3.916,0.0,3.9159,3.8983,3.8846,3.8846,3.832,3.7912,3.7912,3.7344,3.6951,3.6951,3.6699,3.6484,3.6309,3.5488,0.0,0.0,0.0,3.3164,3.3402,3.3578,0.0,0.0,0.0,0.0,0.0,0.0,0.0,0.0,3.4391,3.4567,0.0,0.0,0.0,0.0,0.0,0.0,0.0,0.0,0.0,0.0,0.0,0.0,0.0,0.0,0.0,0.0,3.0676,3.1721,3.3855,3.3016,3.2885,3.4739,3.3323,3.2445,3.3099,3.4996,3.5596,3.4146,3.7686,3.9108,3.726,3.8899,0.0,0.0,0.0,3.9961,3.9961,4.0019,4.0039,4.0039,4.0039,4.0019,3.9961,4.0019,4.0019,3.9961,4.0019,4.0039,4.0039,4.0039,4.0039,4.0039,3.9941,3.9648,3.9238,3.8827,3.8671,3.8651,3.8612,0.0,0.0,3.797,3.7754,3.7441,3.7441,3.7441,3.7441,3.7441,3.7441,3.7539,3.7951,3.8048,3.8165,3.8631,3.9022,3.9277,3.9277,3.9277,3.9394,3.9824,3.9609,3.9492,3.9902,3.959,3.9277,3.9277,3.8594,3.8048,3.8048,3.7656,3.7363,3.7363,0.0,0.0,3.6871,3.6091,3.5586,3.5564,3.4434,3.3793,3.3832,3.4333,3.4938,3.5664,3.6077,3.6838,3.799,3.8535,3.8846,3.8827,3.6462,3.635,0.0,0.0,0.0,0.0,0.0,0.0,0.0,0.0,0.0,0.0,0.0,0.0,0.0,0.0,0.0,3.3443,3.5232,3.6687,3.7528,3.798,3.8116,3.7834,3.6625,3.6499,3.8254,3.8839,3.8953,3.8652,3.941,3.9713,3.9316,3.9675,3.9902,3.9902,4.0215,4.0391,4.0391,4.0762,4.0937,4.0937,0.0,0.0,4.0391,4.0781,4.0742,4.041,4.0781,4.0937,4.0937,4.0937,4.0937,4.0879,4.0156,3.9844,3.9707,3.9258,3.9082,3.9023,3.871,3.8534,3.8475,3.8475,3.8416,3.8338,3.8338,3.8338,0.0,3.8338,3.8338,3.8436,3.8848,3.8945,3.9062,3.9531,3.9707,3.9766,3.9766,3.9766,3.9785,3.9883,4.0098,4.0274,4.0371,4.0039,3.9766,3.9766,3.9297,3.8945,3.8945,3.8263,3.7795,3.7795,3.7795,3.7756,3.7677,3.7226,3.6777,3.6462,3.6208,3.6208,3.6543,3.7303,3.7635,3.7424,3.7851,3.8221,3.8475,3.959,4.0332,4.0683,3.9805,3.9415,0.0,0.0,0.0,0.0,0.0,0.0,0.0,0.0,0.0,0.0,0.0,2.8485,2.9987,0.0,3.4528,3.477,3.6899,3.8344,3.7783,3.9144,3.9961,3.9335,3.8707,3.8842,4.0081,4.0215,4.0293,4.0527,4.0546,4.0546,4.0546,4.0546,4.0546,4.0546,4.0742,4.084,4.084,4.1094,4.1191,4.1191,4.1191,4.1074,4.0859,4.1094,4.1074,4.0859,4.1094,4.1191,4.1191,4.1191,4.1191,4.1152,4.0722,4.041,4.0156,3.9707,3.9551,3.9512,3.9335,3.91,3.8905,3.8905,3.8768,3.8592,3.8592,3.8749,3.8905,3.8905,3.9081,3.9315,3.9492,3.9551,3.9609,3.9844,4.0059,4.0215,4.0215,4.0215,4.0273,4.0488,4.0527,4.0567,4.082,4.0664,4.0469,4.0254,3.9824,3.9551,3.9551,3.918,3.8888,3.8888,3.8888,3.8888,3.8888,3.8496,3.8066,3.7692,3.7653,3.7733,3.7948,3.8573,3.8906,3.8888,3.9569,3.9999,4.0195,4.1035,4.1562,4.1797,4.1797,4.1582,0.0,0.0,0.0,0.0,0.0,0.0,0.0,2.3598,2.4451,2.8749,3.0581,3.1856,3.3274,3.5481,3.6789,3.5888,3.7834,3.8989,3.7698,3.9318,4.0527,4.0176,4.0137,4.0273,4.0606,4.0644,4.0801,4.1172,4.1191,4.1191,4.1191,4.1191,4.1191,4.1191,4.1191,4.1191,4.1191,4.1191,4.1191,4.1191,4.1191,4.1191,4.1191,4.1191,4.1191,4.1191,4.1191,4.1191,4.1191,4.1191,4.1191,4.1191,4.1191,4.0957,4.0605,4.0176,4.0019,4.0,3.9922,3.9648,3.9336,3.9336,3.9061,3.8729,3.8827,3.9022,3.9219,3.9316,3.9609,3.9922,4.0,4.0019,4.0039,4.0117,4.041,4.0644,4.0644,4.0644,4.0762,4.1133,4.0879,4.0762,4.1133,4.1191,4.1074,4.0684,4.0274,4.0019,4.0019,3.9941,3.9902,3.9902,3.9961,4.0019,4.0019,3.9668,3.9316,3.9003,3.8964,3.9042,3.9218,3.9531,3.9922,4.0371,4.1094,4.1582,4.1933,4.2324,4.2577,4.2675,4.3125,4.3047,1.7702,1.8129,1.8932,2.1019,2.0416,2.082,0.0,2.7424,2.7455,2.9373,3.2765,3.5111,3.4273,3.6461,3.8461,3.867,3.9635,4.0295,4.0105,4.0685,4.1094,4.1054,4.1054,4.1074,4.1113,4.1113,4.1133,4.1211,4.1191,4.1191,4.1191,4.1191,4.1191,4.1191,4.1191,4.1191,4.1191,4.1191,4.1191,4.1191,4.1191,4.1191,4.1191,4.1191,4.1191,4.1191,4.1191,4.1191,4.1191,4.1191,4.1191,4.1191,4.1191,4.1172,4.1074,4.0586,4.043,4.0371,4.0019,3.9863,3.9824,3.9824,3.9512,3.9199,3.9629,3.9492,3.9297,3.9707,3.9863,3.998,4.0332,4.043,4.0528,4.0957,4.1094,4.1113,4.1113,4.1113,4.1133,4.1191,4.1152,4.1133,4.1191,4.1191,4.1172,4.1133,4.0723,4.043,4.043,4.0137,3.9902,3.9902,4.0215,4.043,4.043,4.0391,4.0332,4.0293,4.0293,4.0625,4.1406,4.1484,4.1699,4.2109,4.2226,4.2285,4.2343,4.2793,4.3223,4.3574,4.4043,4.3808,1.9319,1.9531,1.9856,2.139,2.2477,2.4169,2.7966,2.9979,3.1645,3.374,3.5946,3.7421,3.7161,3.8522,3.9766,3.9922,4.0488,4.0898,4.0898,4.1074,4.1094,4.082,4.1035,4.1191,4.1191,4.1191,4.1191,4.1191,4.1191,4.1191,4.1191,4.1191,4.1191,4.1191,4.1191,4.1191,4.1191,4.1191,4.1191,4.1191,4.1191,4.1191,4.1191,4.1191,4.1191,4.1191,4.1191,4.1191,4.1191,4.1191,4.1191,4.1191,4.1191,4.1191,4.1172,4.0996,4.0898,4.0879,4.0703,4.0469,4.0235,4.0235,3.9961,3.9648,3.9844,3.9922,4.0001,4.0196,4.0449,4.0703,4.0859,4.0898,4.0976,4.1152,4.1191,4.1191,4.1191,4.1191,4.1191,4.1191,4.1191,4.1191,4.1191,4.1191,4.1191,4.1191,4.1035,4.0898,4.0898,4.0761,4.0664,4.0664,4.082,4.0898,4.0898,4.0898,4.0898,4.0898,4.1133,4.1426,4.1777,4.2011,4.2226,4.2402,4.289,4.3144,4.3144,4.3867,4.4276,4.4452,4.4647,4.4549,2.0135,2.0839,2.1537,2.2367,2.483,2.7644,2.9935,3.2384,3.4871,3.7318,3.8516,3.9199,3.9493,4.0195,4.0684,4.0684,4.0996,4.1191,4.1191,4.1094,4.0879,4.0547,4.0703,4.0879,4.0996,4.1113,4.1191,4.1191,4.1191,4.1191,4.1191,4.1308,4.1367,4.1367,4.1367,4.1426,4.1543,4.1308,4.125,4.1367,4.125,4.1191,4.1191,4.1191,4.1191,4.1191,4.1191,4.1191,4.1191,4.1191,4.1191,4.1191,4.1191,4.1191,4.1191,4.1191,4.1191,4.1191,4.1191,4.0996,4.0684,4.0684,4.041,4.0098,4.0215,4.0371,4.0528,4.0645,4.0937,4.1191,4.1191,4.1191,4.1191,4.1191,4.1289,4.1367,4.1367,4.1445,4.1504,4.1387,4.1367,4.1328,4.1211,4.1191,4.1191,4.1191,4.1191,4.1191,4.1191,4.1191,4.1191,4.1191,4.1191,4.1191,4.1191,4.1308,4.1367,4.1367,4.1738,4.2031,4.2148,4.2441,4.2636,4.2753,4.3516,4.3887,4.3887,4.4627,4.5057,4.5174,4.5174,4.5174,1.9561,2.1801,2.4379,2.4862,2.7513,3.0678,3.3429,3.4884,3.6312,3.8655,3.9844,4.045,4.0469,4.084,4.1172,4.1172,4.1191,4.1191,4.1191,4.0801,4.0528,4.0508,4.0176,4.0098,4.0489,4.0918,4.1191,4.1191,4.1191,4.1191,4.1191,4.1562,4.1777,4.1777,4.1777,4.1973,4.2363,4.1602,4.1406,4.1777,4.1387,4.1191,4.1191,4.1191,4.1191,4.1191,4.1191,4.1191,4.1191,4.1191,4.1191,4.1191,4.1191,4.1191,4.1191,4.1191,4.1191,4.1191,4.1191,4.1191,4.1172,4.1172,4.0859,4.0567,4.1035,4.084,4.0586,4.1054,4.1191,4.1191,4.1191,4.1191,4.1191,4.1191,4.1504,4.1777,4.1777,4.2089,4.2246,4.1855,4.1777,4.166,4.1269,4.1191,4.1191,4.1191,4.1191,4.1191,4.1191,4.1191,4.1191,4.1191,4.1191,4.1191,4.1191,4.1562,4.1777,4.1777,4.2148,4.2598,4.3048,4.3067,4.3263,4.3652,4.4141,4.4375,4.4375,4.4803,4.5213,4.5686,4.5686,4.5686,2.0911,2.2375,2.4128,2.6022,2.8802,3.1811,3.4572,3.6664,3.8323,3.9439,3.9648,3.9648,3.9648,3.9766,3.9961,4.0292,4.0566,4.084,4.1152,4.1074,4.0742,4.0176,4.0488,4.0585,4.0156,4.0488,4.0859,4.1172,4.1445,4.1602,4.1602,4.1992,4.2187,4.2187,4.2187,4.2265,4.2402,4.2128,4.205,4.2187,4.1797,4.1602,4.1602,4.1602,4.1738,4.1992,4.1699,4.1602,4.1582,4.1308,4.1191,4.1191,4.1191,4.1191,4.1191,4.1191,4.1191,4.1191,4.1191,4.1191,4.1191,4.1191,4.1094,4.0976,4.1152,4.1094,4.0996,4.1152,4.1191,4.1191,4.1191,4.1191,4.1191,4.1191,4.1308,4.1484,4.1738,4.1914,4.2031,4.2167,4.2187,4.2148,4.2031,4.1777,4.1602,4.1602,4.1367,4.1191,4.1191,4.1191,4.1191,4.1191,4.1191,4.1191,4.1191,4.1562,4.1797,4.1797,4.2461,4.295,4.3087,4.336,4.3711,4.416,4.4569,4.4961,4.5275,4.5664,4.5957,4.6094,4.6094,4.6879,2.1981,2.3904,2.5891,2.7335,3.0805,3.4156,3.537,3.7482,3.9199,3.9199,3.8945,3.8691,3.8555,3.8516,3.8769,3.9531,4.0019,4.0508,4.1113,4.1054,4.0742,4.0195,4.0469,4.0585,4.0156,4.0352,4.0684,4.1152,4.1562,4.1797,4.1797,4.2344,4.2656,4.2656,4.2656,4.2714,4.2851,4.2558,4.2402,4.2402,4.2128,4.2011,4.2011,4.2011,4.2148,4.2382,4.1953,4.1797,4.1758,4.1367,4.1191,4.1191,4.1191,4.1191,4.1191,4.1191,4.1191,4.1191,4.1191,4.1191,4.1191,4.1191,4.1191,4.1191,4.1191,4.1191,4.1191,4.1191,4.1191,4.1191,4.1191,4.1191,4.1191,4.1191,4.1308,4.1504,4.1933,4.2148,4.2344,4.2598,4.2656,4.2597,4.2441,4.2187,4.2011,4.2011,4.1797,4.1582,4.1445,4.1406,4.1367,4.1211,4.1191,4.125,4.1406,4.1777,4.209,4.2246,4.293,4.3321,4.3321,4.3711,4.4082,4.4394,4.4961,4.5391,4.5705,4.6094,4.6308,4.633,4.7119,4.7815,2.2855,2.619,2.9317,2.8995,3.3299,3.727,3.5943,3.7462,3.8887,3.8009,3.7814,3.7638,3.7207,3.7187,3.7637,3.8906,3.9551,4.0195,4.1074,4.084,4.0567,4.0547,4.0215,4.0137,4.0508,4.0547,4.0762,4.1191,4.1601,4.1836,4.1875,4.2676,4.3126,4.3126,4.3126,4.3321,4.3691,4.287,4.246,4.2441,4.2441,4.2441,4.2441,4.2441,4.246,4.2441,4.2031,4.1836,4.1797,4.1367,4.1191,4.1191,4.1191,4.1191,4.1191,4.1191,4.1191,4.1191,4.1191,4.1191,4.1191,4.1191,4.1191,4.1191,4.1191,4.1191,4.1191,4.1191,4.1191,4.1191,4.1191,4.1191,4.1211,4.123,4.1523,4.1914,4.2343,4.2793,4.3106,4.3126,4.3126,4.2989,4.2519,4.2441,4.2441,4.2441,4.2441,4.2285,4.1894,4.1836,4.168,4.1308,4.125,4.1426,4.1797,4.2187,4.2637,4.3067,4.3476,4.3711,4.373,4.416,4.4414,4.4473,4.5295,4.5705,4.5725,4.6224,4.6418,4.6372,4.8569,4.8548,2.5395,2.6326,2.7659,3.2293,3.366,3.457,3.7216,3.8016,3.799,3.7185,3.6484,3.5801,3.5056,3.5684,3.6643,3.7617,3.8965,4.0195,4.1074,4.1367,4.1367,4.1054,4.1191,4.123,4.1054,4.1289,4.1523,4.1641,4.2031,4.2402,4.2754,4.3262,4.3555,4.3555,4.3555,4.3594,4.3711,4.3496,4.3223,4.291,4.291,4.291,4.291,4.291,4.3086,4.334,4.2577,4.2246,4.2187,4.1504,4.1191,4.1191,4.1191,4.1191,4.1191,4.1191,4.1191,4.1191,4.1191,4.1191,4.1191,4.1191,4.1191,4.1191,4.1191,4.1191,4.1191,4.1191,4.1191,4.1191,4.1191,4.1191,4.1269,4.1582,4.1719,4.2012,4.2754,4.3028,4.3184,4.3476,4.3555,4.3418,4.2988,4.291,4.291,4.291,4.291,4.2754,4.2304,4.2246,4.2207,4.2089,4.2089,4.2128,4.2246,4.2656,4.2969,4.3087,4.3476,4.3867,4.4199,4.4336,4.4707,4.5353,4.5588,4.5861,4.6152,4.7905,4.8063,4.678,4.8713,5.0358,2.6789,2.7955,2.9464,3.4124,3.5079,3.5393,3.731,3.7402,3.6721,3.5508,3.4726,3.4059,3.3391,3.4313,3.5566,3.6834,3.8457,3.9961,4.1035,4.1562,4.1719,4.1504,4.1816,4.1953,4.1758,4.1933,4.2148,4.2364,4.2578,4.2812,4.3087,4.3476,4.3711,4.3711,4.3711,4.3711,4.3711,4.3906,4.3789,4.3359,4.3359,4.3359,4.3359,4.3359,4.3476,4.3672,0.0,4.2577,4.2363,4.1719,4.1367,4.1191,4.1191,4.1308,4.1465,4.1465,4.1582,4.1719,4.1719,4.1601,4.1445,4.125,4.1191,4.1191,4.1191,4.1191,4.1191,4.1191,4.1191,4.123,4.1426,4.1465,4.1562,4.1973,4.205,4.2266,4.295,4.3106,4.3223,4.3633,4.3711,4.3633,4.3398,4.3359,4.3359,4.3359,4.3359,4.3262,4.3007,4.2832,4.2637,4.2421,4.2402,4.248,4.2695,4.295,4.3263,4.3653,4.3691,4.4004,4.4648,4.4647,4.498,4.5686,4.5881,4.6074,4.6308,4.7554,4.8254,4.8462,4.9434,5.1358,2.7905,3.028,3.2606,3.5168,3.662,3.726,3.6647,3.6074,3.5198,3.3578,3.2871,3.2457,3.2085,3.3101,3.4567,3.6326,3.8026,3.9629,4.1074,4.1641,4.1894,4.1973,4.2265,4.2499,4.2499,4.2538,4.2734,4.3145,4.3302,4.3341,4.3282,4.3652,4.3866,4.3866,4.3866,4.3866,4.3866,4.4219,4.4199,4.3789,4.373,4.3711,4.3711,4.3711,4.3711,4.3691,4.3282,4.2871,4.246,4.2051,4.166,4.1367,4.1367,4.1562,4.1894,4.1894,4.2089,4.2402,4.2402,4.2167,4.1816,4.1406,4.123,4.1191,4.1191,4.1191,4.1211,4.1269,4.1269,4.1367,4.1777,4.1894,4.1992,4.2402,4.2499,4.2616,4.3087,4.3184,4.3262,4.3633,4.375,4.3769,4.3711,4.375,4.3789,4.3789,4.375,4.373,4.3789,4.3418,4.3008,4.2616,4.2577,4.2753,4.3243,4.3282,4.3634,4.4433,4.4101,4.4258,4.5057,4.5096,4.5312,4.5764,4.6172,4.6387,4.6387,4.6732,4.8001,5.013,5.0543,5.2152,3.054,3.1656,3.2873,3.6579,3.6152,3.4983,3.5503,3.4707,3.3578,3.2613,3.1773,3.1206,3.1147,3.2441,3.4085,3.5842,3.7578,3.9413,4.1406,4.2031,4.2441,4.2833,4.295,4.2989,4.2989,4.3281,4.3516,4.3594,4.4256,4.4531,4.418,4.457,4.4764,4.4764,4.4764,4.4764,4.4764,4.4531,4.4355,4.4277,4.3887,4.3711,4.3711,4.3711,4.3711,4.3691,4.3282,0.0,4.295,4.248,4.2246,4.2187,4.2187,4.2226,4.2304,4.2304,4.2343,4.2402,4.2402,4.2363,4.2226,4.1836,4.1484,4.1191,4.1191,4.1191,4.1269,4.1601,4.1699,4.1797,4.2187,4.2304,4.2402,4.2851,4.2989,4.3106,4.3496,4.3594,4.3613,4.3691,4.4023,4.416,4.3769,4.4023,4.4277,4.4277,4.3945,4.3848,4.4238,4.3887,4.3574,4.3496,4.3456,4.3672,4.4121,4.416,4.4394,4.4862,4.4822,4.5019,4.5568,4.5588,4.5762,4.6191,4.6579,4.6794,4.6794,4.9032,4.9573,4.8672,5.2066,5.413,3.1017,3.213,3.3167,3.6977,3.6522,3.5061,3.4782,3.3711,3.2554,3.1695,3.1187,3.0913,3.0913,3.2109,3.3516,3.4805,3.6269,3.7988,4.0137,4.0996,4.1738,4.2637,4.334,4.379,4.379,4.4141,4.4373,4.4373,4.5,4.5176,4.4746,4.4901,4.4998,4.4998,4.5254,4.5254,4.4998,4.5058,4.4941,4.4705,4.4471,4.4277,4.4062,4.4062,4.3926,4.3691,4.3496,4.3302,4.3087,4.2851,4.2616,4.2402,4.2402,4.2538,4.2754,4.2754,4.291,4.3086,4.3086,4.2949,4.2734,4.2539,4.2168,4.1777,4.1582,4.166,4.1816,4.1797,4.1953,4.2207,4.2656,4.2754,4.2871,4.3301,4.3398,4.3457,4.3652,4.3887,4.4062,4.4062,4.4433,4.4627,4.4433,4.4549,4.4705,4.4705,4.451,4.4452,4.4666,4.451,4.4198,4.375,4.3926,4.416,4.4375,4.459,4.4902,4.5332,4.5135,4.5291,4.5976,4.5996,4.6191,4.6599,4.7051,4.7266,4.7266,4.9779,5.1298,5.1895,5.3883,5.6327,3.1549,3.3201,3.4457,3.7118,3.6818,3.553,3.4254,3.2902,3.1729,3.105,3.0835,3.0781,3.0879,3.1777,3.2867,3.3938,3.5176,3.6779,3.9043,4.0157,4.125,4.2538,4.3711,4.4433,4.4531,4.4922,4.5174,4.5271,4.5781,4.5859,4.5311,4.5271,4.5271,4.5271,4.5625,4.5644,4.5291,4.5547,4.5508,4.5135,4.5057,4.4822,4.4531,4.4531,4.4336,4.3984,4.3984,4.3789,4.3517,4.3419,4.3164,4.2812,4.2714,4.289,4.3243,4.3243,4.3418,4.3711,4.3711,4.3496,4.3243,4.3243,4.2851,4.2343,4.2011,4.2148,4.2363,4.2148,4.2305,4.2656,4.3126,4.3243,4.3321,4.3633,4.3789,4.3828,4.373,4.4141,4.4512,4.4414,4.4805,4.5115,4.5018,4.5076,4.5154,4.5154,4.5057,4.5037,4.5135,4.5057,4.4744,4.4062,4.4316,4.457,4.4668,4.5058,4.5449,4.5803,4.5664,4.5818,4.6406,4.6523,4.6738,4.7028,4.7995,4.8484,4.8484,5.0946,5.3235,5.5359,5.5852,5.823,3.3919,3.6292,3.7924,3.747,3.6406,3.5098,3.3773,3.2207,3.0991,3.0932,3.0547,3.0391,3.082,3.1289,3.2168,3.3824,3.5176,3.6897,3.9473,4.0898,4.2148,4.3437,4.4062,4.4551,4.4901,4.5371,4.5803,4.6152,4.6933,4.7073,4.623,4.6191,4.6191,4.6191,4.623,4.623,4.6191,4.5861,4.5686,4.5627,4.5193,4.4979,4.494,4.494,4.492,4.4881,4.4881,4.4862,0.0,4.4433,4.4258,4.418,4.375,4.3613,4.3652,4.3652,4.3672,4.3711,4.3711,4.3691,4.3652,4.3652,4.3065,4.2402,4.2363,4.2382,4.248,4.2851,4.3008,4.3145,4.3535,4.3652,4.3652,4.3691,4.4023,4.4219,4.3789,4.4354,4.4842,4.4473,4.5058,4.5488,4.5076,4.5351,4.5646,4.5646,4.5273,4.5154,4.5588,4.5273,4.4979,4.4881,4.492,4.5137,4.5549,4.5937,4.6211,4.623,4.6956,4.7207,4.6853,4.7246,4.7503,4.7519,5.0027,5.1321,5.1343,5.4106,5.5593,5.5898,5.7941,5.9175,3.4104,3.5797,3.6844,3.7216,3.6133,3.4707,3.3636,3.2094,3.0913,3.0913,3.0742,3.0678,3.0874,3.1035,3.1538,3.2765,3.3375,3.4528,3.6855,3.8496,4.0118,4.1992,4.3496,4.4668,4.5351,4.6035,4.6601,4.7031,4.7405,4.7444,4.709,4.6816,4.654,4.6308,4.6308,4.6308,4.6308,4.6133,4.6055,4.6055,4.5879,4.5664,4.541,4.541,4.5273,4.4998,4.4998,4.4998,0.0,4.4822,4.4744,4.4744,4.4549,4.4471,4.4471,4.4471,4.4471,4.4471,4.4471,4.4315,4.4121,4.4121,4.3711,4.3144,4.2891,4.2988,4.3183,4.3126,4.3282,4.3496,4.3652,4.3906,4.418,4.4413,4.4627,4.4705,4.451,4.498,4.5371,4.5217,4.5666,4.5996,4.582,4.5937,4.6055,4.6055,4.5898,4.5859,4.6035,4.5898,4.5779,4.5779,4.5566,4.551,4.5686,4.6289,4.6658,4.6658,4.7246,4.7522,4.7324,4.9087,4.9398,4.7994,5.0698,5.2115,5.2115,5.4676,5.5901,5.5988,5.9691,6.0657,3.3661,3.534,3.6402,3.7124,3.5996,3.4473,3.3597,3.2094,3.0913,3.0913,3.0913,3.0913,3.0913,3.0913,3.1187,3.2061,3.2511,3.3512,3.5644,3.7422,3.9239,4.1308,4.3008,4.4474,4.5588,4.666,4.736,4.7581,4.7835,4.7874,4.762,4.7402,4.7028,4.6482,4.6484,4.6484,4.6484,4.6484,4.6484,4.6484,4.6484,4.6269,4.5881,4.5881,4.5703,4.5389,4.5389,4.5389,0.0,4.5252,4.5215,4.5174,4.5057,4.4998,4.4998,4.4998,4.4998,4.4998,4.4998,4.4803,4.459,4.459,4.4355,4.4043,4.375,4.3672,4.3633,4.336,4.3574,4.3906,4.3906,4.4238,4.4668,4.494,4.5096,4.5154,4.5037,4.5469,4.5842,4.5725,4.6016,4.6308,4.6308,4.6308,4.6308,4.6308,4.6308,4.6308,4.6308,4.6308,4.6308,4.6308,4.6152,4.6055,4.6055,4.6699,4.7107,4.7107,4.7679,4.7913,4.7796,4.9754,5.011,4.8444,5.1726,5.3103,5.241,5.614,5.7677,5.7277,6.1217,6.2254,3.2812,3.5704,3.7796,3.7402,3.5996,3.4473,3.3597,3.2094,3.0913,3.0913,3.0913,3.0913,3.0913,3.0913,3.1187,3.2061,3.3254,3.4821,3.6973,3.8769,4.0508,4.2187,4.2812,4.379,4.5529,4.7207,4.8027,4.764,4.8405,4.8522,4.7659,4.7969,4.7793,4.6931,4.6892,4.6892,4.6892,4.6892,4.6892,4.6892,4.6892,4.6677,4.6289,4.6289,4.6289,4.6289,4.6289,4.6289,0.0,4.5861,4.5686,4.5646,4.5174,4.4998,4.4998,4.4998,4.4998,4.4998,4.4998,4.4998,4.4998,4.4998,4.4998,4.4979,4.4979,4.4373,4.3711,4.3691,4.4043,4.4394,4.4394,4.4686,4.4998,4.4998,4.5351,4.5568,4.5096,4.5662,4.6172,4.5783,4.6016,4.6308,4.6308,4.6308,4.6308,4.6308,4.6308,4.6308,4.6308,4.6308,4.6308,4.6308,4.6658,4.6892,4.6892,4.7324,4.76,4.76,4.8402,4.8675,4.8223,4.8659,4.8917,4.8894,5.346,5.472,5.2431,5.9351,6.1827,6.02,6.2582,6.3952,3.1443,3.352,3.5212,3.4749,3.3824,3.2906,3.2633,3.1714,3.0913,3.0913,3.0913,3.0913,3.0913,3.0913,3.148,3.3215,3.384,3.4841,3.6992,3.9043,4.082,4.2246,4.4629,4.6506,4.7324,4.7891,4.8281,4.846,4.8757,4.8796,4.8499,4.8597,4.8284,4.7402,4.7383,4.7383,4.7383,4.7383,4.7383,4.7363,4.7048,4.6833,4.6697,4.6426,4.6308,4.6308,4.6308,4.6465,4.6677,4.6289,4.6269,4.6484,4.6033,4.5898,4.5898,4.5898,4.5898,4.5898,4.5898,4.5703,4.5469,4.5469,4.5273,4.4998,4.4998,4.4803,4.4588,4.4588,4.4512,4.4531,4.5138,4.5156,4.5154,4.5762,4.5996,4.6074,4.5918,4.6113,4.6269,4.6133,4.6211,4.6308,4.6308,4.6308,4.6308,4.6308,4.6308,4.6406,4.6677,4.6716,4.6814,4.7148,4.7285,4.7246,4.6931,4.7575,4.8008,4.8008,4.8558,4.8812,4.8675,5.0378,5.053,4.8917,5.1937,5.3148,5.241,5.6607,6.0182,6.3126,6.2276,6.2798,3.0171,3.2133,3.3824,3.3691,3.3027,3.2394,3.2237,3.1534,3.0913,3.0913,3.0913,3.0913,3.0913,3.1016,3.1621,3.3137,3.3903,3.5016,3.7012,3.916,4.1152,4.2948,4.5644,4.7441,4.7673,4.8164,4.8597,4.8894,4.8913,4.8913,4.8913,4.8913,4.8659,4.8109,4.7933,4.7812,4.7812,4.7812,4.7812,4.7812,4.7539,4.7302,4.7168,4.6894,4.6777,4.6777,4.6777,4.6836,0.0,4.6816,4.6738,4.6658,4.656,4.6521,4.6523,4.6367,4.6406,4.6501,4.6367,4.6133,4.594,4.594,4.5723,4.5486,4.5486,4.5252,4.4998,4.4998,4.4961,4.5021,4.5568,4.5586,4.5623,4.6172,4.6308,4.6308,4.6308,4.6308,4.6308,4.6308,4.6308,4.6348,4.6482,4.6521,4.6601,4.6758,4.6777,4.6875,4.7126,4.7146,4.7285,4.7581,4.7737,4.7715,4.7419,4.7891,4.8281,4.8437,4.8734,4.8913,4.8913,5.0299,5.037,4.8917,5.2263,5.3134,5.1298,5.5283,5.9347,6.3414,6.3072,6.3709,0.0,3.1332,3.3187,3.3649,3.318,3.2496,3.2179,3.148,0.0,3.0913,3.0913,3.0932,3.103,3.1289,3.1704,3.2413,3.3824,3.5449,3.7226,3.9395,4.1758,4.4316,4.6074,4.7048,4.7048,4.8167,4.8913,4.8913,4.8913,4.8913,4.8913,4.8913,4.8913,4.8913,4.8499,4.8262,4.8262,4.8262,4.8262,4.8262,4.8223,4.8008,4.764,4.762,4.76,4.76,4.76,4.7363,4.7028,4.7422,4.7151,4.6484,4.6814,4.695,4.6911,4.6482,4.6579,4.6853,4.6445,4.6308,4.6308,4.6308,4.6308,4.6308,4.6308,4.572,4.5096,4.5135,4.541,4.5705,4.5764,4.6016,4.6269,4.6289,4.6308,4.6308,4.6308,4.6308,4.6308,4.6308,4.6308,4.6426,4.6833,4.6911,4.7048,4.7542,4.76,4.762,4.764,4.764,4.7659,4.7698,4.8027,4.8262,4.8262,4.8262,4.8441,4.8874,4.8913,4.8913,4.8913,4.8913,4.8913,4.8913,5.3708,5.421,5.019,5.5542,5.9469,6.2067,6.4899,6.619,2.878,0.0,3.0064,3.0542,3.0497,3.0503,0.0,3.105,3.0913,3.0913,3.0913,3.1206,3.2168,3.1894,3.2422,3.5192,3.5974,3.6951,3.9004,4.1992,4.4666,4.6623,4.7796,4.8421,4.8421,4.8718,4.8913,4.8913,4.8913,4.8913,4.8913,4.8913,4.8913,4.8913,4.8773,4.8757,4.8757,4.8757,4.8757,4.8714,4.8359,4.8164,4.8047,4.7757,4.76,4.76,4.76,4.7695,4.7891,4.7676,4.7656,4.7734,4.7519,4.7444,4.7383,4.6933,4.6814,4.6853,4.6445,4.6308,4.6308,4.6308,4.6308,4.6308,4.6308,4.6172,4.6074,4.6365,4.6094,4.5842,4.6465,4.623,4.592,4.623,4.6308,4.6308,4.6308,4.6308,4.6308,4.6308,4.6308,4.6426,4.6833,4.6911,4.7048,4.7542,4.76,4.7718,4.8027,4.8066,4.8183,4.8561,4.8675,4.8757,4.8757,4.8757,4.8773,4.8894,4.8913,4.8913,4.8913,4.8913,4.8913,4.8913,5.0419,5.3029,5.6769,5.8135,6.1195,6.5757,6.6901,6.7191,2.8321,2.9049,2.9609,3.0073,3.0346,3.06,3.1074,3.1035,3.0913,3.0913,3.0913,3.1187,3.2051,3.2461,3.3359,3.5446,3.6775,3.8456,4.1015,4.3652,4.5879,4.7425,4.8385,4.8913,4.8913,4.8913,4.8913,4.8913,4.8913,4.8913,4.8913,4.8913,4.8913,4.8913,4.8913,4.8913,4.8913,4.8913,4.8913,4.8913,4.8636,4.8519,4.8519,4.8284,4.8187,4.8187,4.8187,4.8206,4.8203,4.8206,4.8089,4.791,4.7891,4.7894,4.7812,4.7383,4.7226,4.7168,4.6738,4.6443,4.6308,4.6308,4.6308,4.6308,4.6308,4.6308,4.6348,4.656,4.6308,4.6074,4.6501,4.6308,4.6074,4.6484,4.6582,4.6618,4.6855,4.6894,4.6836,4.6621,4.6758,4.6973,4.7187,4.736,4.7656,4.8128,4.8187,4.8265,4.8499,4.8519,4.8617,4.8874,4.8913,4.8913,4.8913,4.8913,4.8913,4.8913,4.8913,4.8913,4.8913,4.9086,4.9897,5.144,5.1683,5.4255,5.9266,6.041,6.257,6.5702,6.7133,6.7643,2.8172,2.9545,3.0542,3.0678,3.1055,3.1411,3.1411,3.1152,3.0913,3.0913,3.0952,3.1211,3.1957,3.3301,3.4587,3.5449,3.7615,4.0195,4.3087,4.4826,4.6272,4.7542,4.8402,4.8913,4.8913,4.8913,4.8913,4.8913,4.8913,4.8913,4.8913,4.8913,4.8913,4.8913,4.8913,4.8913,4.8913,4.8913,4.8913,4.8913,4.8913,4.8913,4.8913,4.8913,4.8913,4.8913,4.8913,0.0,4.834,4.8757,4.8441,4.7835,4.8164,4.8301,4.8262,4.7832,4.7698,4.764,4.7187,4.6775,4.6504,4.6504,4.6504,4.6484,4.6426,4.6445,4.6484,4.6426,4.6348,4.6328,4.6465,4.6445,4.6484,4.6814,4.695,4.7107,4.75,4.76,4.748,4.7067,4.7324,4.762,4.7679,4.7969,4.8359,4.8835,4.8913,4.8913,4.8913,4.8913,4.8913,4.8913,4.8913,4.8913,4.8913,4.8913,4.8913,4.8913,4.8913,4.8933,4.8988,4.9394,5.1139,5.4446,5.4576,5.6491,6.0292,6.2469,6.3978,6.4841,6.7013,6.7995,2.9456,3.0874,3.1553,3.0146,3.0405,3.0996,3.0996,3.0937,3.0913,3.0913,3.1172,3.2094,3.4375,3.5019,3.6172,3.9122,4.086,4.2637,4.4982,4.582,4.668,4.7969,4.8578,4.8913,4.8913,4.8913,4.8913,4.8913,4.8913,4.8913,4.8913,4.8913,4.8913,4.8913,4.8913,4.8913,4.8913,4.8913,4.8913,4.8913,4.8913,4.8913,4.8913,4.8913,4.8913,4.8913,4.8913,4.8874,4.8815,4.8874,4.8835,4.8718,4.8776,4.8773,4.8757,4.8262,4.8105,4.8047,4.7637,4.7441,4.7405,4.7405,4.7405,4.7346,4.6931,4.709,4.7327,4.6911,4.656,4.6465,4.721,4.7109,4.6833,4.6892,4.7185,4.7522,4.7581,4.76,4.7581,4.7522,4.7561,4.7718,4.8047,4.8164,4.8359,4.8835,4.8913,4.8913,4.8913,4.8913,4.8913,4.8913,4.8913,4.8913,4.8913,4.8913,4.8913,4.8913,4.8913,4.9046,4.9391,4.9844,5.1483,5.4446,5.4962,5.7898,6.3418,6.4255,6.5776,6.7936,6.8772,6.8926,2.9011,3.0469,3.1421,3.1084,3.1988,3.2906,3.2672,3.2422,3.2324,3.2574,3.2789,3.3476,3.5391,3.6484,3.826,4.166,4.3105,4.4315,4.5801,4.6604,4.7285,4.8105,4.8617,4.8913,4.8913,4.8913,4.8913,4.8913,4.8913,4.8913,4.8913,4.8913,4.8913,4.8913,4.8913,4.8913,4.8913,4.8913,4.8913,4.8913,4.8913,4.8913,4.8913,4.8913,4.8913,4.8913,0.0,4.8913,4.8913,4.8913,4.8913,4.8913,4.8913,4.8913,4.8855,4.8359,4.8203,4.8144,4.7757,4.76,4.76,4.76,4.76,4.7561,4.7344,4.7422,4.76,4.7617,4.7324,4.709,4.7503,4.7441,4.7344,4.7536,4.7773,4.7988,4.8245,4.8284,4.8226,4.7969,4.8128,4.8284,4.8223,4.8398,4.8656,4.8874,4.8913,4.8913,4.8913,4.8913,4.8913,4.8913,4.8913,4.8913,4.8913,4.8913,4.8988,4.9199,4.9219,5.0122,5.2119,5.2412,5.3382,5.5157,5.8112,6.0568,6.2503,6.5749,6.8086,6.9526,7.0079,7.0029,2.876,3.0195,3.1269,3.2242,3.3297,3.4176,3.4352,3.3887,3.3617,3.4391,3.4626,3.5095,3.6367,3.834,4.0703,4.3418,4.4744,4.572,4.6504,4.7246,4.7913,4.8301,4.8675,4.8913,4.8913,4.8913,4.8913,4.8913,4.8913,4.8913,4.8913,4.8913,4.8913,4.8913,4.8913,4.8913,4.8913,4.8913,4.8913,4.8913,4.8913,4.8913,4.8913,4.8913,4.8913,4.8913,4.8913,4.8913,4.8913,4.8913,4.8913,4.8913,4.8913,4.8913,4.8855,4.8499,4.8359,4.832,4.8011,4.7894,4.7894,4.7894,4.7894,4.7874,4.7776,4.7815,4.7952,4.8144,4.8047,4.7874,4.7776,4.7757,4.7835,4.8125,4.8281,4.8457,4.8812,4.8913,4.8773,4.8418,4.8656,4.8796,4.8441,4.8656,4.8913,4.8913,4.8913,4.8913,4.8913,4.8913,4.8913,4.8913,4.8913,4.8952,4.9027,4.9046,4.9261,4.9762,4.9703,5.1113,5.4378,5.4034,5.4968,5.7521,6.0891,6.2755,6.3057,6.7456,6.9928,7.0478,7.0905,7.088,2.992,3.1094,3.1762,3.3012,3.2832,3.2887,3.486,3.4336,3.3871,3.553,3.6211,3.691,3.8162,4.1113,4.3555,4.4238,4.5701,4.6931,4.7444,4.7871,4.832,4.8773,4.8894,4.8913,4.8913,4.8913,4.8913,4.8913,4.8913,4.8913,4.8913,4.8913,4.8913,4.8913,4.8913,4.8913,4.8913,4.8913,4.8913,4.8913,4.8913,4.8913,4.8913,4.8913,4.8913,4.8913,4.8913,4.8913,4.8913,4.8913,4.8913,4.8913,4.8913,4.8913,4.8894,4.8874,4.8855,4.8855,4.8815,4.8815,4.8815,4.8815,4.8815,4.8737,4.8281,4.846,4.8714,4.832,4.8499,4.8718,4.8262,4.8164,4.8164,4.8203,4.8538,4.8874,4.8894,4.8913,4.8894,4.8855,4.8874,4.8894,4.8855,4.8874,4.8913,4.8913,4.8913,4.8913,4.8913,4.8913,4.8913,4.8913,4.8913,4.9046,4.943,4.9449,4.9801,5.0664,5.0351,5.1456,5.4376,5.265,5.5138,6.2598,6.1349,6.3292,6.8808,6.9769,7.0503,7.1056,7.1081,7.1081,2.9619,3.1187,3.2465,3.3226,3.4004,3.4785,3.5605,3.5784,3.6328,3.8066,3.8769,3.9375,4.0391,4.209,4.3633,4.4629,4.5974,4.7146,4.7871,4.8363,4.8695,4.8894,4.8913,4.8913,4.8913,4.8913,4.8913,4.8913,4.8913,4.8913,4.8913,4.8913,4.8913,4.8913,4.8913,4.8913,4.8913,4.8913,4.8913,4.8913,4.8913,4.8913,4.8913,4.8913,4.8913,4.8913,4.8913,4.8913,4.8913,4.8913,4.8913,4.8913,4.8913,4.8913,4.8913,4.8913,4.8913,4.8913,4.8913,4.8913,4.8913,4.8913,4.8913,4.8874,4.8695,4.8753,4.8874,4.8675,4.8753,4.8874,4.8675,4.8636,4.8636,4.8636,4.8753,4.8913,4.8913,4.8913,4.8913,4.8913,4.8913,4.8913,4.8913,4.8913,4.8913,4.8913,4.8913,4.8913,4.8913,4.8913,4.8913,4.8913,4.9125,4.9313,4.9488,4.9785,5.0842,5.2967,5.1511,5.1872,5.4748,5.4398,5.6435,6.1326,6.0965,6.2963,6.7531,6.8089,6.9494,7.161,7.1937,7.1937,2.9648,3.1187,3.2617,3.3578,3.471,3.5842,3.6779,3.7383,3.828,4.0273,4.0899,4.1328,4.207,4.2793,4.3652,4.4822,4.6189,4.736,4.8105,4.8597,4.8913,4.8913,4.8913,4.8913,4.8913,4.8913,4.8913,4.8913,4.8913,4.8913,4.8913,4.8913,4.8913,4.8913,4.8913,4.8913,4.8913,4.8913,4.8913,4.8913,4.8913,4.8913,4.8913,4.8913,4.8913,4.8913,4.8913,4.8913,4.8913,4.8913,4.8913,4.8913,4.8913,4.8913,4.8913,4.8913,4.8913,4.8913,4.8913,4.8913,4.8913,4.8913,4.8913,4.8913,4.8913,4.8913,4.8913,4.8913,4.8913,4.8913,4.8913,4.8913,4.8913,4.8913,4.8913,4.8913,4.8913,4.8913,4.8913,4.8913,4.8913,4.8913,4.8913,4.8913,4.8913,4.8913,4.8913,4.8913,4.8913,4.8913,4.8913,4.8913,4.9258,4.9566,4.9703,5.0117,5.1289,5.3384,5.208,5.2787,5.6297,5.6023,5.7276,6.0424,6.0649,6.2583,6.6416,6.694,6.8821,7.1912,7.2441,7.2491,3.0234,3.1211,3.2036,3.416,3.4726,3.5527,3.8535,3.8905,3.9354,4.1894,4.2421,4.2558,4.3028,4.3437,4.3983,4.4862,4.6465,4.7737,4.8144,4.8597,4.8913,4.8913,4.8913,4.8913,4.8913,4.8913,4.8913,4.8913,4.8913,4.8913,4.8913,4.8913,4.8913,4.8913,4.8913,4.8913,4.8913,4.8913,4.8913,4.8913,4.8913,4.8913,4.8913,4.8913,4.8913,4.8913,4.8913,4.8913,4.8913,4.8913,4.8913,4.8913,4.8913,4.8913,4.8913,4.8913,4.8913,4.8913,4.8913,4.8913,4.8913,4.8913,4.8913,4.8913,4.8913,4.8913,4.8913,4.8913,4.8913,4.8913,4.8913,4.8913,4.8913,4.8913,4.8913,4.8913,4.8913,4.8913,4.8913,4.8913,4.8913,4.8913,4.8913,4.8913,4.8913,4.8913,4.8913,4.8913,4.8913,4.8913,4.8913,4.8913,4.9258,4.9707,5.018,5.0566,5.0996,5.1406,5.1836,5.4307,5.9159,5.7046,5.7402,6.0845,6.0492,6.2286,6.6416,6.6916,6.8821,7.1912,7.2441,7.2692,2.9959,3.1616,3.3492,3.4118,3.6328,3.8594,3.9492,3.9824,4.0664,4.3261,4.3808,4.3848,4.3984,4.4101,4.4473,4.5351,4.6406,4.7341,4.8105,4.8597,4.8913,4.8913,4.8913,4.8913,4.8913,4.8913,4.8913,4.8913,4.8913,4.8913,4.8913,4.8913,4.8913,4.8913,4.8913,4.8913,4.8913,4.8913,4.8913,4.8913,4.8913,4.8913,4.8913,4.8913,4.8913,4.8913,4.8913,4.8913,4.8913,4.8913,4.8913,4.8913,4.8913,4.8913,4.8913,4.8913,4.8913,4.8913,4.8913,4.8913,4.8913,4.8913,4.8913,4.8913,4.8913,4.8913,4.8913,4.8913,4.8913,4.8913,4.8913,4.8913,4.8913,4.8913,4.8913,4.8913,4.8913,4.8913,4.8913,4.8913,4.8913,4.8913,4.8913,4.8913,4.8913,4.8913,4.8913,4.8913,4.8913,4.8913,4.9007,4.9297,4.9726,5.0156,5.0586,5.0972,5.1998,5.3879,5.2821,5.3552,5.6788,5.5123,5.631,6.0963,5.9435,6.1176,6.6416,6.6559,6.8263,7.1334,7.1887,7.2139,3.1499,3.3082,3.486,3.5876,3.8026,4.0156,4.1172,4.1738,4.2538,4.4276,4.4648,4.4707,4.4883,4.4766,4.498,4.6016,4.6738,4.748,4.8363,4.8714,4.8913,4.8913,4.8913,4.8913,4.8913,4.8913,4.8913,4.8913,4.8913,4.8913,4.8913,4.8913,4.8913,4.8913,4.8913,4.8913,4.8913,4.8913,4.8913,4.8913,4.8913,4.8913,4.8913,4.8913,4.8913,4.8913,4.8913,4.8913,4.8913,4.8913,4.8913,4.8913,4.8913,4.8913,4.8913,4.8913,4.8913,4.8913,4.8913,4.8913,4.8913,4.8913,4.8913,4.8913,4.8913,4.8913,4.8913,4.8913,4.8913,4.8913,4.8913,4.8913,4.8913,4.8913,4.8913,4.8913,4.8913,4.8913,4.8913,4.8913,4.8913,4.8913,4.8913,4.8913,4.8913,4.8913,4.8913,4.8913,4.8913,4.9046,4.916,4.9258,4.9961,5.0469,5.0547,5.1069,5.212,5.3807,5.2909,5.355,5.6308,5.5238,5.6226,5.9742,5.9339,6.1393,6.6083,6.6321,6.7923,7.0805,7.1535,7.1912,3.3906,3.498,3.6055,3.8574,3.9707,4.0801,4.3164,4.4062,4.4531,4.4959,4.5096,4.5252,4.5725,4.5469,4.5564,4.6775,4.7344,4.7913,4.8679,4.8815,4.8855,4.8855,4.8855,4.8855,4.8894,4.8913,4.8913,4.8913,4.8913,4.8913,4.8913,4.8913,4.8913,4.8913,4.8913,4.8913,4.8913,4.8913,4.8913,4.8913,4.8913,4.8913,4.8913,4.8913,4.8913,4.8913,4.8913,4.8913,4.8913,4.8913,4.8913,4.8913,4.8913,4.8913,4.8913,4.8913,4.8913,4.8913,4.8913,4.8913,4.8913,4.8913,4.8913,4.8913,4.8913,4.8913,4.8913,4.8913,4.8913,4.8913,4.8913,4.8913,4.8913,4.8913,4.8913,4.8913,4.8913,4.8913,4.8913,4.8913,4.8913,4.8913,4.8913,4.8913,4.8913,4.8952,4.8949,4.8972,4.9011,4.9336,4.9433,4.907,5.0102,5.0644,5.0297,5.0976,5.1597,5.2075,5.2441,5.3906,5.6734,5.6641,5.707,5.8232,6.0292,6.2725,6.5608,6.6318,6.7914,7.0325,7.1334,7.1861,3.3047,3.4512,3.6408,3.8652,4.082,4.2637,4.3496,4.4062,4.4609,4.5392,4.5801,4.6152,4.656,4.656,4.6697,4.7344,4.7793,4.8027,4.7894,4.8167,4.834,4.834,4.834,4.8499,4.8874,4.8913,4.8913,4.8913,4.8913,4.8913,4.8913,4.8913,4.8913,4.8913,4.8913,4.8913,4.8913,4.8913,4.8913,4.8913,4.8913,4.8913,4.8913,4.8913,4.8913,4.8913,4.8913,4.8913,4.8913,4.8913,4.8913,4.8913,4.8913,4.8913,4.8913,4.8913,4.8913,4.8913,4.8913,4.8913,4.8913,4.8913,4.8913,4.8913,4.8913,4.8913,4.8913,4.8913,4.8913,4.8913,4.8913,4.8913,4.8913,4.8913,4.8913,4.8913,4.8913,4.8913,4.8913,4.8913,4.8913,4.8913,4.8913,4.8913,4.9007,4.9336,4.9352,4.9512,4.9867,5.0004,5.0023,4.9926,5.0449,5.0762,5.0683,5.1109,5.1597,5.2075,5.2168,5.2812,5.416,5.6375,5.8611,6.0856,6.3329,6.4906,6.5608,6.7721,6.9279,7.0325,7.0981,7.1485,3.3887,3.5452,3.7246,3.9805,4.1621,4.293,4.3555,4.4062,4.459,4.5234,4.5703,4.6133,4.654,4.6775,4.7048,4.7522,4.793,4.8125,4.791,4.8265,4.8382,4.7949,4.8086,4.8301,4.8558,4.8558,4.8656,4.8894,4.8913,4.8913,4.8913,4.8913,4.8913,4.8913,4.8913,4.8913,4.8913,4.8913,4.8913,4.8913,4.8913,4.8913,4.8913,4.8913,4.8913,4.8913,4.8913,4.8913,4.8913,4.8913,4.8913,4.8913,4.8913,4.8913,4.8913,4.8913,4.8913,4.8913,4.8913,4.8913,4.8913,4.8913,4.8913,4.8913,4.8913,4.8913,4.8913,4.8913,4.8913,4.8913,4.8913,4.8913,4.8913,4.8913,4.8913,4.8913,4.8913,4.8913,4.8913,4.8913,4.8913,4.8913,4.8913,4.9066,4.9336,4.9766,4.9844,4.9922,5.018,5.0375,5.0391,5.0219,5.0742,5.0991,5.082,5.1387,5.1933,5.2363,5.2603,5.3568,5.5486,5.8493,6.0636,6.1677,6.4272,6.6214,6.7439,6.9041,6.9978,7.0325,7.0855,7.1384,3.4612,3.6506,3.8281,4.1016,4.2109,4.2714,4.3437,4.3945,4.4394,4.4803,4.5312,4.5822,4.623,4.6618,4.7028,4.7402,4.7891,4.8125,4.791,4.8402,4.8441,4.7578,4.7832,4.8105,4.8105,4.8164,4.8359,4.8734,4.8773,4.8792,4.8894,4.8812,4.8835,4.8913,4.8913,4.8913,4.8913,4.8913,4.8913,4.8913,4.8913,4.8913,4.8913,4.8913,4.8913,4.8913,4.8913,4.8913,4.8913,4.8913,4.8913,4.8913,4.8913,4.8913,4.8913,4.8913,4.8913,4.8913,4.8913,4.8913,4.8913,4.8913,4.8913,4.8913,4.8913,4.8913,4.8913,4.8913,4.8913,4.8913,4.8913,4.8913,4.8913,4.8913,4.8913,4.8913,4.8913,4.8913,4.8913,4.8913,4.8913,4.8933,4.8988,4.9277,4.9683,5.0215,5.0317,5.0336,5.0414,5.0703,5.0762,5.0356,5.0952,5.1245,5.084,5.1582,5.2266,5.2676,5.3537,5.521,5.7786,6.0816,6.2465,6.251,6.5165,6.7568,6.9682,7.0179,7.0501,7.0579,7.093,7.1384,3.2793,3.6035,3.9316,4.0898,4.2149,4.3048,4.3145,4.3517,4.3926,4.4394,4.5138,4.5822,4.623,4.6618,4.6931,4.6989,4.7653,4.7812,4.6719,4.7558,4.7969,4.7087,4.7402,4.7679,4.7679,4.7988,4.8223,4.8281,4.8301,4.8457,4.8894,4.8519,4.8499,4.8894,4.8913,4.8913,4.8913,4.8913,4.8913,4.8913,4.8913,4.8913,4.8913,4.8913,4.8913,4.8913,4.8913,4.8913,4.8913,4.8913,4.8913,4.8913,4.8913,4.8913,4.8913,4.8913,4.8913,4.8913,4.8913,4.8913,4.8913,4.8913,4.8913,4.8913,4.8913,4.8913,4.8913,4.8913,4.8913,4.8913,4.8913,4.8913,4.8913,4.8913,4.8913,4.8913,4.8913,4.8913,4.8913,4.8913,4.8913,4.9007,4.9375,4.9469,4.9781,5.0605,5.0723,5.0859,5.1187,5.1284,5.1167,5.0762,5.1128,5.1245,5.084,5.1582,5.2266,5.2676,5.5196,5.7058,5.7861,6.0412,6.3053,6.5707,6.8796,7.0509,7.0857,7.0956,7.1209,7.1686,7.1259,7.1384,3.3496,3.6152,3.8574,4.0371,4.1445,4.209,4.2325,4.2891,4.3438,4.3634,4.4355,4.5156,4.5842,4.6484,4.6911,4.6911,4.7441,4.7578,4.6736,4.7344,4.7539,4.668,4.6931,4.7207,4.7207,4.736,4.7673,4.8164,4.7988,4.8047,4.8499,4.832,4.8301,4.8499,4.8753,4.8913,4.8913,4.8913,4.8913,4.8913,4.8913,4.8913,4.8894,4.8636,4.8656,4.8913,4.8913,4.8913,4.8913,4.8913,4.8913,4.8913,4.8913,4.8913,4.8913,4.8913,4.8913,4.8913,4.8913,4.8913,4.8913,4.8913,4.8913,4.8913,4.8913,4.8913,4.8913,4.8913,4.8913,4.8913,4.8913,4.8913,4.8913,4.8913,4.8913,4.8913,4.8913,4.8913,4.8913,4.8913,4.9086,4.9375,4.9824,5.0098,5.0425,5.103,5.1128,5.1206,5.1382,5.1401,5.1343,5.1148,5.1304,5.1343,5.1148,5.1933,5.2519,5.2695,5.5762,5.7676,5.7906,6.0682,6.352,6.6345,6.7471,6.9021,7.1106,7.1106,7.0462,6.9297,7.0831,7.0737,3.3789,3.5664,3.7148,3.9298,4.0449,4.1172,4.168,4.2461,4.3106,4.3106,4.3789,4.459,4.5256,4.6035,4.6618,4.6736,4.7129,4.7266,4.6814,4.7246,4.7288,4.6406,4.6658,4.6872,4.6755,4.695,4.7302,4.7832,4.7793,4.7832,4.8027,4.8144,4.8203,4.8203,4.8656,4.8913,4.8913,4.8773,4.8656,4.8581,4.8581,4.8581,4.8561,4.8226,4.8245,4.8581,4.8675,4.8714,4.8714,4.8855,4.8913,4.8913,4.8913,4.8913,4.8913,4.8913,4.8913,4.8913,4.8913,4.8913,4.8913,4.8913,4.8913,4.8913,4.8913,4.8913,4.8913,4.8913,4.8913,4.8913,4.8913,4.8913,4.8913,4.8913,4.8913,4.8913,4.8913,4.8913,4.8913,4.8913,4.9219,4.9644,5.0121,5.0527,5.0957,5.1343,5.1401,5.1401,5.1401,5.1401,5.1401,5.1401,5.1401,5.1401,5.1401,5.2182,5.2715,5.2715,5.5966,5.7906,5.7906,6.0158,6.2985,6.6322,6.4692,6.5944,7.0304,7.0404,6.9132,6.6644,6.9519,6.9538,3.2339,3.3867,3.5351,3.7502,3.9298,4.0762,4.1601,4.2461,4.3106,4.3106,4.3789,4.4414,4.4453,4.5177,4.59,4.6269,4.6677,4.6794,4.6387,4.7051,4.7288,4.6406,4.6658,4.6755,4.6367,4.707,4.7383,4.7009,4.7712,4.8008,4.7659,4.7988,4.8203,4.8203,4.8656,4.8913,4.8913,4.8457,4.8047,4.7659,4.7659,4.7659,4.7659,4.764,4.764,4.7698,4.8066,4.8242,4.8281,4.8714,4.8913,4.8913,4.8913,4.8913,4.8913,4.8913,4.8913,4.8913,4.8913,4.8913,4.8913,4.8913,4.8913,4.8913,4.8913,4.8913,4.8913,4.8913,4.8913,4.8913,4.8913,4.8913,4.8913,4.8913,4.8913,4.8913,4.8913,4.8913,4.8913,4.8913,4.9219,4.9644,5.0121,5.0527,5.0957,5.1343,5.1401,5.1401,5.1401,5.1401,5.1401,5.1401,5.1401,5.1401,5.1401,5.2182,5.2715,5.2715,5.5966,5.7906,5.7906,5.8051,6.0734,6.6298,6.1443,6.1905,6.806,6.8585,6.7429,6.4893,6.7084,6.7749,3.145,3.2715,3.4004,3.6135,3.7775,3.9063,3.9941,4.123,4.2324,4.2598,4.3144,4.3751,4.4297,4.4863,4.5312,4.5447,4.584,4.6074,4.594,4.6406,4.6641,4.6348,4.6426,4.6465,4.6308,4.6582,4.6797,4.6892,4.695,4.7031,4.7126,4.7282,4.7497,4.7815,4.8245,4.8597,4.8913,4.8418,4.8125,4.7969,4.7715,4.76,4.76,4.7285,4.7168,4.7146,4.7302,4.7673,4.8242,4.8695,4.8913,4.8913,4.8913,4.8913,4.8913,4.8913,4.8913,4.8913,4.8913,4.8913,4.8913,4.8913,4.8913,4.8913,4.8913,4.8913,4.8913,4.8913,4.8913,4.8913,4.8913,4.8913,4.8913,4.8913,4.8913,4.8913,4.8913,4.9105,4.9297,4.9297,4.984,5.0391,5.0547,5.0937,5.1226,5.1382,5.1401,5.1401,5.1401,5.1401,5.1401,5.1401,5.1401,5.1401,5.1401,5.2182,5.2715,5.2715,5.5966,5.7157,5.5462,5.7007,5.8863,6.0904,5.9659,6.1935,6.7915,6.8081,6.6837,6.4366,6.89,6.9448,3.0669,3.1816,3.316,3.5432,3.6526,3.7541,3.9434,4.0527,4.1406,4.2226,4.2773,4.3321,4.4023,4.4373,4.4666,4.4959,4.5273,4.5471,4.5471,4.582,4.6094,4.6094,4.6211,4.6308,4.6308,4.6426,4.654,4.6677,4.6719,4.6738,4.6697,4.7107,4.7558,4.8011,4.8304,4.8519,4.8656,4.8203,4.793,4.7751,4.7344,4.7148,4.7151,4.6855,4.6775,4.6911,4.7067,4.7458,4.8027,4.848,4.8753,4.8913,4.8913,4.8913,4.8913,4.8913,4.8913,4.8913,4.8913,4.8913,4.8913,4.8913,4.8913,4.8913,4.8913,4.8913,4.8913,4.8913,4.8913,4.8913,4.8913,4.8913,4.8913,4.8913,4.8913,4.8952,4.9066,4.9316,4.9469,4.9336,5.0117,5.0762,5.0625,5.103,5.1401,5.1401,5.1538,5.1616,5.1616,5.1616,5.1616,5.1616,5.1499,5.146,5.1616,5.2305,5.2773,5.291,5.524,5.5794,5.4074,5.5689,5.7065,5.8088,5.8029,6.0322,6.5186,6.5368,6.4568,6.2964,6.7777,6.9477,0.0,0.0,0.0,3.5237,3.5605,3.6345,4.0156,4.039,4.0293,4.1992,4.2695,4.3145,4.3594,4.3691,4.3965,4.4822,4.4979,4.4998,4.4998,4.541,4.5705,4.5705,4.6035,4.6289,4.6289,4.6638,4.6716,4.6328,4.707,4.7187,4.6348,4.75,4.8398,4.8874,4.8894,4.8675,4.8223,4.7835,4.7383,4.6911,4.6523,4.6308,4.6308,4.6308,4.6523,4.6931,4.7383,4.76,4.7659,4.8047,4.8499,4.8913,4.8913,4.8913,4.8913,4.8913,4.8913,4.8913,4.8913,4.8913,4.8913,4.8913,4.8913,4.8913,4.8913,4.8913,4.8913,4.8913,4.8913,4.8913,4.8913,4.8913,4.8913,4.8913,4.8913,4.9007,4.9391,4.9488,4.9391,4.905,4.9965,5.0703,5.0317,5.0898,5.1401,5.1401,5.1797,5.2095,5.2095,5.2095,5.2114,5.2114,5.1694,5.1616,5.2095,5.248,5.291,5.339,5.3789,5.3998,5.3998,5.4017,5.5403,5.8327,5.6359,5.6747,5.9706,6.0301,6.0635,6.0791,6.3596,6.7647,2.9604,0.0,0.0,0.0,0.0,0.0,3.6523,3.7303,3.8241,4.0547,4.0898,4.1289,4.2969,4.3263,4.3437,4.3984,4.4588,4.4998,4.4998,4.5664,4.6037,4.5725,4.5803,4.5861,4.5861,4.5979,4.6113,4.6289,4.6523,4.6543,4.6308,4.7226,4.7972,4.8379,4.8714,4.8855,4.8695,4.8265,4.7812,4.7402,4.695,4.6579,4.6308,4.6308,4.6523,4.6911,4.7028,4.7461,4.8066,4.8519,4.8773,4.8913,4.8913,4.8913,4.8913,4.8913,4.8913,4.8913,4.8913,4.8913,4.8913,4.8913,4.8913,4.8913,4.8913,4.8913,4.8913,4.8913,4.8913,4.8913,4.8913,4.8913,4.8913,4.8913,4.8913,4.8933,4.9046,4.9297,4.9644,5.0176,5.0777,5.1206,5.1089,5.1245,5.1401,5.1401,5.1499,5.1577,5.1577,5.1894,5.2114,5.2114,5.2246,5.2402,5.2519,5.2955,5.3248,5.3384,5.3789,5.3998,5.3998,5.4336,5.4911,5.5735,5.5737,5.6143,5.6984,5.9434,6.1622,6.3673,6.793,6.9717,2.978,3.0483,3.1328,3.2094,0.0,0.0,3.5918,3.6426,3.7187,3.9942,4.0469,4.0879,4.2305,4.2676,4.2949,4.3379,4.4023,4.453,4.4705,4.533,4.5683,4.543,4.5744,4.5881,4.5725,4.5705,4.5881,4.6269,4.6133,4.6269,4.6816,4.7327,4.7874,4.8457,4.8753,4.8815,4.8617,4.8164,4.7734,4.7305,4.6853,4.6521,4.6308,4.6308,4.6523,4.6911,4.7107,4.7578,4.8242,4.8695,4.8913,4.8913,4.8913,4.8913,4.8913,4.8913,4.8913,4.8913,4.8913,4.8913,4.8913,4.8913,4.8913,4.8913,4.8913,4.8913,4.8913,4.8913,4.8913,4.8913,4.8913,4.8913,4.8913,4.8913,4.8913,4.8952,4.9125,4.9313,4.9586,4.9941,5.0625,5.1089,5.0937,5.1167,5.146,5.1655,5.1831,5.2007,5.2207,5.2486,5.2642,5.2642,5.2676,5.2773,5.2994,5.3228,5.3463,5.3633,5.3861,5.4095,5.4271,5.4551,5.487,5.5195,5.5657,5.655,5.7873,5.9699,6.2577,6.6436,6.9093,6.962,3.0351,3.0981,3.1899,3.2992,3.2847,0.0,3.6584,3.6526,3.6584,3.9356,4.0254,4.0722,4.1269,4.1738,4.2167,4.2598,4.3164,4.375,4.4316,4.4766,4.4979,4.494,4.5664,4.6016,4.5666,4.5666,4.5881,4.6269,4.5979,4.6291,4.7464,4.7581,4.7972,4.8796,4.8874,4.8675,4.8203,4.7855,4.7402,4.6911,4.654,4.6348,4.6308,4.6348,4.6601,4.7009,4.7461,4.7891,4.8301,4.8714,4.8913,4.8913,4.8913,4.8913,4.8913,4.8913,4.8913,4.8913,4.8913,4.8913,4.8913,4.8913,4.8913,4.8913,4.8913,4.8913,4.8913,4.8913,4.8913,4.8913,4.8913,4.8913,4.8913,4.8913,4.8913,4.8988,4.9375,4.943,4.9355,4.9027,4.9965,5.0683,5.0336,5.0898,5.1558,5.2036,5.2402,5.2793,5.3248,5.339,5.341,5.341,5.3091,5.3008,5.3424,5.3463,5.3638,5.3978,5.3998,5.4173,5.4615,5.4733,5.5098,5.5813,5.593,5.7663,6.1076,6.1076,6.3524,6.8236,6.82,6.8005,3.1348,3.1879,3.2519,3.2457,3.3098,0.0,3.3789,3.4157,3.4841,3.6133,3.6465,3.6973,3.84,3.9298,3.9863,3.9941,4.1484,4.3065,4.4238,4.4766,4.4881,4.457,4.494,4.5213,4.5135,4.5469,4.5881,4.6269,4.623,4.6426,4.7009,4.7383,4.7835,4.832,4.8695,4.8675,4.8203,4.8125,4.7673,4.6911,4.6814,4.6599,4.6308,4.6638,4.7028,4.748,4.791,4.8343,4.8753,4.8874,4.8913,4.8913,4.8913,4.8913,4.8913,4.8913,4.8913,4.8913,4.8913,4.8913,4.8913,4.8913,4.8913,4.8913,4.8913,4.8913,4.8913,4.8913,4.8913,4.8913,4.8913,4.8913,4.8913,4.8913,4.8913,4.8933,4.8988,4.9007,4.9086,4.9336,5.0156,5.0781,5.0703,5.1069,5.1558,5.2036,5.2173,5.2363,5.2773,5.317,5.341,5.341,5.3613,5.3783,5.3887,5.3881,5.392,5.3998,5.3998,5.4037,5.4134,5.4824,5.5254,5.5403,5.6113,5.8918,6.3898,6.3898,6.4432,6.5538,6.7603,6.6113,3.2085,3.2305,3.2793,3.2793,0.0,0.0,0.0,3.4098,3.4544,3.6052,3.5996,3.6135,3.7638,3.8087,3.8535,3.9414,4.0625,4.1836,4.2949,4.4043,4.4629,4.4414,4.4766,4.492,4.4705,4.4902,4.5215,4.5603,4.6055,4.6484,4.6892,4.7344,4.7773,4.8203,4.8418,4.8441,4.8203,4.7751,4.7321,4.6911,4.6697,4.6504,4.6308,4.6716,4.7028,4.7285,4.793,4.832,4.8578,4.8792,4.8913,4.8913,4.8913,4.8913,4.8913,4.8913,4.8913,4.8913,4.8913,4.8913,4.8913,4.8913,4.8913,4.8913,4.8913,4.8913,4.8913,4.8913,4.8913,4.8913,4.8913,4.9046,4.9164,4.8952,4.9222,4.9476,4.9238,4.9379,4.9613,4.9805,5.0371,5.0801,5.0801,5.1128,5.1636,5.2305,5.2402,5.2637,5.3256,5.3555,5.3691,5.3691,5.3861,5.3998,5.3998,5.3998,5.3998,5.3998,5.3998,5.4095,5.4336,5.4961,5.5508,5.5937,5.6394,5.8599,6.2675,6.2675,6.4053,6.6659,6.5091,6.2893,3.3117,0.0,0.0,0.0,0.0,3.3887,0.0,0.0,0.0,3.623,3.6057,3.5959,3.7092,3.709,3.7363,3.8691,3.959,4.0313,4.0859,4.25,4.3711,4.3887,4.4315,4.453,4.4297,4.4199,4.4394,4.4959,4.5508,4.6055,4.6638,4.7168,4.7617,4.7949,4.8047,4.8086,4.8086,4.7302,4.6911,4.6911,4.6482,4.6348,4.6426,4.6755,4.6989,4.7185,4.7887,4.8262,4.8359,4.8734,4.8913,4.8913,4.8913,4.8913,4.8913,4.8913,4.8913,4.8913,4.8913,4.8913,4.8913,4.8913,4.8913,4.8913,4.8913,4.8913,4.8913,4.8913,4.8913,4.8933,4.9011,4.9258,4.943,4.9203,4.9613,4.998,4.9707,4.9863,5.0098,5.0297,5.0566,5.0801,5.0801,5.1128,5.1675,5.248,5.2656,5.3008,5.3764,5.3939,5.3998,5.3998,5.392,5.3881,5.3881,5.3881,5.3881,5.3881,5.3959,5.4154,5.4531,5.4961,5.5586,5.6445,5.6465,5.7832,6.0609,6.0084,6.2346,6.7032,6.2314,6.0015,0.0,0.0,0.0,0.0,3.5684,0.0,3.3652,0.0,3.4492,3.3949,0.0,3.4469,3.4961,0.0,0.0,3.5332,3.7283,3.8592,3.791,3.961,4.123,4.2012,4.2833,4.3438,4.375,4.3458,4.373,4.492,4.4394,4.4531,4.5783,4.654,4.7009,4.7048,4.7441,4.7679,4.7679,4.7146,4.6911,4.6911,4.6482,4.6504,4.6833,4.6892,4.7321,4.8066,4.8164,4.8441,4.8812,4.8894,4.8913,4.8913,4.8913,4.8913,4.8913,4.8913,4.8913,4.8913,4.8913,4.8913,4.8913,4.8913,4.8913,4.8913,4.8913,4.8913,4.8913,4.8913,4.8913,4.8968,4.9355,4.9469,4.9586,4.9941,4.9805,4.9664,5.0039,4.9844,4.9801,5.0586,5.0781,5.0801,5.0801,5.1128,5.1577,5.209,5.2461,5.2891,5.3404,5.3789,5.3998,5.3998,5.3672,5.3463,5.3463,5.3463,5.3463,5.3463,5.3808,5.4017,5.4076,5.4512,5.5156,5.597,5.5989,5.7506,6.0583,5.8203,5.8579,6.1519,6.0831,5.9279,3.5508,0.0,0.0,0.0,0.0,0.0,3.4258,0.0,3.4004,3.4141,0.0,0.0,0.0,0.0,0.0,0.0,3.6387,3.7051,3.697,3.793,3.9239,4.084,4.1367,4.1855,4.2539,4.2441,4.2773,4.3808,4.3555,4.3906,4.5234,4.6072,4.6658,4.6892,4.7363,4.7718,4.7949,4.7243,4.7146,4.7634,4.697,4.6894,4.7305,4.7558,4.7848,4.8223,4.8499,4.8714,4.8913,4.8913,4.8913,4.8913,4.8913,4.8913,4.8913,4.8913,4.8913,4.8913,4.8913,4.8913,4.8913,4.8913,4.8913,4.8913,4.8913,4.9066,4.9258,4.9258,4.9258,4.9355,4.9785,4.9902,4.9961,5.016,5.0234,5.0254,5.0219,5.0063,5.0019,5.0371,5.0449,5.0527,5.0762,5.1128,5.1558,5.2036,5.2226,5.25,5.293,5.3144,5.3236,5.3236,5.3086,5.2988,5.2988,5.2988,5.3111,5.3365,5.3789,5.4115,5.4394,5.4615,5.5078,5.5891,5.5911,5.6689,5.8282,5.7149,5.7176,5.8282,5.8282,5.7687,3.6055,0.0,0.0,0.0,0.0,0.0,0.0,0.0,0.0,0.0,3.4492,0.0,0.0,0.0,3.4723,3.551,0.0,3.5918,3.6111,3.6619,3.7656,3.9571,4.0215,4.0742,4.1387,4.1133,4.1426,4.2657,4.2422,4.293,4.4549,4.5467,4.6152,4.654,4.7012,4.7441,4.7829,4.7224,4.7282,4.8027,4.738,4.7344,4.7776,4.7949,4.8164,4.8398,4.8617,4.8773,4.8913,4.8913,4.8913,4.8913,4.8913,4.8913,4.8913,4.8913,4.8913,4.8913,4.8913,4.8913,4.8913,4.8913,4.8913,4.8913,4.8913,4.918,4.9508,4.9508,4.9586,4.9805,5.0234,5.0351,5.0395,5.0488,5.0586,5.0586,5.0391,5.018,5.0063,5.018,5.0199,5.0336,5.0723,5.103,5.1382,5.1836,5.2036,5.2212,5.25,5.2637,5.2715,5.2715,5.2598,5.2539,5.2539,5.2539,5.2773,5.3345,5.3672,5.4043,5.4492,5.4512,5.4844,5.554,5.5677,5.595,5.6406,5.6523,5.6609,5.6609,5.6609,5.6609,0.0,0.0,0.0,3.6035,0.0,0.0,0.0,0.0,3.5215,0.0,0.0,0.0,3.6057,3.5644,3.5215,3.4805,3.5117,0.0,0.0,3.5491,3.6526,3.7834,3.9473,4.0508,4.0547,3.9433,3.9589,4.168,4.0703,4.1094,4.3613,4.4569,4.5273,4.5725,4.6133,4.6521,4.695,4.6911,4.7126,4.762,4.76,4.7773,4.8164,4.7773,4.8069,4.8855,4.8398,4.8499,4.8913,4.8913,4.8913,4.8913,4.8913,4.8913,4.8913,4.8913,4.8913,4.8913,4.8913,4.8913,4.8913,4.8913,4.8913,4.8913,4.8913,4.918,4.9508,4.9508,4.9824,5.0278,5.0683,5.0781,5.0879,5.1265,5.0781,5.0336,5.0703,5.0113,4.9644,5.0121,5.0199,5.0336,5.0723,5.082,5.0976,5.1362,5.1816,5.2114,5.2134,5.2461,5.2715,5.2715,5.2344,5.2134,5.2134,5.2134,5.2486,5.3351,5.3429,5.3599,5.3998,5.4017,5.4258,5.4733,5.5117,5.5501,5.593,5.6387,5.6609,5.6609,5.6609,5.6609,0.0,0.0,3.9238,3.7482,0.0,0.0,0.0,0.0,0.0,0.0,0.0,0.0,0.0,3.5488,3.5351,3.5176,3.4821,3.4469,0.0,3.4785,3.551,3.6526,3.8184,3.9238,3.9238,3.8846,3.9139,4.043,4.0371,4.1191,4.3204,4.4373,4.5234,4.5686,4.6348,4.6892,4.7363,4.7363,4.7737,4.8464,4.8148,4.8245,4.8656,4.8519,4.864,4.8894,4.8734,4.8753,4.8913,4.8913,4.8913,4.8913,4.8913,4.8913,4.8913,4.8913,4.8913,4.8913,4.8913,4.8913,4.8913,4.8913,4.9086,4.9238,4.8968,4.9594,5.0289,5.0039,5.0273,5.0683,5.1089,5.0991,5.084,5.0976,5.0586,5.016,4.9976,4.9492,4.9144,4.9301,4.9551,4.9762,4.9918,5.0195,5.0625,5.1304,5.1538,5.166,5.166,5.1753,5.1831,5.1831,5.1714,5.166,5.166,5.1914,5.2232,5.2525,5.3072,5.3443,5.3599,5.3842,5.4213,5.4694,5.4824,5.5234,5.5911,5.6048,5.6308,5.6609,5.6609,5.6609,3.9219,3.9648,0.0,3.8263,3.7832,0.0,3.5566,0.0,3.6055,0.0,0.0,0.0,0.0,3.5898,3.5449,3.5586,3.4762,3.4114,0.0,3.4587,3.5273,3.6152,3.7381,3.826,3.8573,3.8319,3.869,4.0019,3.9941,4.0723,4.2734,4.3905,4.4824,4.543,4.6248,4.6814,4.7129,4.7444,4.7874,4.8444,4.846,4.8617,4.8913,4.8913,4.8913,4.8913,4.8913,4.8913,4.8913,4.8913,4.8913,4.8913,4.8913,4.8913,4.8913,4.8913,4.8913,4.8913,4.8913,4.8913,4.8933,4.9066,4.9297,4.9469,4.9398,5.0043,5.0742,5.0492,5.0703,5.1069,5.1343,5.1206,5.0972,5.084,5.0488,5.0058,4.9605,4.918,4.8913,4.8913,4.9125,4.9336,4.9469,4.9766,5.0234,5.105,5.1187,5.1245,5.1382,5.1401,5.1401,5.1401,5.1401,5.1401,5.1401,5.1699,5.1973,5.2285,5.2837,5.3287,5.3599,5.3842,5.4134,5.4453,5.4609,5.5019,5.5677,5.5833,5.6126,5.6609,5.6609,5.6609]}]]